Weather Data 2018-06-20

Time Wind Dr Wind Spd
mph
Wind Gust
mph
Hum In
%
Humid
%
TempI
F
Temp
F
Raw Bar
in
Tot Rain
in
UV Solar
W/sqm
DailyRain
in
HourRain
in
24HrRain
in
RainRate
in
06/20/18 12:01:33 AM 201 0.0 0.0 48 76 78.8 63.5 29.981 2.77 0.0 0 0.00 0.00 0.00 0.00
06/20/18 12:02:24 AM 201 0.0 0.0 48 76 78.8 63.5 29.982 2.77 0.0 0 0.00 0.00 0.00 0.00
06/20/18 12:03:19 AM 201 0.0 0.0 48 76 78.8 63.4 29.980 2.77 0.0 0 0.00 0.00 0.00 0.00
06/20/18 12:04:32 AM 201 0.0 0.0 48 77 78.8 63.4 29.983 2.77 0.0 0 0.00 0.00 0.00 0.00
06/20/18 12:05:19 AM 201 0.0 0.0 48 77 78.7 63.3 29.980 2.77 0.0 0 0.00 0.00 0.00 0.00
06/20/18 12:06:30 AM 201 0.0 0.0 48 77 78.8 63.3 29.979 2.77 0.0 0 0.00 0.00 0.00 0.00
06/20/18 12:07:23 AM 201 0.0 0.0 48 77 78.8 63.4 29.979 2.77 0.0 0 0.00 0.00 0.00 0.00
06/20/18 12:08:16 AM 201 0.0 0.0 48 77 78.8 63.4 29.979 2.77 0.0 0 0.00 0.00 0.00 0.00
06/20/18 12:09:27 AM 201 0.0 0.0 48 77 78.7 63.5 29.980 2.77 0.0 0 0.00 0.00 0.00 0.00
06/20/18 12:10:21 AM 201 0.0 0.0 48 77 78.7 63.5 29.980 2.77 0.0 0 0.00 0.00 0.00 0.00
06/20/18 12:11:29 AM 201 0.0 0.0 48 77 78.7 63.5 29.980 2.77 0.0 0 0.00 0.00 0.00 0.00
06/20/18 12:12:22 AM 201 0.0 0.0 48 77 78.7 63.5 29.981 2.77 0.0 0 0.00 0.00 0.00 0.00
06/20/18 12:13:36 AM 201 0.0 0.0 48 76 78.7 63.5 29.980 2.77 0.0 0 0.00 0.00 0.00 0.00
06/20/18 12:14:27 AM 201 0.0 0.0 48 76 78.7 63.5 29.979 2.77 0.0 0 0.00 0.00 0.00 0.00
06/20/18 12:15:20 AM 201 0.0 0.0 48 76 78.7 63.4 29.978 2.77 0.0 0 0.00 0.00 0.00 0.00
06/20/18 12:16:28 AM 201 0.0 0.0 48 76 78.7 63.4 29.977 2.77 0.0 0 0.00 0.00 0.00 0.00
06/20/18 12:17:21 AM 201 0.0 0.0 48 77 78.7 63.3 29.976 2.77 0.0 0 0.00 0.00 0.00 0.00
06/20/18 12:18:33 AM 201 0.0 0.0 48 77 78.7 63.3 29.977 2.77 0.0 0 0.00 0.00 0.00 0.00
06/20/18 12:19:29 AM 201 0.0 0.0 48 77 78.7 63.2 29.980 2.77 0.0 0 0.00 0.00 0.00 0.00
06/20/18 12:20:19 AM 201 0.0 0.0 48 78 78.7 63.2 29.978 2.77 0.0 0 0.00 0.00 0.00 0.00
06/20/18 12:21:27 AM 201 0.0 0.0 48 78 78.7 63.2 29.975 2.77 0.0 0 0.00 0.00 0.00 0.00
06/20/18 12:22:20 AM 201 0.0 0.0 48 77 78.7 63.2 29.978 2.77 0.0 0 0.00 0.00 0.00 0.00
06/20/18 12:23:31 AM 200 0.0 0.0 48 77 78.7 63.1 29.978 2.77 0.0 0 0.00 0.00 0.00 0.00
06/20/18 12:24:25 AM 200 0.0 0.0 48 78 78.7 63.1 29.978 2.77 0.0 0 0.00 0.00 0.00 0.00
06/20/18 12:25:18 AM 200 0.0 0.0 48 78 78.7 63.2 29.978 2.77 0.0 0 0.00 0.00 0.00 0.00
06/20/18 12:26:29 AM 200 0.0 0.0 48 77 78.7 63.2 29.978 2.77 0.0 0 0.00 0.00 0.00 0.00
06/20/18 12:27:19 AM 200 0.0 0.0 48 77 78.7 63.2 29.977 2.77 0.0 0 0.00 0.00 0.00 0.00
06/20/18 12:28:31 AM 200 0.0 0.0 48 77 78.7 63.1 29.977 2.77 0.0 0 0.00 0.00 0.00 0.00
06/20/18 12:29:24 AM 200 0.0 0.0 48 77 78.7 63.1 29.978 2.77 0.0 0 0.00 0.00 0.00 0.00
06/20/18 12:30:35 AM 200 0.0 0.0 48 77 78.7 63.1 29.978 2.77 0.0 0 0.00 0.00 0.00 0.00
06/20/18 12:31:28 AM 200 0.0 0.0 48 77 78.6 63.0 29.976 2.77 0.0 0 0.00 0.00 0.00 0.00
06/20/18 12:32:16 AM 200 0.0 0.0 48 77 78.6 63.0 29.978 2.77 0.0 0 0.00 0.00 0.00 0.00
06/20/18 12:33:30 AM 200 0.0 0.0 48 77 78.6 62.9 29.975 2.77 0.0 0 0.00 0.00 0.00 0.00
06/20/18 12:34:23 AM 200 0.0 0.0 48 77 78.7 62.9 29.977 2.77 0.0 0 0.00 0.00 0.00 0.00
06/20/18 12:35:35 AM 200 0.0 0.0 48 77 78.6 62.9 29.977 2.77 0.0 0 0.00 0.00 0.00 0.00
06/20/18 12:36:28 AM 200 0.0 0.0 48 78 78.7 62.9 29.976 2.77 0.0 0 0.00 0.00 0.00 0.00
06/20/18 12:37:21 AM 200 0.0 0.0 48 78 78.6 62.9 29.978 2.77 0.0 0 0.00 0.00 0.00 0.00
06/20/18 12:38:30 AM 200 0.0 0.0 48 78 78.6 62.9 29.977 2.77 0.0 0 0.00 0.00 0.00 0.00
06/20/18 12:39:23 AM 200 0.0 0.0 48 78 78.6 62.8 29.978 2.77 0.0 0 0.00 0.00 0.00 0.00
06/20/18 12:40:34 AM 200 0.0 0.0 48 78 78.6 62.8 29.976 2.77 0.0 0 0.00 0.00 0.00 0.00
06/20/18 12:41:28 AM 200 0.0 0.0 48 78 78.6 62.8 29.977 2.77 0.0 0 0.00 0.00 0.00 0.00
06/20/18 12:42:21 AM 200 0.0 0.0 48 78 78.6 62.7 29.978 2.77 0.0 0 0.00 0.00 0.00 0.00
06/20/18 12:43:29 AM 200 0.0 0.0 48 78 78.6 62.7 29.977 2.77 0.0 0 0.00 0.00 0.00 0.00
06/20/18 12:44:22 AM 200 0.0 0.0 48 78 78.6 62.7 29.975 2.77 0.0 0 0.00 0.00 0.00 0.00
06/20/18 12:45:34 AM 200 0.0 0.0 48 78 78.6 62.6 29.975 2.77 0.0 0 0.00 0.00 0.00 0.00
06/20/18 12:46:27 AM 200 0.0 0.0 48 79 78.6 62.6 29.976 2.77 0.0 0 0.00 0.00 0.00 0.00
06/20/18 12:47:20 AM 200 0.0 0.0 48 79 78.6 62.6 29.976 2.77 0.0 0 0.00 0.00 0.00 0.00
06/20/18 12:48:28 AM 200 0.0 0.0 48 79 78.6 62.6 29.976 2.77 0.0 0 0.00 0.00 0.00 0.00
06/20/18 12:49:22 AM 200 0.0 0.0 48 79 78.6 62.6 29.977 2.77 0.0 0 0.00 0.00 0.00 0.00
06/20/18 12:50:33 AM 200 0.0 0.0 48 79 78.6 62.6 29.974 2.77 0.0 0 0.00 0.00 0.00 0.00
06/20/18 12:51:26 AM 200 0.0 0.0 48 79 78.6 62.6 29.974 2.77 0.0 0 0.00 0.00 0.00 0.00
06/20/18 12:52:16 AM 200 0.0 0.0 48 79 78.6 62.7 29.975 2.77 0.0 0 0.00 0.00 0.00 0.00
06/20/18 12:53:31 AM 200 0.0 0.0 48 78 78.6 62.7 29.975 2.77 0.0 0 0.00 0.00 0.00 0.00
06/20/18 12:54:21 AM 200 0.0 0.0 48 78 78.6 62.7 29.975 2.77 0.0 0 0.00 0.00 0.00 0.00
06/20/18 12:55:32 AM 200 0.0 0.0 48 78 78.6 62.6 29.974 2.77 0.0 0 0.00 0.00 0.00 0.00
06/20/18 12:56:26 AM 200 0.0 0.0 48 78 78.5 62.5 29.976 2.77 0.0 0 0.00 0.00 0.00 0.00
06/20/18 12:57:16 AM 200 0.0 0.0 48 78 78.5 62.5 29.974 2.77 0.0 0 0.00 0.00 0.00 0.00
06/20/18 12:58:30 AM 200 0.0 0.0 48 78 78.5 62.5 29.973 2.77 0.0 0 0.00 0.00 0.00 0.00
06/20/18 12:59:17 AM 200 0.0 0.0 48 78 78.5 62.4 29.973 2.77 0.0 0 0.00 0.00 0.00 0.00
06/20/18 1:00:32 AM 199 0.0 0.0 48 79 78.5 62.4 29.973 2.77 0.0 0 0.00 0.00 0.00 0.00
06/20/18 1:01:22 AM 200 0.0 0.0 48 79 78.5 62.4 29.970 2.77 0.0 0 0.00 0.00 0.00 0.00
06/20/18 1:02:37 AM 200 0.0 0.0 48 79 78.5 62.4 29.969 2.77 0.0 0 0.00 0.00 0.00 0.00
06/20/18 1:03:27 AM 200 0.0 0.0 48 79 78.5 62.4 29.970 2.77 0.0 0 0.00 0.00 0.00 0.00
06/20/18 1:04:20 AM 199 0.0 0.0 48 79 78.5 62.4 29.969 2.77 0.0 0 0.00 0.00 0.00 0.00
06/20/18 1:05:29 AM 144 0.0 2.0 48 79 78.5 62.4 29.969 2.77 0.0 0 0.00 0.00 0.00 0.00
06/20/18 1:06:22 AM 128 2.0 3.0 48 79 78.6 62.4 29.968 2.77 0.0 0 0.00 0.00 0.00 0.00
06/20/18 1:07:33 AM 128 2.0 3.0 48 79 78.5 62.4 29.969 2.77 0.0 0 0.00 0.00 0.00 0.00
06/20/18 1:08:26 AM 121 2.0 3.0 48 79 78.5 62.4 29.971 2.77 0.0 0 0.00 0.00 0.00 0.00
06/20/18 1:09:17 AM 121 1.0 3.0 48 79 78.5 62.4 29.968 2.77 0.0 0 0.00 0.00 0.00 0.00
06/20/18 1:10:28 AM 121 1.0 3.0 48 79 78.5 62.3 29.971 2.77 0.0 0 0.00 0.00 0.00 0.00
06/20/18 1:11:18 AM 111 3.0 3.0 48 79 78.5 62.3 29.970 2.77 0.0 0 0.00 0.00 0.00 0.00
06/20/18 1:12:33 AM 111 2.0 3.0 48 79 78.5 62.2 29.968 2.77 0.0 0 0.00 0.00 0.00 0.00
06/20/18 1:13:23 AM 111 2.0 3.0 48 79 78.5 62.2 29.967 2.77 0.0 0 0.00 0.00 0.00 0.00
06/20/18 1:14:19 AM 110 1.0 3.0 48 79 78.5 62.1 29.969 2.77 0.0 0 0.00 0.00 0.00 0.00
06/20/18 1:15:28 AM 87 2.0 3.0 48 79 78.5 62.1 29.968 2.77 0.0 0 0.00 0.00 0.00 0.00
06/20/18 1:16:18 AM 87 2.0 3.0 48 80 78.5 62.0 29.970 2.77 0.0 0 0.00 0.00 0.00 0.00
06/20/18 1:17:33 AM 87 2.0 3.0 48 80 78.5 62.0 29.967 2.77 0.0 0 0.00 0.00 0.00 0.00
06/20/18 1:18:23 AM 87 1.0 3.0 48 80 78.5 62.1 29.967 2.77 0.0 0 0.00 0.00 0.00 0.00
06/20/18 1:19:37 AM 87 1.0 3.0 48 80 78.4 62.1 29.966 2.77 0.0 0 0.00 0.00 0.00 0.00
06/20/18 1:20:28 AM 87 1.0 3.0 48 80 78.4 62.0 29.966 2.77 0.0 0 0.00 0.00 0.00 0.00
06/20/18 1:21:18 AM 87 1.0 3.0 48 80 78.4 62.0 29.969 2.77 0.0 0 0.00 0.00 0.00 0.00
06/20/18 1:22:32 AM 87 1.0 3.0 48 80 78.4 61.9 29.966 2.77 0.0 0 0.00 0.00 0.00 0.00
06/20/18 1:23:22 AM 87 2.0 3.0 48 80 78.4 61.8 29.969 2.77 0.0 0 0.00 0.00 0.00 0.00
06/20/18 1:24:34 AM 86 1.0 3.0 48 80 78.4 61.8 29.968 2.77 0.0 0 0.00 0.00 0.00 0.00
06/20/18 1:25:24 AM 86 2.0 3.0 48 80 78.4 61.8 29.966 2.77 0.0 0 0.00 0.00 0.00 0.00
06/20/18 1:26:33 AM 86 1.0 3.0 48 80 78.4 61.8 29.963 2.77 0.0 0 0.00 0.00 0.00 0.00
06/20/18 1:27:29 AM 86 1.0 3.0 48 80 78.4 61.8 29.967 2.77 0.0 0 0.00 0.00 0.00 0.00
06/20/18 1:28:19 AM 82 2.0 3.0 48 80 78.4 61.7 29.965 2.77 0.0 0 0.00 0.00 0.00 0.00
06/20/18 1:29:34 AM 82 0.0 3.0 48 80 78.4 61.7 29.966 2.77 0.0 0 0.00 0.00 0.00 0.00
06/20/18 1:30:27 AM 82 0.0 3.0 48 80 78.4 61.6 29.963 2.77 0.0 0 0.00 0.00 0.00 0.00
06/20/18 1:31:20 AM 82 0.0 3.0 48 80 78.4 61.6 29.962 2.77 0.0 0 0.00 0.00 0.00 0.00
06/20/18 1:32:29 AM 82 1.0 3.0 48 80 78.4 61.5 29.962 2.77 0.0 0 0.00 0.00 0.00 0.00
06/20/18 1:33:22 AM 82 0.0 3.0 48 80 78.3 61.5 29.961 2.77 0.0 0 0.00 0.00 0.00 0.00
06/20/18 1:34:34 AM 82 1.0 3.0 48 81 78.3 61.4 29.962 2.77 0.0 0 0.00 0.00 0.00 0.00
06/20/18 1:35:27 AM 82 1.0 3.0 48 81 78.4 61.4 29.963 2.77 0.0 0 0.00 0.00 0.00 0.00
06/20/18 1:36:17 AM 82 2.0 3.0 48 81 78.3 61.4 29.961 2.77 0.0 0 0.00 0.00 0.00 0.00
06/20/18 1:37:25 AM 82 2.0 3.0 48 81 78.4 61.5 29.960 2.77 0.0 0 0.00 0.00 0.00 0.00
06/20/18 1:38:19 AM 82 2.0 3.0 48 81 78.3 61.5 29.958 2.77 0.0 0 0.00 0.00 0.00 0.00
06/20/18 1:39:30 AM 82 1.0 3.0 48 81 78.3 61.5 29.959 2.77 0.0 0 0.00 0.00 0.00 0.00
06/20/18 1:40:23 AM 82 0.0 3.0 48 80 78.3 61.4 29.958 2.77 0.0 0 0.00 0.00 0.00 0.00
06/20/18 1:41:17 AM 82 0.0 3.0 48 80 78.3 61.4 29.957 2.77 0.0 0 0.00 0.00 0.00 0.00
06/20/18 1:42:25 AM 82 0.0 3.0 48 80 78.3 61.3 29.958 2.77 0.0 0 0.00 0.00 0.00 0.00
06/20/18 1:43:37 AM 82 0.0 3.0 48 80 78.3 61.3 29.957 2.77 0.0 0 0.00 0.00 0.00 0.00
06/20/18 1:44:30 AM 82 0.0 3.0 48 81 78.3 61.3 29.957 2.77 0.0 0 0.00 0.00 0.00 0.00
06/20/18 1:45:23 AM 82 0.0 3.0 48 81 78.3 61.3 29.955 2.77 0.0 0 0.00 0.00 0.00 0.00
06/20/18 1:46:32 AM 82 0.0 3.0 48 81 78.3 61.3 29.956 2.77 0.0 0 0.00 0.00 0.00 0.00
06/20/18 1:47:25 AM 82 0.0 3.0 48 81 78.3 61.3 29.957 2.77 0.0 0 0.00 0.00 0.00 0.00
06/20/18 1:48:37 AM 82 0.0 3.0 48 81 78.3 61.3 29.957 2.77 0.0 0 0.00 0.00 0.00 0.00
06/20/18 1:49:27 AM 82 0.0 3.0 48 81 78.3 61.3 29.952 2.77 0.0 0 0.00 0.00 0.00 0.00
06/20/18 1:50:20 AM 82 0.0 3.0 48 81 78.3 61.2 29.954 2.77 0.0 0 0.00 0.00 0.00 0.00
06/20/18 1:51:32 AM 82 0.0 3.0 48 81 78.3 61.2 29.955 2.77 0.0 0 0.00 0.00 0.00 0.00
06/20/18 1:52:25 AM 82 0.0 3.0 48 81 78.3 61.2 29.954 2.77 0.0 0 0.00 0.00 0.00 0.00
06/20/18 1:53:33 AM 82 0.0 3.0 48 81 78.3 61.2 29.955 2.77 0.0 0 0.00 0.00 0.00 0.00
06/20/18 1:54:27 AM 82 0.0 3.0 48 81 78.3 61.2 29.955 2.77 0.0 0 0.00 0.00 0.00 0.00
06/20/18 1:55:17 AM 82 0.0 3.0 48 81 78.3 61.2 29.953 2.77 0.0 0 0.00 0.00 0.00 0.00
06/20/18 1:56:31 AM 82 0.0 3.0 48 81 78.3 61.2 29.954 2.77 0.0 0 0.00 0.00 0.00 0.00
06/20/18 1:57:25 AM 82 0.0 3.0 48 81 78.3 61.2 29.951 2.77 0.0 0 0.00 0.00 0.00 0.00
06/20/18 1:58:33 AM 82 0.0 3.0 48 82 78.3 61.2 29.950 2.77 0.0 0 0.00 0.00 0.00 0.00
06/20/18 1:59:23 AM 82 0.0 3.0 48 81 78.2 61.2 29.950 2.77 0.0 0 0.00 0.00 0.00 0.00
06/20/18 2:00:35 AM 82 0.0 3.0 48 82 78.3 61.2 29.951 2.77 0.0 0 0.00 0.00 0.00 0.00
06/20/18 2:01:28 AM 82 0.0 3.0 48 82 78.3 61.2 29.950 2.77 0.0 0 0.00 0.00 0.00 0.00
06/20/18 2:02:22 AM 82 0.0 3.0 48 82 78.2 61.3 29.951 2.77 0.0 0 0.00 0.00 0.00 0.00
06/20/18 2:03:33 AM 82 0.0 3.0 48 82 78.2 61.2 29.948 2.77 0.0 0 0.00 0.00 0.00 0.00
06/20/18 2:04:20 AM 82 0.0 3.0 48 82 78.2 61.2 29.947 2.77 0.0 0 0.00 0.00 0.00 0.00
06/20/18 2:05:35 AM 82 0.0 3.0 48 82 78.2 61.2 29.949 2.77 0.0 0 0.00 0.00 0.00 0.00
06/20/18 2:06:25 AM 82 0.0 3.0 48 82 78.2 61.2 29.946 2.77 0.0 0 0.00 0.00 0.00 0.00
06/20/18 2:07:19 AM 82 0.0 3.0 48 82 78.2 61.2 29.945 2.77 0.0 0 0.00 0.00 0.00 0.00
06/20/18 2:08:33 AM 82 0.0 3.0 48 82 78.2 61.2 29.944 2.77 0.0 0 0.00 0.00 0.00 0.00
06/20/18 2:09:21 AM 82 0.0 3.0 48 82 78.2 61.2 29.945 2.77 0.0 0 0.00 0.00 0.00 0.00
06/20/18 2:10:32 AM 82 0.0 3.0 48 82 78.2 61.2 29.946 2.77 0.0 0 0.00 0.00 0.00 0.00
06/20/18 2:11:26 AM 82 0.0 3.0 48 82 78.2 61.2 29.945 2.77 0.0 0 0.00 0.00 0.00 0.00
06/20/18 2:12:34 AM 82 0.0 3.0 48 82 78.2 61.1 29.946 2.77 0.0 0 0.00 0.00 0.00 0.00
06/20/18 2:13:28 AM 82 0.0 3.0 48 82 78.2 61.1 29.945 2.77 0.0 0 0.00 0.00 0.00 0.00
06/20/18 2:14:21 AM 82 0.0 3.0 48 82 78.2 61.0 29.947 2.77 0.0 0 0.00 0.00 0.00 0.00
06/20/18 2:15:29 AM 82 0.0 3.0 48 82 78.2 60.9 29.947 2.77 0.0 0 0.00 0.00 0.00 0.00
06/20/18 2:16:23 AM 82 0.0 3.0 48 82 78.1 60.9 29.947 2.77 0.0 0 0.00 0.00 0.00 0.00
06/20/18 2:17:34 AM 82 0.0 3.0 48 83 78.2 60.8 29.947 2.77 0.0 0 0.00 0.00 0.00 0.00
06/20/18 2:18:28 AM 82 0.0 3.0 48 83 78.2 60.8 29.946 2.77 0.0 0 0.00 0.00 0.00 0.00
06/20/18 2:19:21 AM 82 0.0 3.0 48 83 78.2 60.7 29.948 2.77 0.0 0 0.00 0.00 0.00 0.00
06/20/18 2:20:29 AM 82 0.0 3.0 48 82 78.2 60.6 29.948 2.77 0.0 0 0.00 0.00 0.00 0.00
06/20/18 2:21:20 AM 82 0.0 3.0 48 82 78.2 60.5 29.947 2.77 0.0 0 0.00 0.00 0.00 0.00
06/20/18 2:22:34 AM 82 0.0 3.0 48 82 78.2 60.5 29.945 2.77 0.0 0 0.00 0.00 0.00 0.00
06/20/18 2:23:24 AM 82 0.0 3.0 48 82 78.1 60.5 29.944 2.77 0.0 0 0.00 0.00 0.00 0.00
06/20/18 2:24:18 AM 82 0.0 3.0 48 82 78.1 60.5 29.945 2.77 0.0 0 0.00 0.00 0.00 0.00
06/20/18 2:25:26 AM 82 0.0 3.0 48 82 78.1 60.5 29.945 2.77 0.0 0 0.00 0.00 0.00 0.00
06/20/18 2:26:17 AM 82 0.0 3.0 48 82 78.1 60.5 29.945 2.77 0.0 0 0.00 0.00 0.00 0.00
06/20/18 2:27:31 AM 82 0.0 3.0 48 82 78.1 60.5 29.944 2.77 0.0 0 0.00 0.00 0.00 0.00
06/20/18 2:28:24 AM 82 0.0 3.0 48 82 78.1 60.4 29.945 2.77 0.0 0 0.00 0.00 0.00 0.00
06/20/18 2:29:36 AM 82 0.0 3.0 48 82 78.1 60.4 29.944 2.77 0.0 0 0.00 0.00 0.00 0.00
06/20/18 2:30:26 AM 82 0.0 3.0 48 82 78.1 60.4 29.945 2.77 0.0 0 0.00 0.00 0.00 0.00
06/20/18 2:31:35 AM 82 0.0 3.0 48 82 78.1 60.4 29.943 2.77 0.0 0 0.00 0.00 0.00 0.00
06/20/18 2:32:28 AM 82 0.0 3.0 48 82 78.1 60.4 29.944 2.77 0.0 0 0.00 0.00 0.00 0.00
06/20/18 2:33:19 AM 82 0.0 3.0 48 82 78.1 60.4 29.944 2.77 0.0 0 0.00 0.00 0.00 0.00
06/20/18 2:34:33 AM 82 0.0 3.0 48 82 78.1 60.4 29.944 2.77 0.0 0 0.00 0.00 0.00 0.00
06/20/18 2:35:27 AM 82 0.0 3.0 48 82 78.1 60.4 29.941 2.77 0.0 0 0.00 0.00 0.00 0.00
06/20/18 2:36:35 AM 82 0.0 3.0 48 82 78.1 60.4 29.942 2.77 0.0 0 0.00 0.00 0.00 0.00
06/20/18 2:37:28 AM 82 0.0 3.0 48 82 78.1 60.4 29.941 2.77 0.0 0 0.00 0.00 0.00 0.00
06/20/18 2:38:22 AM 82 0.0 3.0 48 82 78.1 60.4 29.941 2.77 0.0 0 0.00 0.00 0.00 0.00
06/20/18 2:39:33 AM 82 0.0 3.0 48 83 78.0 60.4 29.940 2.77 0.0 0 0.00 0.00 0.00 0.00
06/20/18 2:40:27 AM 82 0.0 3.0 48 83 78.0 60.4 29.941 2.77 0.0 0 0.00 0.00 0.00 0.00
06/20/18 2:41:20 AM 82 0.0 3.0 48 83 78.0 60.4 29.940 2.77 0.0 0 0.00 0.00 0.00 0.00
06/20/18 2:42:29 AM 82 0.0 3.0 48 83 78.0 60.4 29.940 2.77 0.0 0 0.00 0.00 0.00 0.00
06/20/18 2:43:19 AM 82 0.0 3.0 48 83 78.0 60.4 29.939 2.77 0.0 0 0.00 0.00 0.00 0.00
06/20/18 2:44:34 AM 82 0.0 3.0 48 83 78.0 60.4 29.937 2.77 0.0 0 0.00 0.00 0.00 0.00
06/20/18 2:45:24 AM 82 0.0 3.0 48 83 78.0 60.4 29.937 2.77 0.0 0 0.00 0.00 0.00 0.00
06/20/18 2:46:18 AM 82 0.0 3.0 48 83 78.0 60.5 29.936 2.77 0.0 0 0.00 0.00 0.00 0.00
06/20/18 2:47:26 AM 82 0.0 3.0 48 83 78.0 60.5 29.936 2.77 0.0 0 0.00 0.00 0.00 0.00
06/20/18 2:48:17 AM 82 0.0 3.0 48 82 78.0 60.4 29.934 2.77 0.0 0 0.00 0.00 0.00 0.00
06/20/18 2:49:31 AM 82 0.0 3.0 48 83 78.0 60.4 29.933 2.77 0.0 0 0.00 0.00 0.00 0.00
06/20/18 2:50:22 AM 82 0.0 3.0 48 83 78.0 60.4 29.936 2.77 0.0 0 0.00 0.00 0.00 0.00
06/20/18 2:51:18 AM 82 0.0 3.0 48 83 78.0 60.4 29.933 2.77 0.0 0 0.00 0.00 0.00 0.00
06/20/18 2:52:24 AM 82 0.0 3.0 48 83 78.0 60.3 29.933 2.77 0.0 0 0.00 0.00 0.00 0.00
06/20/18 2:53:35 AM 82 0.0 3.0 48 83 78.0 60.3 29.931 2.77 0.0 0 0.00 0.00 0.00 0.00
06/20/18 2:54:28 AM 82 0.0 3.0 48 83 78.0 60.3 29.930 2.77 0.0 0 0.00 0.00 0.00 0.00
06/20/18 2:55:22 AM 82 0.0 3.0 48 83 78.0 60.3 29.929 2.77 0.0 0 0.00 0.00 0.00 0.00
06/20/18 2:56:33 AM 82 0.0 3.0 48 83 78.0 60.3 29.931 2.77 0.0 0 0.00 0.00 0.00 0.00
06/20/18 2:57:27 AM 82 0.0 3.0 48 83 78.0 60.2 29.929 2.77 0.0 0 0.00 0.00 0.00 0.00
06/20/18 2:58:35 AM 82 0.0 3.0 48 83 78.0 60.2 29.929 2.77 0.0 0 0.00 0.00 0.00 0.00
06/20/18 2:59:26 AM 82 0.0 3.0 48 83 78.0 60.2 29.930 2.77 0.0 0 0.00 0.00 0.00 0.00
06/20/18 3:00:19 AM 82 0.0 3.0 48 83 77.9 60.2 29.930 2.77 0.0 0 0.00 0.00 0.00 0.00
06/20/18 3:01:31 AM 82 0.0 3.0 48 83 78.0 60.2 29.929 2.77 0.0 0 0.00 0.00 0.00 0.00
06/20/18 3:02:25 AM 82 2.0 3.0 48 83 77.9 60.2 29.931 2.77 0.0 0 0.00 0.00 0.00 0.00
06/20/18 3:03:33 AM 82 2.0 3.0 48 83 78.0 60.2 29.931 2.77 0.0 0 0.00 0.00 0.00 0.00
06/20/18 3:04:27 AM 82 3.0 3.0 48 83 78.0 60.2 29.931 2.77 0.0 0 0.00 0.00 0.00 0.00
06/20/18 3:05:17 AM 26 2.0 3.0 48 83 78.0 60.2 29.930 2.77 0.0 0 0.00 0.00 0.00 0.00
06/20/18 3:06:32 AM 26 2.0 3.0 48 83 77.9 60.2 29.931 2.77 0.0 0 0.00 0.00 0.00 0.00
06/20/18 3:07:25 AM 26 1.0 3.0 48 83 78.0 60.2 29.931 2.77 0.0 0 0.00 0.00 0.00 0.00
06/20/18 3:08:16 AM 26 2.0 3.0 48 83 77.9 60.2 29.934 2.77 0.0 0 0.00 0.00 0.00 0.00
06/20/18 3:09:24 AM 26 2.0 3.0 48 83 77.9 60.2 29.933 2.77 0.0 0 0.00 0.00 0.00 0.00
06/20/18 3:10:18 AM 26 2.0 3.0 48 83 77.9 60.2 29.935 2.77 0.0 0 0.00 0.00 0.00 0.00
06/20/18 3:11:32 AM 26 2.0 3.0 48 83 77.9 60.2 29.932 2.77 0.0 0 0.00 0.00 0.00 0.00
06/20/18 3:12:23 AM 26 2.0 3.0 48 83 77.9 60.3 29.933 2.77 0.0 0 0.00 0.00 0.00 0.00
06/20/18 3:13:37 AM 20 3.0 4.0 48 83 77.9 60.3 29.931 2.77 0.0 0 0.00 0.00 0.00 0.00
06/20/18 3:14:25 AM 19 3.0 4.0 48 83 77.9 60.3 29.930 2.77 0.0 0 0.00 0.00 0.00 0.00
06/20/18 3:15:15 AM 19 2.0 4.0 48 83 77.9 60.3 29.931 2.77 0.0 0 0.00 0.00 0.00 0.00
06/20/18 3:16:30 AM 19 2.0 4.0 48 83 77.8 60.3 29.930 2.77 0.0 0 0.00 0.00 0.00 0.00
06/20/18 3:17:23 AM 19 1.0 4.0 48 82 77.8 60.3 29.929 2.77 0.0 0 0.00 0.00 0.00 0.00
06/20/18 3:18:35 AM 19 2.0 4.0 48 82 77.9 60.2 29.931 2.77 0.0 0 0.00 0.00 0.00 0.00
06/20/18 3:19:26 AM 19 1.0 4.0 48 82 77.8 60.0 29.931 2.77 0.0 0 0.00 0.00 0.00 0.00
06/20/18 3:20:16 AM 19 2.0 4.0 48 82 77.9 59.9 29.932 2.77 0.0 0 0.00 0.00 0.00 0.00
06/20/18 3:21:31 AM 19 1.0 4.0 48 82 77.9 59.8 29.931 2.77 0.0 0 0.00 0.00 0.00 0.00
06/20/18 3:22:24 AM 19 1.0 4.0 48 83 77.8 59.7 29.932 2.77 0.0 0 0.00 0.00 0.00 0.00
06/20/18 3:23:36 AM 13 1.0 4.0 48 83 77.8 59.7 29.930 2.77 0.0 0 0.00 0.00 0.00 0.00
06/20/18 3:24:29 AM 13 1.0 4.0 48 84 77.8 59.7 29.930 2.77 0.0 0 0.00 0.00 0.00 0.00
06/20/18 3:25:16 AM 13 0.0 4.0 48 84 77.8 59.7 29.930 2.77 0.0 0 0.00 0.00 0.00 0.00
06/20/18 3:26:28 AM 15 0.0 4.0 48 83 77.8 59.7 29.929 2.77 0.0 0 0.00 0.00 0.00 0.00
06/20/18 3:27:22 AM 15 0.0 4.0 48 83 77.9 59.7 29.927 2.77 0.0 0 0.00 0.00 0.00 0.00
06/20/18 3:28:33 AM 15 0.0 4.0 48 83 77.8 59.7 29.928 2.77 0.0 0 0.00 0.00 0.00 0.00
06/20/18 3:29:27 AM 15 1.0 4.0 48 83 77.8 59.7 29.929 2.77 0.0 0 0.00 0.00 0.00 0.00
06/20/18 3:30:35 AM 15 0.0 4.0 48 83 77.8 59.7 29.928 2.77 0.0 0 0.00 0.00 0.00 0.00
06/20/18 3:31:29 AM 15 0.0 4.0 48 84 77.8 59.7 29.925 2.77 0.0 0 0.00 0.00 0.00 0.00
06/20/18 3:32:19 AM 15 0.0 4.0 48 83 77.8 59.7 29.928 2.77 0.0 0 0.00 0.00 0.00 0.00
06/20/18 3:33:31 AM 15 0.0 4.0 48 83 77.8 59.6 29.928 2.77 0.0 0 0.00 0.00 0.00 0.00
06/20/18 3:34:28 AM 15 1.0 4.0 48 83 77.8 59.5 29.927 2.77 0.0 0 0.00 0.00 0.00 0.00
06/20/18 3:35:18 AM 15 1.0 4.0 48 83 77.8 59.4 29.926 2.77 0.0 0 0.00 0.00 0.00 0.00
06/20/18 3:36:27 AM 15 0.0 4.0 48 83 77.8 59.3 29.925 2.77 0.0 0 0.00 0.00 0.00 0.00
06/20/18 3:37:20 AM 15 0.0 4.0 48 84 77.8 59.3 29.927 2.77 0.0 0 0.00 0.00 0.00 0.00
06/20/18 3:38:32 AM 15 0.0 4.0 48 84 77.8 59.3 29.925 2.77 0.0 0 0.00 0.00 0.00 0.00
06/20/18 3:39:26 AM 15 0.0 4.0 48 84 77.8 59.3 29.922 2.77 0.0 0 0.00 0.00 0.00 0.00
06/20/18 3:40:16 AM 15 0.0 4.0 48 84 77.8 59.3 29.926 2.77 0.0 0 0.00 0.00 0.00 0.00
06/20/18 3:41:25 AM 15 0.0 4.0 48 84 77.8 59.2 29.927 2.77 0.0 0 0.00 0.00 0.00 0.00
06/20/18 3:42:18 AM 15 0.0 4.0 48 84 77.8 59.1 29.925 2.77 0.0 0 0.00 0.00 0.00 0.00
06/20/18 3:43:30 AM 15 0.0 4.0 48 84 77.8 59.1 29.925 2.77 0.0 0 0.00 0.00 0.00 0.00
06/20/18 3:44:23 AM 15 0.0 4.0 48 85 77.8 59.1 29.922 2.77 0.0 0 0.00 0.00 0.00 0.00
06/20/18 3:45:35 AM 15 0.0 4.0 48 85 77.8 59.1 29.923 2.77 0.0 0 0.00 0.00 0.00 0.00
06/20/18 3:46:26 AM 15 0.0 4.0 48 85 77.7 59.1 29.922 2.77 0.0 0 0.00 0.00 0.00 0.00
06/20/18 3:47:19 AM 15 0.0 4.0 48 85 77.8 59.1 29.922 2.77 0.0 0 0.00 0.00 0.00 0.00
06/20/18 3:48:31 AM 15 0.0 4.0 48 85 77.7 59.1 29.924 2.77 0.0 0 0.00 0.00 0.00 0.00
06/20/18 3:49:21 AM 15 0.0 4.0 48 85 77.7 59.1 29.922 2.77 0.0 0 0.00 0.00 0.00 0.00
06/20/18 3:50:36 AM 15 0.0 4.0 48 85 77.8 59.1 29.923 2.77 0.0 0 0.00 0.00 0.00 0.00
06/20/18 3:51:26 AM 15 0.0 4.0 48 85 77.8 59.1 29.921 2.77 0.0 0 0.00 0.00 0.00 0.00
06/20/18 3:52:35 AM 15 0.0 4.0 48 85 77.7 59.2 29.923 2.77 0.0 0 0.00 0.00 0.00 0.00
06/20/18 3:53:28 AM 15 0.0 4.0 48 84 77.7 59.1 29.922 2.77 0.0 0 0.00 0.00 0.00 0.00
06/20/18 3:54:19 AM 15 0.0 4.0 48 84 77.7 59.0 29.921 2.77 0.0 0 0.00 0.00 0.00 0.00
06/20/18 3:55:33 AM 15 0.0 4.0 48 84 77.7 58.9 29.919 2.77 0.0 0 0.00 0.00 0.00 0.00
06/20/18 3:56:24 AM 15 0.0 4.0 48 84 77.7 58.9 29.919 2.77 0.0 0 0.00 0.00 0.00 0.00
06/20/18 3:57:32 AM 15 0.0 4.0 48 84 77.7 58.8 29.917 2.77 0.0 0 0.00 0.00 0.00 0.00
06/20/18 3:58:25 AM 15 0.0 4.0 48 84 77.7 58.7 29.919 2.77 0.0 0 0.00 0.00 0.00 0.00
06/20/18 3:59:16 AM 15 2.0 4.0 48 85 77.7 58.7 29.919 2.77 0.0 0 0.00 0.00 0.00 0.00
06/20/18 4:00:31 AM 15 2.0 4.0 48 85 77.7 58.8 29.922 2.77 0.0 0 0.00 0.00 0.00 0.00
06/20/18 4:01:24 AM 15 2.0 4.0 48 85 77.6 58.7 29.919 2.77 0.0 0 0.00 0.00 0.00 0.00
06/20/18 4:02:33 AM 15 0.0 4.0 48 84 77.7 58.7 29.917 2.77 0.0 0 0.00 0.00 0.00 0.00
06/20/18 4:03:23 AM 15 0.0 4.0 48 84 77.7 58.7 29.915 2.77 0.0 0 0.00 0.00 0.00 0.00
06/20/18 4:04:17 AM 15 0.0 4.0 48 84 77.6 58.7 29.916 2.77 0.0 0 0.00 0.00 0.00 0.00
06/20/18 4:05:29 AM 15 2.0 4.0 48 83 77.6 58.8 29.918 2.77 0.0 0 0.00 0.00 0.00 0.00
06/20/18 4:06:19 AM 15 2.0 4.0 48 83 77.6 58.7 29.917 2.77 0.0 0 0.00 0.00 0.00 0.00
06/20/18 4:07:34 AM 15 2.0 4.0 48 84 77.6 58.7 29.922 2.77 0.0 0 0.00 0.00 0.00 0.00
06/20/18 4:08:24 AM 15 1.0 4.0 48 84 77.6 58.7 29.918 2.77 0.0 0 0.00 0.00 0.00 0.00
06/20/18 4:09:36 AM 15 1.0 4.0 48 84 77.6 58.8 29.916 2.77 0.0 0 0.00 0.00 0.00 0.00
06/20/18 4:10:29 AM 15 1.0 4.0 48 84 77.6 58.9 29.917 2.77 0.0 0 0.00 0.00 0.00 0.00
06/20/18 4:11:20 AM 15 1.0 4.0 48 83 77.6 58.9 29.917 2.77 0.0 0 0.00 0.00 0.00 0.00
06/20/18 4:12:32 AM 15 1.0 4.0 48 83 77.6 58.9 29.917 2.77 0.0 0 0.00 0.00 0.00 0.00
06/20/18 4:13:22 AM 15 0.0 4.0 48 83 77.6 58.9 29.916 2.77 0.0 0 0.00 0.00 0.00 0.00
06/20/18 4:14:34 AM 15 0.0 4.0 48 83 77.5 59.0 29.918 2.77 0.0 0 0.00 0.00 0.00 0.00
06/20/18 4:15:27 AM 15 0.0 4.0 48 83 77.6 59.0 29.916 2.77 0.0 0 0.00 0.00 0.00 0.00
06/20/18 4:16:21 AM 15 0.0 4.0 48 83 77.6 59.1 29.916 2.77 0.0 0 0.00 0.00 0.00 0.00
06/20/18 4:17:32 AM 15 0.0 4.0 48 83 77.6 59.1 29.917 2.77 0.0 0 0.00 0.00 0.00 0.00
06/20/18 4:18:26 AM 15 0.0 4.0 48 83 77.6 59.1 29.917 2.77 0.0 0 0.00 0.00 0.00 0.00
06/20/18 4:19:31 AM 15 0.0 4.0 48 82 77.6 59.0 29.917 2.77 0.0 0 0.00 0.00 0.00 0.00
06/20/18 4:20:25 AM 15 0.0 4.0 48 82 77.6 58.9 29.919 2.77 0.0 0 0.00 0.00 0.00 0.00
06/20/18 4:21:18 AM 15 0.0 4.0 48 83 77.6 58.8 29.916 2.77 0.0 0 0.00 0.00 0.00 0.00
06/20/18 4:22:30 AM 15 0.0 4.0 48 83 77.6 58.7 29.916 2.77 0.0 0 0.00 0.00 0.00 0.00
06/20/18 4:23:23 AM 15 0.0 4.0 48 84 77.5 58.8 29.919 2.77 0.0 0 0.00 0.00 0.00 0.00
06/20/18 4:24:32 AM 15 0.0 4.0 48 84 77.5 58.7 29.919 2.77 0.0 0 0.00 0.00 0.00 0.00
06/20/18 4:25:22 AM 15 0.0 4.0 48 84 77.5 58.7 29.918 2.77 0.0 0 0.00 0.00 0.00 0.00
06/20/18 4:26:37 AM 15 0.0 4.0 48 84 77.6 58.6 29.918 2.77 0.0 0 0.00 0.00 0.00 0.00
06/20/18 4:27:27 AM 15 0.0 4.0 48 84 77.5 58.5 29.920 2.77 0.0 0 0.00 0.00 0.00 0.00
06/20/18 4:28:21 AM 15 0.0 4.0 48 84 77.6 58.6 29.919 2.77 0.0 0 0.00 0.00 0.00 0.00
06/20/18 4:29:29 AM 15 0.0 4.0 48 84 77.5 58.6 29.918 2.77 0.0 0 0.00 0.00 0.00 0.00
06/20/18 4:30:23 AM 15 0.0 4.0 48 84 77.5 58.7 29.917 2.77 0.0 0 0.00 0.00 0.00 0.00
06/20/18 4:31:35 AM 15 0.0 4.0 48 83 77.5 58.6 29.916 2.77 0.0 0 0.00 0.00 0.00 0.00
06/20/18 4:32:28 AM 15 0.0 4.0 48 83 77.5 58.5 29.918 2.77 0.0 0 0.00 0.00 0.00 0.00
06/20/18 4:33:22 AM 15 0.0 4.0 48 83 77.5 58.4 29.915 2.77 0.0 0 0.00 0.00 0.00 0.00
06/20/18 4:34:37 AM 15 0.0 4.0 48 84 77.5 58.3 29.918 2.77 0.0 0 0.00 0.00 0.00 0.00
06/20/18 4:35:21 AM 15 0.0 4.0 48 84 77.5 58.3 29.919 2.77 0.0 0 0.00 0.00 0.00 0.00
06/20/18 4:36:33 AM 15 0.0 4.0 48 85 77.5 58.3 29.923 2.77 0.0 0 0.00 0.00 0.00 0.00
06/20/18 4:37:26 AM 15 0.0 4.0 48 85 77.5 58.3 29.919 2.77 0.0 0 0.00 0.00 0.00 0.00
06/20/18 4:38:17 AM 15 0.0 4.0 48 85 77.5 58.3 29.918 2.77 0.0 0 0.00 0.00 0.00 0.00
06/20/18 4:39:29 AM 15 0.0 4.0 48 85 77.5 58.4 29.919 2.77 0.0 0 0.00 0.00 0.00 0.00
06/20/18 4:40:19 AM 15 0.0 4.0 48 85 77.4 58.4 29.917 2.77 0.0 0 0.00 0.00 0.00 0.00
06/20/18 4:41:31 AM 15 0.0 4.0 48 85 77.5 58.5 29.916 2.77 0.0 0 0.00 0.00 0.00 0.00
06/20/18 4:42:25 AM 15 0.0 4.0 48 85 77.5 58.5 29.919 2.77 0.0 0 0.00 0.00 0.00 0.00
06/20/18 4:43:36 AM 15 0.0 4.0 48 85 77.5 58.5 29.921 2.77 0.0 0 0.00 0.00 0.00 0.00
06/20/18 4:44:30 AM 15 0.0 4.0 48 84 77.5 58.4 29.919 2.77 0.0 0 0.00 0.00 0.00 0.00
06/20/18 4:45:21 AM 15 0.0 4.0 48 84 77.4 58.3 29.919 2.77 0.0 0 0.00 0.00 0.00 0.00
06/20/18 4:46:29 AM 15 0.0 4.0 48 84 77.5 58.3 29.918 2.77 0.0 0 0.00 0.00 0.00 0.00
06/20/18 4:47:23 AM 15 0.0 4.0 48 84 77.4 58.2 29.919 2.77 0.0 0 0.00 0.00 0.00 0.00
06/20/18 4:48:35 AM 15 0.0 4.0 48 85 77.4 58.3 29.918 2.77 0.0 0 0.00 0.00 0.00 0.00
06/20/18 4:49:28 AM 15 0.0 4.0 48 85 77.4 58.3 29.919 2.77 0.0 0 0.00 0.00 0.00 0.00
06/20/18 4:50:19 AM 15 0.0 4.0 48 84 77.4 58.3 29.919 2.77 0.0 0 0.00 0.00 0.00 0.00
06/20/18 4:51:27 AM 15 3.0 4.0 48 84 77.4 58.3 29.921 2.77 0.0 0 0.00 0.00 0.00 0.00
06/20/18 4:52:21 AM 15 2.0 4.0 48 85 77.4 58.3 29.921 2.77 0.0 0 0.00 0.00 0.00 0.00
06/20/18 4:53:33 AM 15 1.0 4.0 48 85 77.4 58.4 29.920 2.77 0.0 0 0.00 0.00 0.00 0.00
06/20/18 4:54:26 AM 15 2.0 4.0 48 85 77.4 58.5 29.921 2.77 0.0 0 0.00 0.00 0.00 0.00
06/20/18 4:55:20 AM 15 2.0 4.0 48 85 77.4 58.6 29.922 2.77 0.0 0 0.00 0.00 0.00 0.00
06/20/18 4:56:25 AM 15 0.0 4.0 48 85 77.4 58.7 29.915 2.77 0.0 0 0.00 0.00 0.00 0.00
06/20/18 4:57:19 AM 15 0.0 4.0 48 85 77.4 58.8 29.916 2.77 0.0 0 0.00 0.00 0.00 0.00
06/20/18 4:58:31 AM 15 0.0 4.0 48 84 77.4 58.9 29.918 2.77 0.0 0 0.00 0.00 0.00 0.00
06/20/18 4:59:24 AM 15 0.0 4.0 48 83 77.4 58.8 29.918 2.77 0.0 0 0.00 0.00 0.00 0.00
06/20/18 5:00:36 AM 15 0.0 4.0 48 83 77.4 58.7 29.915 2.77 0.0 0 0.00 0.00 0.00 0.00
06/20/18 5:01:30 AM 15 0.0 4.0 48 83 77.4 58.6 29.916 2.77 0.0 0 0.00 0.00 0.00 0.00
06/20/18 5:02:17 AM 15 0.0 4.0 48 84 77.4 58.6 29.918 2.77 0.0 0 0.00 0.00 0.00 0.00
06/20/18 5:03:29 AM 15 0.0 4.0 48 83 77.4 58.4 29.920 2.77 0.0 0 0.00 0.00 0.00 0.00
06/20/18 5:04:23 AM 15 0.0 4.0 48 83 77.3 58.2 29.920 2.77 0.0 0 0.00 0.00 0.00 0.00
06/20/18 5:05:35 AM 15 2.0 4.0 48 83 77.3 58.0 29.921 2.77 0.0 0 0.00 0.00 0.00 0.00
06/20/18 5:06:28 AM 15 2.0 4.0 48 84 77.4 58.0 29.921 2.77 0.0 0 0.00 0.00 0.00 0.00
06/20/18 5:07:37 AM 15 2.0 4.0 48 85 77.4 57.9 29.923 2.77 0.0 0 0.00 0.00 0.00 0.00
06/20/18 5:08:28 AM 15 1.0 4.0 48 85 77.3 57.8 29.924 2.77 0.0 0 0.00 0.00 0.00 0.00
06/20/18 5:09:21 AM 15 2.0 4.0 48 85 77.3 57.9 29.924 2.77 0.0 0 0.00 0.00 0.00 0.00
06/20/18 5:10:35 AM 15 3.0 4.0 48 85 77.3 57.9 29.929 2.77 0.0 0 0.00 0.00 0.00 0.00
06/20/18 5:11:29 AM 15 3.0 4.0 48 86 77.4 58.0 29.928 2.77 0.0 0 0.00 0.00 0.00 0.00
06/20/18 5:12:19 AM 15 1.0 4.0 48 86 77.3 58.1 29.928 2.77 0.0 0 0.00 0.00 0.00 0.00
06/20/18 5:13:28 AM 15 2.0 4.0 48 86 77.3 58.2 29.929 2.77 0.0 0 0.00 0.00 0.00 0.00
06/20/18 5:14:19 AM 15 2.0 4.0 48 86 77.3 58.4 29.932 2.77 0.0 0 0.00 0.00 0.00 0.00
06/20/18 5:15:30 AM 15 2.0 4.0 48 85 77.3 58.5 29.929 2.77 0.0 0 0.00 0.00 0.00 0.00
06/20/18 5:16:24 AM 15 3.0 4.0 48 85 77.3 58.6 29.931 2.77 0.0 0 0.00 0.00 0.00 0.00
06/20/18 5:17:18 AM 15 3.0 4.0 48 85 77.3 58.6 29.929 2.77 0.0 0 0.00 0.00 0.00 0.00
06/20/18 5:18:26 AM 15 1.0 4.0 48 85 77.3 58.7 29.928 2.77 0.0 0 0.00 0.00 0.00 0.00
06/20/18 5:19:17 AM 15 1.0 4.0 48 85 77.2 58.7 29.927 2.77 0.0 0 0.00 0.00 0.00 0.00
06/20/18 5:20:32 AM 15 2.0 4.0 48 84 77.3 58.8 29.930 2.77 0.0 0 0.00 0.00 0.00 0.00
06/20/18 5:21:25 AM 15 2.0 4.0 48 84 77.3 58.8 29.930 2.77 0.0 0 0.00 0.00 0.00 0.00
06/20/18 5:22:16 AM 15 1.0 4.0 48 84 77.3 58.9 29.929 2.77 0.0 0 0.00 0.00 0.00 0.00
06/20/18 5:23:24 AM 15 2.0 4.0 48 84 77.3 58.8 29.929 2.77 0.0 0 0.00 0.00 0.00 0.00
06/20/18 5:24:18 AM 15 1.0 4.0 48 83 77.2 58.9 29.931 2.77 0.0 0 0.00 0.00 0.00 0.00
06/20/18 5:25:29 AM 15 1.0 4.0 48 83 77.2 58.8 29.927 2.77 0.0 0 0.00 0.00 0.00 0.00
06/20/18 5:26:23 AM 15 0.0 4.0 48 83 77.3 58.7 29.930 2.77 0.0 0 0.00 0.00 0.00 0.00
06/20/18 5:27:35 AM 15 0.0 4.0 48 83 77.3 58.6 29.930 2.77 0.0 0 0.00 0.00 0.00 0.00
06/20/18 5:28:29 AM 15 2.0 4.0 48 83 77.3 58.5 29.930 2.77 0.0 0 0.00 0.00 0.00 0.00
06/20/18 5:29:16 AM 15 2.0 4.0 48 84 77.2 58.4 29.931 2.77 0.0 0 0.00 0.00 0.00 0.00
06/20/18 5:30:28 AM 15 2.0 4.0 48 84 77.2 58.3 29.931 2.77 0.0 0 0.00 0.00 0.00 0.00
06/20/18 5:31:22 AM 15 1.0 4.0 48 84 77.2 58.3 29.931 2.77 0.0 0 0.00 0.00 0.00 0.00
06/20/18 5:32:34 AM 15 1.0 4.0 48 84 77.2 58.3 29.929 2.77 0.0 0 0.00 0.00 0.00 0.00
06/20/18 5:33:28 AM 15 1.0 4.0 48 84 77.2 58.3 29.930 2.77 0.0 0 0.00 0.00 0.00 0.00
06/20/18 5:34:18 AM 15 2.0 4.0 48 84 77.2 58.3 29.929 2.77 0.0 0 0.00 0.00 0.00 0.00
06/20/18 5:35:30 AM 15 2.0 4.0 48 84 77.2 58.3 29.930 2.77 0.0 0 0.00 0.00 0.00 0.00
06/20/18 5:36:24 AM 15 1.0 4.0 48 84 77.2 58.3 29.930 2.77 0.0 0 0.00 0.00 0.00 0.00
06/20/18 5:37:36 AM 15 0.0 4.0 48 84 77.2 58.4 29.931 2.77 0.0 0 0.00 0.00 0.00 0.00
06/20/18 5:38:29 AM 15 1.0 4.0 48 84 77.2 58.4 29.930 2.77 0.0 0 0.00 0.00 0.00 0.00
06/20/18 5:39:20 AM 15 1.0 4.0 48 84 77.2 58.4 29.931 2.77 0.0 0 0.00 0.00 0.00 0.00
06/20/18 5:40:29 AM 15 0.0 4.0 48 84 77.2 58.4 29.933 2.77 0.0 5 0.00 0.00 0.00 0.00
06/20/18 5:41:23 AM 15 0.0 4.0 48 84 77.2 58.4 29.931 2.77 0.0 5 0.00 0.00 0.00 0.00
06/20/18 5:42:34 AM 15 0.0 4.0 48 84 77.2 58.4 29.933 2.77 0.0 5 0.00 0.00 0.00 0.00
06/20/18 5:43:28 AM 15 0.0 4.0 48 84 77.2 58.4 29.932 2.77 0.0 5 0.00 0.00 0.00 0.00
06/20/18 5:44:19 AM 15 0.0 4.0 48 84 77.2 58.3 29.933 2.77 0.0 5 0.00 0.00 0.00 0.00
06/20/18 5:45:27 AM 15 0.0 4.0 48 83 77.2 58.1 29.934 2.77 0.0 5 0.00 0.00 0.00 0.00
06/20/18 5:46:21 AM 9 0.0 4.0 48 83 77.2 58.1 29.935 2.77 0.0 7 0.00 0.00 0.00 0.00
06/20/18 5:47:33 AM 223 1.0 4.0 48 85 77.1 58.2 29.934 2.77 0.0 7 0.00 0.00 0.00 0.00
06/20/18 5:48:27 AM 223 0.0 4.0 48 85 77.1 58.2 29.932 2.77 0.0 7 0.00 0.00 0.00 0.00
06/20/18 5:49:20 AM 223 0.0 4.0 48 85 77.1 58.3 29.932 2.77 0.0 7 0.00 0.00 0.00 0.00
06/20/18 5:50:26 AM 223 0.0 4.0 48 85 77.1 58.3 29.932 2.77 0.0 7 0.00 0.00 0.00 0.00
06/20/18 5:51:20 AM 223 0.0 4.0 48 85 77.1 58.4 29.930 2.77 0.0 7 0.00 0.00 0.00 0.00
06/20/18 5:52:34 AM 223 0.0 4.0 48 84 77.1 58.4 29.930 2.77 0.0 9 0.00 0.00 0.00 0.00
06/20/18 5:53:28 AM 223 0.0 4.0 48 84 77.1 58.4 29.932 2.77 0.0 9 0.00 0.00 0.00 0.00
06/20/18 5:54:19 AM 223 0.0 4.0 48 84 77.1 58.4 29.932 2.77 0.0 9 0.00 0.00 0.00 0.00
06/20/18 5:55:31 AM 191 1.0 4.0 48 84 77.1 58.4 29.930 2.77 0.0 9 0.00 0.00 0.00 0.00
06/20/18 5:56:21 AM 191 1.0 4.0 48 84 77.1 58.4 29.933 2.77 0.0 11 0.00 0.00 0.00 0.00
06/20/18 5:57:33 AM 215 0.0 4.0 48 84 77.1 58.3 29.932 2.77 0.0 11 0.00 0.00 0.00 0.00
06/20/18 5:58:26 AM 215 0.0 4.0 48 85 77.1 58.4 29.934 2.77 0.0 11 0.00 0.00 0.00 0.00
06/20/18 5:59:17 AM 211 1.0 4.0 48 85 77.1 58.4 29.933 2.77 0.0 11 0.00 0.00 0.00 0.00
06/20/18 6:00:32 AM 128 0.0 4.0 48 84 77.1 58.3 29.933 2.77 0.0 11 0.00 0.00 0.00 0.00
06/20/18 6:01:20 AM 128 0.0 4.0 48 84 77.0 58.2 29.935 2.77 0.0 12 0.00 0.00 0.00 0.00
06/20/18 6:02:32 AM 128 1.0 4.0 48 85 77.1 58.2 29.936 2.77 0.0 12 0.00 0.00 0.00 0.00
06/20/18 6:03:28 AM 129 0.0 4.0 48 85 77.1 58.2 29.935 2.77 0.0 12 0.00 0.00 0.00 0.00
06/20/18 6:04:19 AM 129 1.0 4.0 48 85 77.1 58.3 29.935 2.77 0.0 12 0.00 0.00 0.00 0.00
06/20/18 6:05:31 AM 128 0.0 4.0 48 84 77.1 58.2 29.935 2.77 0.0 14 0.00 0.00 0.00 0.00
06/20/18 6:06:25 AM 129 1.0 4.0 48 84 77.1 58.2 29.934 2.77 0.0 14 0.00 0.00 0.00 0.00
06/20/18 6:07:34 AM 129 1.0 4.0 48 84 77.0 58.2 29.937 2.77 0.0 14 0.00 0.00 0.00 0.00
06/20/18 6:08:24 AM 129 0.0 4.0 48 85 77.1 58.2 29.933 2.77 0.0 14 0.00 0.00 0.00 0.00
06/20/18 6:09:18 AM 129 1.0 4.0 48 85 77.1 58.2 29.936 2.77 0.0 16 0.00 0.00 0.00 0.00
06/20/18 6:10:33 AM 129 1.0 4.0 48 85 77.0 58.2 29.934 2.77 0.0 16 0.00 0.00 0.00 0.00
06/20/18 6:11:27 AM 129 1.0 4.0 48 85 77.0 58.3 29.933 2.77 0.0 16 0.00 0.00 0.00 0.00
06/20/18 6:12:32 AM 129 1.0 4.0 48 85 77.1 58.3 29.932 2.77 0.0 18 0.00 0.00 0.00 0.00
06/20/18 6:13:26 AM 129 0.0 4.0 48 84 77.0 58.4 29.933 2.77 0.0 18 0.00 0.00 0.00 0.00
06/20/18 6:14:20 AM 129 0.0 4.0 48 84 77.0 58.4 29.934 2.77 0.0 18 0.00 0.00 0.00 0.00
06/20/18 6:15:32 AM 129 0.0 4.0 48 84 77.0 58.4 29.932 2.77 0.0 19 0.00 0.00 0.00 0.00
06/20/18 6:16:25 AM 129 0.0 4.0 48 84 77.0 58.4 29.935 2.77 0.0 19 0.00 0.00 0.00 0.00
06/20/18 6:17:16 AM 129 0.0 4.0 48 84 77.0 58.4 29.933 2.77 0.0 19 0.00 0.00 0.00 0.00
06/20/18 6:18:25 AM 129 0.0 4.0 48 84 77.0 58.5 29.935 2.77 0.0 21 0.00 0.00 0.00 0.00
06/20/18 6:19:19 AM 129 0.0 4.0 48 84 77.1 58.6 29.933 2.77 0.0 21 0.00 0.00 0.00 0.00
06/20/18 6:20:30 AM 129 0.0 4.0 48 84 77.0 58.7 29.934 2.77 0.0 23 0.00 0.00 0.00 0.00
06/20/18 6:21:24 AM 129 0.0 4.0 48 84 77.0 58.8 29.935 2.77 0.0 33 0.00 0.00 0.00 0.00
06/20/18 6:22:36 AM 129 0.0 4.0 48 83 77.0 58.9 29.935 2.77 0.0 53 0.00 0.00 0.00 0.00
06/20/18 6:23:27 AM 129 0.0 4.0 48 83 77.0 58.9 29.936 2.77 0.0 53 0.00 0.00 0.00 0.00
06/20/18 6:24:17 AM 127 0.0 4.0 48 83 77.0 58.9 29.935 2.77 0.0 54 0.00 0.00 0.00 0.00
06/20/18 6:25:32 AM 127 0.0 4.0 48 83 77.0 58.9 29.933 2.77 0.0 60 0.00 0.00 0.00 0.00
06/20/18 6:26:23 AM 129 0.0 4.0 48 83 77.0 58.9 29.938 2.77 0.0 60 0.00 0.00 0.00 0.00
06/20/18 6:27:17 AM 129 0.0 4.0 48 83 77.0 59.0 29.938 2.77 0.0 63 0.00 0.00 0.00 0.00
06/20/18 6:28:26 AM 129 0.0 4.0 48 83 77.0 59.1 29.936 2.77 0.0 65 0.00 0.00 0.00 0.00
06/20/18 6:29:16 AM 129 0.0 4.0 48 83 77.0 59.2 29.937 2.77 0.0 67 0.00 0.00 0.00 0.00
06/20/18 6:30:31 AM 129 0.0 4.0 48 83 77.0 59.2 29.939 2.77 0.0 69 0.00 0.00 0.00 0.00
06/20/18 6:31:22 AM 129 0.0 4.0 48 82 77.0 59.1 29.940 2.77 0.0 70 0.00 0.00 0.00 0.00
06/20/18 6:32:34 AM 129 0.0 4.0 48 83 76.9 59.1 29.938 2.77 0.0 74 0.00 0.00 0.00 0.00
06/20/18 6:33:28 AM 129 0.0 4.0 48 83 77.0 59.1 29.937 2.77 0.0 76 0.00 0.00 0.00 0.00
06/20/18 6:34:16 AM 129 0.0 4.0 48 83 76.9 59.2 29.938 2.77 0.0 77 0.00 0.00 0.00 0.00
06/20/18 6:35:28 AM 129 0.0 4.0 48 83 77.0 59.4 29.937 2.77 0.0 79 0.00 0.00 0.00 0.00
06/20/18 6:36:22 AM 129 0.0 4.0 48 83 77.0 59.6 29.938 2.77 0.0 81 0.00 0.00 0.00 0.00
06/20/18 6:37:34 AM 129 0.0 4.0 48 82 76.9 59.7 29.938 2.77 0.0 86 0.00 0.00 0.00 0.00
06/20/18 6:38:28 AM 129 0.0 4.0 48 82 76.9 59.8 29.939 2.77 0.0 86 0.00 0.00 0.00 0.00
06/20/18 6:39:36 AM 129 0.0 4.0 48 82 77.0 59.9 29.937 2.77 0.0 90 0.00 0.00 0.00 0.00
06/20/18 6:40:30 AM 129 0.0 4.0 48 82 76.9 59.9 29.938 2.77 0.0 93 0.00 0.00 0.00 0.00
06/20/18 6:41:21 AM 129 0.0 4.0 48 81 77.0 60.0 29.940 2.77 0.0 95 0.00 0.00 0.00 0.00
06/20/18 6:42:33 AM 129 0.0 4.0 48 81 76.9 60.1 29.938 2.77 0.0 98 0.00 0.00 0.00 0.00
06/20/18 6:43:27 AM 129 0.0 4.0 48 82 76.9 60.1 29.941 2.77 0.0 100 0.00 0.00 0.00 0.00
06/20/18 6:44:17 AM 129 0.0 4.0 48 82 76.9 60.1 29.939 2.77 0.0 104 0.00 0.00 0.00 0.00
06/20/18 6:45:26 AM 129 0.0 4.0 48 81 76.9 60.2 29.939 2.77 0.0 105 0.00 0.00 0.00 0.00
06/20/18 6:46:17 AM 129 0.0 4.0 48 81 76.9 60.3 29.938 2.77 0.0 109 0.00 0.00 0.00 0.00
06/20/18 6:47:32 AM 129 0.0 4.0 48 82 76.9 60.5 29.938 2.77 0.0 113 0.00 0.00 0.00 0.00
06/20/18 6:48:26 AM 129 0.0 4.0 48 82 76.9 60.7 29.941 2.77 0.0 113 0.00 0.00 0.00 0.00
06/20/18 6:49:16 AM 129 0.0 4.0 48 82 76.9 61.0 29.941 2.77 0.0 118 0.00 0.00 0.00 0.00
06/20/18 6:50:25 AM 129 0.0 4.0 48 80 76.8 61.2 29.940 2.77 0.0 121 0.00 0.00 0.00 0.00
06/20/18 6:51:16 AM 129 0.0 4.0 48 80 76.9 61.3 29.941 2.77 0.0 125 0.00 0.00 0.00 0.00
06/20/18 6:52:28 AM 129 0.0 4.0 48 79 76.9 61.5 29.942 2.77 0.0 128 0.00 0.00 0.00 0.00
06/20/18 6:53:22 AM 129 0.0 4.0 48 78 76.8 61.5 29.939 2.77 0.0 130 0.00 0.00 0.00 0.00
06/20/18 6:54:37 AM 129 0.0 4.0 48 78 76.9 61.7 29.942 2.77 0.0 137 0.00 0.00 0.00 0.00
06/20/18 6:55:24 AM 129 0.0 4.0 48 79 76.9 61.9 29.942 2.77 0.0 141 0.00 0.00 0.00 0.00
06/20/18 6:56:15 AM 129 0.0 4.0 48 78 76.8 62.1 29.943 2.77 0.0 141 0.00 0.00 0.00 0.00
06/20/18 6:57:30 AM 129 0.0 4.0 48 78 76.9 62.4 29.942 2.77 0.0 146 0.00 0.00 0.00 0.00
06/20/18 6:58:24 AM 129 0.0 4.0 48 78 76.9 62.6 29.940 2.77 0.0 149 0.00 0.00 0.00 0.00
06/20/18 6:59:36 AM 129 0.0 4.0 48 78 76.9 62.7 29.942 2.77 0.0 153 0.00 0.00 0.00 0.00
06/20/18 7:00:26 AM 129 0.0 4.0 48 78 76.9 62.7 29.940 2.77 0.0 156 0.00 0.00 0.00 0.00
06/20/18 7:01:35 AM 129 0.0 4.0 48 77 76.8 62.7 29.940 2.77 0.0 160 0.00 0.00 0.00 0.00
06/20/18 7:02:26 AM 129 0.0 4.0 48 77 76.8 62.7 29.942 2.77 0.0 163 0.00 0.00 0.00 0.00
06/20/18 7:03:20 AM 129 0.0 4.0 48 77 76.8 62.8 29.942 2.77 0.0 163 0.00 0.00 0.00 0.00
06/20/18 7:04:32 AM 129 0.0 4.0 48 77 76.8 63.0 29.944 2.77 0.0 169 0.00 0.00 0.00 0.00
06/20/18 7:05:26 AM 129 0.0 4.0 48 77 76.9 63.1 29.943 2.77 0.0 172 0.00 0.00 0.00 0.00
06/20/18 7:06:35 AM 129 0.0 4.0 48 77 76.9 63.2 29.943 2.77 0.0 172 0.00 0.00 0.00 0.00
06/20/18 7:07:26 AM 129 0.0 4.0 48 76 76.9 63.3 29.943 2.77 0.0 172 0.00 0.00 0.00 0.00
06/20/18 7:08:20 AM 129 0.0 4.0 48 76 76.8 63.4 29.944 2.77 0.0 183 0.00 0.00 0.00 0.00
06/20/18 7:09:32 AM 129 0.0 4.0 48 76 76.8 63.6 29.944 2.77 0.0 185 0.00 0.00 0.00 0.00
06/20/18 7:10:26 AM 129 0.0 4.0 48 76 76.8 63.7 29.943 2.77 0.0 192 0.00 0.00 0.00 0.00
06/20/18 7:11:16 AM 129 0.0 4.0 48 76 76.8 63.8 29.943 2.77 0.0 192 0.00 0.00 0.00 0.00
06/20/18 7:12:25 AM 129 0.0 4.0 48 76 76.8 64.0 29.942 2.77 0.0 199 0.00 0.00 0.00 0.00
06/20/18 7:13:16 AM 129 0.0 4.0 48 75 76.8 64.1 29.943 2.77 0.0 202 0.00 0.00 0.00 0.00
06/20/18 7:14:28 AM 129 0.0 4.0 48 75 76.8 64.2 29.943 2.77 0.5 204 0.00 0.00 0.00 0.00
06/20/18 7:15:22 AM 129 0.0 4.0 48 75 76.8 64.3 29.943 2.77 0.5 207 0.00 0.00 0.00 0.00
06/20/18 7:16:37 AM 129 0.0 4.0 48 75 76.8 64.4 29.943 2.77 0.5 211 0.00 0.00 0.00 0.00
06/20/18 7:17:25 AM 129 0.0 4.0 48 75 76.8 64.5 29.944 2.77 0.5 213 0.00 0.00 0.00 0.00
06/20/18 7:18:34 AM 129 0.0 4.0 48 75 76.8 64.5 29.943 2.77 0.5 216 0.00 0.00 0.00 0.00
06/20/18 7:19:27 AM 129 0.0 4.0 48 75 76.8 64.5 29.943 2.77 0.5 218 0.00 0.00 0.00 0.00
06/20/18 7:20:21 AM 129 0.0 4.0 48 75 76.8 64.6 29.942 2.77 0.5 221 0.00 0.00 0.00 0.00
06/20/18 7:21:36 AM 129 0.0 4.0 48 74 76.8 64.7 29.942 2.77 0.5 225 0.00 0.00 0.00 0.00
06/20/18 7:22:21 AM 129 0.0 4.0 48 74 76.8 64.9 29.942 2.77 0.5 229 0.00 0.00 0.00 0.00
06/20/18 7:23:39 AM 129 0.0 4.0 48 74 76.8 65.0 29.945 2.77 0.6 234 0.00 0.00 0.00 0.00
06/20/18 7:24:29 AM 129 0.0 4.0 48 74 76.8 65.0 29.944 2.77 0.6 234 0.00 0.00 0.00 0.00
06/20/18 7:25:23 AM 129 0.0 4.0 48 74 76.8 65.2 29.945 2.77 0.6 241 0.00 0.00 0.00 0.00
06/20/18 7:26:35 AM 129 0.0 4.0 48 73 76.8 65.3 29.944 2.77 0.6 244 0.00 0.00 0.00 0.00
06/20/18 7:27:26 AM 129 0.0 4.0 48 73 76.8 65.4 29.945 2.77 0.6 246 0.00 0.00 0.00 0.00
06/20/18 7:28:38 AM 129 0.0 4.0 48 73 76.8 65.4 29.945 2.77 0.6 250 0.00 0.00 0.00 0.00
06/20/18 7:29:29 AM 129 0.0 4.0 48 73 76.8 65.5 29.946 2.77 0.6 253 0.00 0.00 0.00 0.00
06/20/18 7:30:23 AM 129 0.0 4.0 48 72 76.8 65.6 29.946 2.77 0.7 257 0.00 0.00 0.00 0.00
06/20/18 7:31:34 AM 129 0.0 4.0 48 73 76.8 65.7 29.945 2.77 0.7 257 0.00 0.00 0.00 0.00
06/20/18 7:32:29 AM 129 1.0 4.0 48 73 76.9 65.8 29.945 2.77 0.7 262 0.00 0.00 0.00 0.00
06/20/18 7:33:16 AM 129 1.0 4.0 48 72 76.8 65.8 29.944 2.77 0.7 265 0.00 0.00 0.00 0.00
06/20/18 7:34:28 AM 129 1.0 4.0 48 72 76.8 65.9 29.944 2.77 0.7 269 0.00 0.00 0.00 0.00
06/20/18 7:35:22 AM 129 1.0 4.0 48 72 76.8 66.0 29.942 2.77 0.7 272 0.00 0.00 0.00 0.00
06/20/18 7:36:34 AM 129 2.0 4.0 48 72 76.8 66.1 29.942 2.77 0.7 274 0.00 0.00 0.00 0.00
06/20/18 7:37:28 AM 129 1.0 4.0 48 72 76.8 66.3 29.945 2.77 0.8 278 0.00 0.00 0.00 0.00
06/20/18 7:38:22 AM 129 1.0 4.0 48 72 76.8 66.2 29.947 2.77 0.8 281 0.00 0.00 0.00 0.00
06/20/18 7:39:28 AM 129 1.0 4.0 48 73 76.8 66.2 29.946 2.77 0.8 288 0.00 0.00 0.00 0.00
06/20/18 7:40:22 AM 129 1.0 4.0 48 72 76.8 66.3 29.944 2.77 0.8 292 0.00 0.00 0.00 0.00
06/20/18 7:41:37 AM 129 1.0 4.0 48 71 76.8 66.3 29.947 2.77 0.8 294 0.00 0.00 0.00 0.00
06/20/18 7:42:28 AM 129 2.0 4.0 48 72 76.8 66.3 29.947 2.77 0.8 297 0.00 0.00 0.00 0.00
06/20/18 7:43:23 AM 129 1.0 4.0 48 71 76.8 66.3 29.949 2.77 0.9 299 0.00 0.00 0.00 0.00
06/20/18 7:44:32 AM 129 2.0 4.0 48 71 76.8 66.2 29.949 2.77 0.9 302 0.00 0.00 0.00 0.00
06/20/18 7:45:22 AM 129 2.0 4.0 48 73 76.8 66.1 29.947 2.77 0.9 306 0.00 0.00 0.00 0.00
06/20/18 7:46:16 AM 129 1.0 4.0 48 72 76.8 66.1 29.948 2.77 0.9 306 0.00 0.00 0.00 0.00
06/20/18 7:47:28 AM 129 1.0 4.0 48 72 76.8 66.1 29.948 2.77 0.9 313 0.00 0.00 0.00 0.00
06/20/18 7:48:22 AM 129 0.0 4.0 48 72 76.8 66.1 29.946 2.77 0.9 315 0.00 0.00 0.00 0.00
06/20/18 7:49:31 AM 129 0.0 4.0 48 72 76.8 66.1 29.950 2.77 1.0 320 0.00 0.00 0.00 0.00
06/20/18 7:50:22 AM 129 0.0 4.0 48 72 76.8 66.1 29.949 2.77 1.0 322 0.00 0.00 0.00 0.00
06/20/18 7:51:37 AM 129 0.0 4.0 48 71 76.8 66.3 29.949 2.77 1.0 325 0.00 0.00 0.00 0.00
06/20/18 7:52:28 AM 129 0.0 4.0 48 72 76.8 66.3 29.948 2.77 1.0 327 0.00 0.00 0.00 0.00
06/20/18 7:53:21 AM 129 0.0 4.0 48 71 76.8 66.4 29.948 2.77 1.0 330 0.00 0.00 0.00 0.00
06/20/18 7:54:36 AM 129 0.0 4.0 48 72 76.8 66.5 29.949 2.77 1.0 338 0.00 0.00 0.00 0.00
06/20/18 7:55:24 AM 129 0.0 4.0 48 71 76.8 66.7 29.949 2.77 1.1 339 0.00 0.00 0.00 0.00
06/20/18 7:56:15 AM 129 0.0 4.0 48 71 76.8 66.9 29.952 2.77 1.1 339 0.00 0.00 0.00 0.00
06/20/18 7:57:30 AM 129 0.0 4.0 48 71 76.8 67.2 29.950 2.77 1.1 346 0.00 0.00 0.00 0.00
06/20/18 7:58:21 AM 129 0.0 4.0 48 71 76.8 67.2 29.949 2.77 1.1 350 0.00 0.00 0.00 0.00
06/20/18 7:59:36 AM 129 0.0 4.0 48 70 76.8 67.2 29.950 2.77 1.2 352 0.00 0.00 0.00 0.00
06/20/18 8:00:24 AM 129 0.0 4.0 48 70 76.8 67.2 29.949 2.77 1.2 357 0.00 0.00 0.00 0.00
06/20/18 8:01:18 AM 129 0.0 4.0 48 70 76.8 67.2 29.951 2.77 1.2 359 0.00 0.00 0.00 0.00
06/20/18 8:02:30 AM 129 0.0 4.0 48 70 76.8 67.2 29.947 2.77 1.2 362 0.00 0.00 0.00 0.00
06/20/18 8:03:24 AM 129 0.0 4.0 48 70 76.8 67.4 29.948 2.77 1.2 366 0.00 0.00 0.00 0.00
06/20/18 8:04:36 AM 129 0.0 4.0 48 70 76.8 67.7 29.951 2.77 1.2 369 0.00 0.00 0.00 0.00
06/20/18 8:05:27 AM 129 0.0 4.0 48 69 76.8 67.8 29.949 2.77 1.3 373 0.00 0.00 0.00 0.00
06/20/18 8:06:18 AM 129 0.0 4.0 48 69 76.9 68.0 29.950 2.77 1.3 374 0.00 0.00 0.00 0.00
06/20/18 8:07:30 AM 129 0.0 4.0 48 69 76.8 68.1 29.950 2.77 1.3 378 0.00 0.00 0.00 0.00
06/20/18 8:08:21 AM 129 0.0 4.0 48 69 76.8 68.3 29.948 2.77 1.3 378 0.00 0.00 0.00 0.00
06/20/18 8:09:36 AM 188 0.0 4.0 48 69 76.8 68.3 29.949 2.77 1.3 388 0.00 0.00 0.00 0.00
06/20/18 8:10:27 AM 188 0.0 4.0 48 69 76.8 68.4 29.949 2.77 1.3 392 0.00 0.00 0.00 0.00
06/20/18 8:11:35 AM 188 0.0 4.0 48 68 76.8 68.5 29.948 2.77 1.4 394 0.00 0.00 0.00 0.00
06/20/18 8:12:29 AM 188 0.0 4.0 48 69 76.8 68.6 29.946 2.77 1.4 397 0.00 0.00 0.00 0.00
06/20/18 8:13:20 AM 188 0.0 4.0 48 69 76.8 68.6 29.946 2.77 1.4 401 0.00 0.00 0.00 0.00
06/20/18 8:14:32 AM 188 0.0 4.0 48 68 76.8 68.6 29.947 2.77 1.4 404 0.00 0.00 0.00 0.00
06/20/18 8:15:26 AM 188 0.0 4.0 48 68 76.8 68.6 29.947 2.77 1.5 408 0.00 0.00 0.00 0.00
06/20/18 8:16:17 AM 188 0.0 4.0 48 68 76.8 68.6 29.947 2.77 1.5 410 0.00 0.00 0.00 0.00
06/20/18 8:17:29 AM 188 0.0 4.0 48 69 76.8 68.7 29.948 2.77 1.5 413 0.00 0.00 0.00 0.00
06/20/18 8:18:20 AM 188 0.0 4.0 48 68 76.8 68.9 29.946 2.77 1.5 417 0.00 0.00 0.00 0.00
06/20/18 8:19:32 AM 188 2.0 4.0 48 68 76.8 69.1 29.946 2.77 1.5 420 0.00 0.00 0.00 0.00
06/20/18 8:20:26 AM 188 2.0 4.0 48 69 76.8 69.2 29.946 2.77 1.6 422 0.00 0.00 0.00 0.00
06/20/18 8:21:20 AM 209 3.0 4.0 48 68 76.8 69.3 29.946 2.77 1.6 425 0.00 0.00 0.00 0.00
06/20/18 8:22:29 AM 209 3.0 4.0 48 67 76.8 69.3 29.945 2.77 1.6 429 0.00 0.00 0.00 0.00
06/20/18 8:23:23 AM 209 0.0 4.0 48 67 76.9 69.3 29.946 2.77 1.6 431 0.00 0.00 0.00 0.00
06/20/18 8:24:35 AM 209 1.0 4.0 48 67 76.9 69.3 29.947 2.77 1.6 438 0.00 0.00 0.00 0.00
06/20/18 8:25:29 AM 188 3.0 4.0 48 70 76.9 69.5 29.946 2.77 1.7 441 0.00 0.00 0.00 0.00
06/20/18 8:26:20 AM 188 2.0 4.0 48 67 76.8 69.5 29.950 2.77 1.7 445 0.00 0.00 0.00 0.00
06/20/18 8:27:26 AM 188 2.0 4.0 48 67 76.9 69.7 29.948 2.77 1.7 448 0.00 0.00 0.00 0.00
06/20/18 8:28:20 AM 210 2.0 4.0 48 67 76.8 69.8 29.948 2.77 1.7 450 0.00 0.00 0.00 0.00
06/20/18 8:29:32 AM 267 2.0 4.0 48 68 76.9 70.1 29.948 2.77 1.8 450 0.00 0.00 0.00 0.00
06/20/18 8:30:26 AM 241 4.0 4.0 48 66 76.9 70.1 29.950 2.77 1.8 457 0.00 0.00 0.00 0.00
06/20/18 8:31:20 AM 240 3.0 4.0 48 68 76.9 70.2 29.950 2.77 1.8 461 0.00 0.00 0.00 0.00
06/20/18 8:32:32 AM 240 3.0 4.0 48 67 76.9 70.2 29.951 2.77 1.8 462 0.00 0.00 0.00 0.00
06/20/18 8:33:20 AM 239 3.0 4.0 48 67 76.9 70.2 29.951 2.77 1.9 466 0.00 0.00 0.00 0.00
06/20/18 8:34:32 AM 94 1.0 4.0 48 65 76.9 70.2 29.952 2.77 1.9 468 0.00 0.00 0.00 0.00
06/20/18 8:35:26 AM 94 1.0 4.0 48 66 76.9 70.3 29.952 2.77 1.9 471 0.00 0.00 0.00 0.00
06/20/18 8:36:17 AM 94 0.0 4.0 48 65 76.9 70.4 29.952 2.77 1.9 475 0.00 0.00 0.00 0.00
06/20/18 8:37:30 AM 138 2.0 4.0 48 65 76.8 70.4 29.950 2.77 2.0 478 0.00 0.00 0.00 0.00
06/20/18 8:38:21 AM 187 2.0 4.0 48 65 76.9 70.4 29.953 2.77 2.0 480 0.00 0.00 0.00 0.00
06/20/18 8:39:33 AM 189 3.0 4.0 48 65 76.9 70.5 29.951 2.77 2.0 485 0.00 0.00 0.00 0.00
06/20/18 8:40:27 AM 189 1.0 4.0 48 64 76.9 70.5 29.952 2.77 2.0 489 0.00 0.00 0.00 0.00
06/20/18 8:41:18 AM 189 1.0 4.0 48 65 76.9 70.6 29.950 2.77 2.0 489 0.00 0.00 0.00 0.00
06/20/18 8:42:33 AM 189 1.0 4.0 48 65 76.9 70.7 29.952 2.77 2.1 496 0.00 0.00 0.00 0.00
06/20/18 8:43:24 AM 189 1.0 4.0 48 66 76.9 70.9 29.953 2.77 2.1 499 0.00 0.00 0.00 0.00
06/20/18 8:44:33 AM 189 3.0 4.0 48 65 76.9 71.0 29.954 2.77 2.1 501 0.00 0.00 0.00 0.00
06/20/18 8:45:27 AM 189 1.0 4.0 48 64 76.9 71.1 29.954 2.77 2.2 504 0.00 0.00 0.00 0.00
06/20/18 8:46:19 AM 191 1.0 4.0 48 65 76.9 71.2 29.955 2.77 2.2 508 0.00 0.00 0.00 0.00
06/20/18 8:47:34 AM 223 2.0 4.0 48 63 76.9 71.4 29.955 2.77 2.2 510 0.00 0.00 0.00 0.00
06/20/18 8:48:25 AM 223 2.0 4.0 48 63 77.0 71.4 29.953 2.77 2.2 512 0.00 0.00 0.00 0.00
06/20/18 8:49:31 AM 223 0.0 4.0 48 62 77.0 71.5 29.955 2.77 2.3 515 0.00 0.00 0.00 0.00
06/20/18 8:50:25 AM 223 2.0 4.0 48 62 77.0 71.6 29.954 2.77 2.3 520 0.00 0.00 0.00 0.00
06/20/18 8:51:19 AM 223 0.0 4.0 48 63 77.0 71.7 29.956 2.77 2.3 522 0.00 0.00 0.00 0.00
06/20/18 8:52:31 AM 222 2.0 4.0 48 63 77.0 72.0 29.954 2.77 2.3 526 0.00 0.00 0.00 0.00
06/20/18 8:53:22 AM 222 2.0 4.0 48 62 77.0 71.9 29.954 2.77 2.3 529 0.00 0.00 0.00 0.00
06/20/18 8:54:16 AM 222 2.0 4.0 48 61 77.0 71.9 29.954 2.77 2.4 531 0.00 0.00 0.00 0.00
06/20/18 8:55:25 AM 222 1.0 4.0 48 61 77.0 71.8 29.954 2.77 2.4 538 0.00 0.00 0.00 0.00
06/20/18 8:56:16 AM 222 1.0 4.0 48 62 77.0 71.9 29.954 2.77 2.5 538 0.00 0.00 0.00 0.00
06/20/18 8:57:31 AM 219 4.0 4.0 48 62 77.0 71.9 29.951 2.77 2.5 543 0.00 0.00 0.00 0.00
06/20/18 8:58:23 AM 179 2.0 4.0 48 62 77.0 72.0 29.953 2.77 2.5 548 0.00 0.00 0.00 0.00
06/20/18 8:59:35 AM 178 2.0 4.0 48 61 77.0 72.0 29.954 2.77 2.6 550 0.00 0.00 0.00 0.00
06/20/18 9:00:26 AM 178 3.0 4.0 48 61 77.0 72.1 29.952 2.77 2.6 554 0.00 0.00 0.00 0.00
06/20/18 9:01:17 AM 178 0.0 4.0 48 61 77.0 72.1 29.952 2.77 2.6 557 0.00 0.00 0.00 0.00
06/20/18 9:02:30 AM 178 1.0 4.0 48 61 77.0 72.3 29.952 2.77 2.6 559 0.00 0.00 0.00 0.00
06/20/18 9:03:21 AM 178 1.0 4.0 48 61 77.0 72.4 29.954 2.77 2.7 563 0.00 0.00 0.00 0.00
06/20/18 9:04:36 AM 178 2.0 4.0 48 60 77.0 72.5 29.954 2.77 2.7 566 0.00 0.00 0.00 0.00
06/20/18 9:05:24 AM 178 2.0 4.0 48 60 77.0 72.5 29.953 2.77 2.7 570 0.00 0.00 0.00 0.00
06/20/18 9:06:15 AM 180 3.0 4.0 48 62 77.0 72.6 29.953 2.77 2.8 570 0.00 0.00 0.00 0.00
06/20/18 9:07:31 AM 201 2.0 4.0 48 61 77.0 72.6 29.953 2.77 2.8 575 0.00 0.00 0.00 0.00
06/20/18 9:08:22 AM 188 2.0 4.0 48 60 77.0 72.5 29.953 2.77 2.8 578 0.00 0.00 0.00 0.00
06/20/18 9:09:32 AM 178 4.0 5.0 48 61 77.0 72.5 29.953 2.77 2.8 582 0.00 0.00 0.00 0.00
06/20/18 9:10:26 AM 159 5.0 6.0 48 60 77.0 72.5 29.954 2.77 2.9 585 0.00 0.00 0.00 0.00
06/20/18 9:11:35 AM 156 2.0 6.0 48 60 77.0 72.5 29.954 2.77 2.9 589 0.00 0.00 0.00 0.00
06/20/18 9:12:29 AM 170 2.0 6.0 48 60 77.1 72.5 29.954 2.77 2.9 592 0.00 0.00 0.00 0.00
06/20/18 9:13:20 AM 192 3.0 6.0 48 61 77.1 72.5 29.953 2.77 2.9 596 0.00 0.00 0.00 0.00
06/20/18 9:14:36 AM 194 2.0 6.0 48 61 77.1 72.5 29.951 2.77 3.0 598 0.00 0.00 0.00 0.00
06/20/18 9:15:27 AM 190 2.0 6.0 48 62 77.1 72.5 29.952 2.77 3.0 599 0.00 0.00 0.00 0.00
06/20/18 9:16:36 AM 190 1.0 6.0 48 60 77.1 72.6 29.954 2.77 3.0 603 0.00 0.00 0.00 0.00
06/20/18 9:17:27 AM 190 1.0 6.0 48 60 77.1 72.8 29.952 2.77 3.1 605 0.00 0.00 0.00 0.00
06/20/18 9:18:21 AM 190 4.0 6.0 48 60 77.1 73.0 29.955 2.77 3.1 610 0.00 0.00 0.00 0.00
06/20/18 9:19:33 AM 188 2.0 6.0 48 60 77.1 73.1 29.955 2.77 3.1 612 0.00 0.00 0.00 0.00
06/20/18 9:20:28 AM 171 4.0 6.0 48 59 77.1 73.2 29.952 2.77 3.1 615 0.00 0.00 0.00 0.00
06/20/18 9:21:19 AM 171 2.0 6.0 48 59 77.1 73.3 29.956 2.77 3.2 617 0.00 0.00 0.00 0.00
06/20/18 9:22:28 AM 165 5.0 6.0 48 58 77.1 73.4 29.955 2.77 3.2 619 0.00 0.00 0.00 0.00
06/20/18 9:23:19 AM 164 4.0 6.0 48 59 77.1 73.7 29.955 2.77 3.2 622 0.00 0.00 0.00 0.00
06/20/18 9:24:34 AM 177 2.0 6.0 48 59 77.1 73.8 29.953 2.77 3.1 628 0.00 0.00 0.00 0.00
06/20/18 9:25:25 AM 175 1.0 6.0 48 62 77.1 73.8 29.952 2.77 3.3 631 0.00 0.00 0.00 0.00
06/20/18 9:26:17 AM 167 3.0 6.0 48 60 77.1 73.9 29.954 2.77 3.3 631 0.00 0.00 0.00 0.00
06/20/18 9:27:26 AM 167 1.0 6.0 48 58 77.1 74.3 29.956 2.77 3.4 635 0.00 0.00 0.00 0.00
06/20/18 9:28:17 AM 169 2.0 6.0 48 57 77.1 74.3 29.954 2.77 3.4 640 0.00 0.00 0.00 0.00
06/20/18 9:29:29 AM 186 3.0 6.0 48 58 77.1 74.5 29.957 2.77 3.4 642 0.00 0.00 0.00 0.00
06/20/18 9:30:23 AM 196 3.0 6.0 48 57 77.1 74.4 29.954 2.77 3.5 643 0.00 0.00 0.00 0.00
06/20/18 9:31:35 AM 189 3.0 6.0 48 58 77.2 74.2 29.954 2.77 3.5 647 0.00 0.00 0.00 0.00
06/20/18 9:32:24 AM 189 1.0 6.0 48 58 77.2 74.1 29.953 2.77 3.5 650 0.00 0.00 0.00 0.00
06/20/18 9:33:18 AM 189 1.0 6.0 48 57 77.2 74.1 29.954 2.77 3.6 654 0.00 0.00 0.00 0.00
06/20/18 9:34:30 AM 188 3.0 6.0 48 57 77.2 74.1 29.954 2.77 3.6 656 0.00 0.00 0.00 0.00
06/20/18 9:35:22 AM 187 0.0 6.0 48 58 77.1 74.2 29.954 2.77 3.6 659 0.00 0.00 0.00 0.00
06/20/18 9:36:37 AM 188 0.0 6.0 48 57 77.2 74.3 29.955 2.77 3.7 661 0.00 0.00 0.00 0.00
06/20/18 9:37:28 AM 187 0.0 6.0 48 59 77.2 74.4 29.953 2.77 3.7 663 0.00 0.00 0.00 0.00
06/20/18 9:38:16 AM 188 1.0 6.0 48 58 77.2 74.9 29.953 2.77 3.7 663 0.00 0.00 0.00 0.00
06/20/18 9:39:32 AM 203 3.0 6.0 48 58 77.2 75.1 29.955 2.77 3.8 671 0.00 0.00 0.00 0.00
06/20/18 9:40:23 AM 190 3.0 6.0 48 56 77.2 75.1 29.955 2.77 3.8 673 0.00 0.00 0.00 0.00
06/20/18 9:41:35 AM 178 4.0 6.0 48 56 77.2 75.0 29.954 2.77 3.8 677 0.00 0.00 0.00 0.00
06/20/18 9:42:29 AM 167 3.0 6.0 48 56 77.2 75.0 29.954 2.77 3.9 679 0.00 0.00 0.00 0.00
06/20/18 9:43:18 AM 164 4.0 6.0 48 56 77.2 75.1 29.955 2.77 3.9 680 0.00 0.00 0.00 0.00
06/20/18 9:44:30 AM 164 2.0 6.0 48 55 77.2 75.1 29.954 2.77 3.9 684 0.00 0.00 0.00 0.00
06/20/18 9:45:24 AM 179 2.0 6.0 48 58 77.2 75.3 29.954 2.77 3.9 686 0.00 0.00 0.00 0.00
06/20/18 9:46:15 AM 186 3.0 6.0 48 56 77.2 75.3 29.954 2.77 4.0 687 0.00 0.00 0.00 0.00
06/20/18 9:47:27 AM 186 2.0 6.0 48 56 77.2 75.3 29.953 2.77 4.0 687 0.00 0.00 0.00 0.00
06/20/18 9:48:22 AM 186 2.0 6.0 48 55 77.2 75.5 29.952 2.77 4.0 693 0.00 0.00 0.00 0.00
06/20/18 9:49:31 AM 186 1.0 6.0 48 55 77.2 75.5 29.952 2.77 4.1 696 0.00 0.00 0.00 0.00
06/20/18 9:50:25 AM 186 1.0 6.0 48 55 77.2 75.5 29.953 2.77 4.1 698 0.00 0.00 0.00 0.00
06/20/18 9:51:37 AM 186 2.0 6.0 48 56 77.2 75.7 29.952 2.77 4.1 703 0.00 0.00 0.00 0.00
06/20/18 9:52:29 AM 186 1.0 6.0 48 55 77.2 75.7 29.951 2.77 4.2 707 0.00 0.00 0.00 0.00
06/20/18 9:53:20 AM 186 1.0 6.0 48 56 77.3 75.8 29.950 2.77 4.3 708 0.00 0.00 0.00 0.00
06/20/18 9:54:29 AM 186 1.0 6.0 48 57 77.2 76.2 29.949 2.77 4.3 712 0.00 0.00 0.00 0.00
06/20/18 9:55:20 AM 186 1.0 6.0 48 54 77.3 76.3 29.951 2.77 4.3 712 0.00 0.00 0.00 0.00
06/20/18 9:56:32 AM 186 2.0 6.0 48 54 77.3 76.4 29.949 2.77 4.4 717 0.00 0.00 0.00 0.00
06/20/18 9:57:27 AM 186 3.0 6.0 49 53 77.3 76.5 29.949 2.77 4.4 721 0.00 0.00 0.00 0.00
06/20/18 9:58:18 AM 186 0.0 6.0 49 54 77.2 76.4 29.946 2.77 4.4 724 0.00 0.00 0.00 0.00
06/20/18 9:59:27 AM 221 4.0 6.0 49 55 77.3 76.7 29.946 2.77 4.5 726 0.00 0.00 0.00 0.00
06/20/18 10:00:18 AM 221 2.0 6.0 49 55 77.3 76.9 29.948 2.77 4.5 729 0.00 0.00 0.00 0.00
06/20/18 10:01:31 AM 221 1.0 6.0 49 54 77.3 76.7 29.948 2.77 4.6 733 0.00 0.00 0.00 0.00
06/20/18 10:02:22 AM 182 4.0 6.0 49 54 77.3 76.7 29.948 2.77 4.6 737 0.00 0.00 0.00 0.00
06/20/18 10:03:35 AM 181 3.0 7.0 49 55 77.3 76.6 29.949 2.77 4.6 735 0.00 0.00 0.00 0.00
06/20/18 10:04:26 AM 165 2.0 8.0 49 53 77.3 76.5 29.947 2.77 4.6 738 0.00 0.00 0.00 0.00
06/20/18 10:05:17 AM 165 4.0 8.0 49 53 77.3 76.4 29.949 2.77 4.7 740 0.00 0.00 0.00 0.00
06/20/18 10:06:30 AM 151 1.0 8.0 49 53 77.3 76.6 29.947 2.77 4.4 744 0.00 0.00 0.00 0.00
06/20/18 10:07:24 AM 151 1.0 8.0 49 53 77.3 76.6 29.948 2.77 4.7 747 0.00 0.00 0.00 0.00
06/20/18 10:08:36 AM 111 0.0 8.0 49 53 77.3 76.9 29.949 2.77 4.8 752 0.00 0.00 0.00 0.00
06/20/18 10:09:28 AM 214 2.0 8.0 49 56 77.3 77.2 29.947 2.77 4.8 752 0.00 0.00 0.00 0.00
06/20/18 10:10:16 AM 279 2.0 8.0 49 53 77.3 77.6 29.948 2.77 4.8 752 0.00 0.00 0.00 0.00
06/20/18 10:11:29 AM 244 3.0 8.0 49 52 77.3 77.8 29.948 2.77 4.8 759 0.00 0.00 0.00 0.00
06/20/18 10:12:23 AM 245 3.0 8.0 49 52 77.3 77.8 29.948 2.77 4.9 759 0.00 0.00 0.00 0.00
06/20/18 10:13:35 AM 272 2.0 8.0 49 52 77.3 77.8 29.948 2.77 4.9 763 0.00 0.00 0.00 0.00
06/20/18 10:14:29 AM 336 3.0 8.0 49 52 77.3 77.7 29.950 2.77 5.0 763 0.00 0.00 0.00 0.00
06/20/18 10:15:20 AM 336 3.0 8.0 49 52 77.3 77.7 29.949 2.77 5.0 766 0.00 0.00 0.00 0.00
06/20/18 10:16:30 AM 325 3.0 8.0 49 54 77.3 77.6 29.947 2.77 5.0 768 0.00 0.00 0.00 0.00
06/20/18 10:17:21 AM 327 5.0 8.0 49 52 77.4 77.6 29.949 2.77 5.1 773 0.00 0.00 0.00 0.00
06/20/18 10:18:36 AM 322 2.0 8.0 49 52 77.3 77.6 29.950 2.77 5.1 775 0.00 0.00 0.00 0.00
06/20/18 10:19:27 AM 322 0.0 8.0 49 53 77.3 77.7 29.951 2.77 5.1 775 0.00 0.00 0.00 0.00
06/20/18 10:20:22 AM 322 0.0 8.0 49 53 77.4 77.9 29.947 2.77 5.2 779 0.00 0.00 0.00 0.00
06/20/18 10:21:31 AM 282 2.0 8.0 49 54 77.3 78.4 29.947 2.77 5.2 779 0.00 0.00 0.00 0.00
06/20/18 10:22:22 AM 282 1.0 8.0 49 53 77.4 78.6 29.950 2.77 5.2 782 0.00 0.00 0.00 0.00
06/20/18 10:23:34 AM 233 4.0 8.0 49 52 77.4 78.7 29.952 2.77 5.3 786 0.00 0.00 0.00 0.00
06/20/18 10:24:29 AM 247 3.0 8.0 49 51 77.4 78.7 29.947 2.77 5.3 788 0.00 0.00 0.00 0.00
06/20/18 10:25:20 AM 252 3.0 8.0 49 52 77.4 78.6 29.950 2.77 5.3 788 0.00 0.00 0.00 0.00
06/20/18 10:26:29 AM 294 4.0 8.0 49 50 77.4 78.6 29.950 2.77 5.4 793 0.00 0.00 0.00 0.00
06/20/18 10:27:24 AM 294 3.0 8.0 49 52 77.4 78.6 29.948 2.77 5.4 795 0.00 0.00 0.00 0.00
06/20/18 10:28:18 AM 294 3.0 8.0 49 50 77.4 78.6 29.948 2.77 5.4 798 0.00 0.00 0.00 0.00
06/20/18 10:29:30 AM 294 1.0 8.0 49 52 77.4 78.5 29.949 2.77 5.5 798 0.00 0.00 0.00 0.00
06/20/18 10:30:21 AM 294 0.0 8.0 50 52 77.4 78.5 29.949 2.77 5.5 798 0.00 0.00 0.00 0.00
06/20/18 10:31:34 AM 294 2.0 8.0 50 52 77.4 78.6 29.947 2.77 5.5 798 0.00 0.00 0.00 0.00
06/20/18 10:32:25 AM 209 2.0 8.0 50 52 77.4 78.9 29.948 2.77 5.5 798 0.00 0.00 0.00 0.00
06/20/18 10:33:35 AM 207 2.0 8.0 50 50 77.4 79.1 29.947 2.77 5.6 807 0.00 0.00 0.00 0.00
06/20/18 10:34:29 AM 204 5.0 8.0 50 51 77.4 79.2 29.949 2.77 5.6 807 0.00 0.00 0.00 0.00
06/20/18 10:35:20 AM 229 3.0 8.0 50 53 77.5 79.1 29.949 2.77 5.6 809 0.00 0.00 0.00 0.00
06/20/18 10:36:33 AM 220 1.0 8.0 50 52 77.4 79.1 29.950 2.77 5.7 810 0.00 0.00 0.00 0.00
06/20/18 10:37:21 AM 166 3.0 8.0 50 50 77.4 79.3 29.949 2.77 5.7 814 0.00 0.00 0.00 0.00
06/20/18 10:38:33 AM 111 4.0 8.0 50 49 77.5 79.7 29.949 2.77 5.7 816 0.00 0.00 0.00 0.00
06/20/18 10:39:28 AM 108 1.0 8.0 50 49 77.5 79.7 29.948 2.77 5.7 821 0.00 0.00 0.00 0.00
06/20/18 10:40:19 AM 148 2.0 8.0 50 49 77.5 79.7 29.947 2.77 5.8 821 0.00 0.00 0.00 0.00
06/20/18 10:41:34 AM 137 1.0 8.0 50 50 77.4 79.6 29.948 2.77 5.8 826 0.00 0.00 0.00 0.00
06/20/18 10:42:26 AM 137 0.0 8.0 50 49 77.5 79.6 29.951 2.77 5.8 826 0.00 0.00 0.00 0.00
06/20/18 10:43:35 AM 132 3.0 8.0 50 51 77.5 79.7 29.948 2.77 5.9 828 0.00 0.00 0.00 0.00
06/20/18 10:44:23 AM 156 9.0 10.0 50 49 77.5 79.8 29.950 2.77 5.9 830 0.00 0.00 0.00 0.00
06/20/18 10:45:18 AM 207 3.0 10.0 50 49 77.5 79.8 29.950 2.77 5.9 833 0.00 0.00 0.00 0.00
06/20/18 10:46:30 AM 186 2.0 10.0 50 50 77.5 79.7 29.950 2.77 5.9 835 0.00 0.00 0.00 0.00
06/20/18 10:47:21 AM 134 5.0 10.0 50 50 77.5 79.6 29.950 2.77 5.9 835 0.00 0.00 0.00 0.00
06/20/18 10:48:31 AM 122 3.0 10.0 50 49 77.5 79.6 29.949 2.77 6.0 837 0.00 0.00 0.00 0.00
06/20/18 10:49:25 AM 121 3.0 10.0 50 49 77.5 79.7 29.948 2.77 6.0 840 0.00 0.00 0.00 0.00
06/20/18 10:50:34 AM 89 3.0 10.0 50 49 77.5 79.7 29.948 2.77 6.0 842 0.00 0.00 0.00 0.00
06/20/18 10:51:29 AM 178 2.0 10.0 50 50 77.5 79.8 29.948 2.77 6.0 842 0.00 0.00 0.00 0.00
06/20/18 10:52:23 AM 167 6.0 10.0 50 51 77.5 80.1 29.948 2.77 6.1 846 0.00 0.00 0.00 0.00
06/20/18 10:53:29 AM 176 4.0 10.0 50 48 77.5 80.3 29.947 2.77 6.1 849 0.00 0.00 0.00 0.00
06/20/18 10:54:20 AM 180 6.0 10.0 50 49 77.5 80.2 29.947 2.77 6.1 849 0.00 0.00 0.00 0.00
06/20/18 10:55:36 AM 177 3.0 10.0 50 49 77.5 79.9 29.946 2.77 6.2 853 0.00 0.00 0.00 0.00
06/20/18 10:56:27 AM 178 4.0 10.0 50 51 77.5 79.8 29.945 2.77 6.2 853 0.00 0.00 0.00 0.00
06/20/18 10:57:18 AM 178 2.0 10.0 50 49 77.5 79.7 29.948 2.77 6.2 854 0.00 0.00 0.00 0.00
06/20/18 10:58:34 AM 210 3.0 10.0 50 51 77.6 79.7 29.947 2.77 6.2 854 0.00 0.00 0.00 0.00
06/20/18 10:59:22 AM 210 1.0 10.0 50 49 77.6 79.7 29.946 2.77 6.2 854 0.00 0.00 0.00 0.00
06/20/18 11:00:37 AM 209 2.0 10.0 50 50 77.6 79.9 29.947 2.77 6.3 856 0.00 0.00 0.00 0.00
06/20/18 11:01:29 AM 199 2.0 10.0 51 52 77.6 80.0 29.944 2.77 6.3 858 0.00 0.00 0.00 0.00
06/20/18 11:02:20 AM 199 1.0 10.0 51 49 77.5 80.1 29.946 2.77 6.3 858 0.00 0.00 0.00 0.00
06/20/18 11:03:32 AM 188 2.0 10.0 51 48 77.6 80.6 29.947 2.77 6.4 861 0.00 0.00 0.00 0.00
06/20/18 11:04:21 AM 238 3.0 10.0 51 48 77.6 80.8 29.946 2.77 6.4 861 0.00 0.00 0.00 0.00
06/20/18 11:05:33 AM 216 5.0 10.0 51 50 77.6 80.8 29.947 2.77 6.4 867 0.00 0.00 0.00 0.00
06/20/18 11:06:28 AM 216 2.0 10.0 51 51 77.6 80.8 29.945 2.77 6.5 867 0.00 0.00 0.00 0.00
06/20/18 11:07:19 AM 240 4.0 10.0 51 49 77.6 80.7 29.946 2.77 6.5 870 0.00 0.00 0.00 0.00
06/20/18 11:08:31 AM 240 2.0 10.0 51 49 77.6 80.7 29.942 2.77 6.5 875 0.00 0.00 0.00 0.00
06/20/18 11:09:23 AM 240 3.0 10.0 51 49 77.6 80.7 29.943 2.77 6.6 875 0.00 0.00 0.00 0.00
06/20/18 11:10:32 AM 186 3.0 10.0 51 49 77.6 80.7 29.942 2.77 6.6 877 0.00 0.00 0.00 0.00
06/20/18 11:11:27 AM 218 2.0 10.0 51 48 77.6 80.9 29.944 2.77 6.7 879 0.00 0.00 0.00 0.00
06/20/18 11:12:18 AM 255 2.0 10.0 51 53 77.7 81.2 29.944 2.77 6.7 881 0.00 0.00 0.00 0.00
06/20/18 11:13:33 AM 251 3.0 10.0 51 50 77.6 81.5 29.942 2.77 6.7 879 0.00 0.00 0.00 0.00
06/20/18 11:14:24 AM 255 4.0 10.0 51 49 77.7 81.5 29.944 2.77 6.7 879 0.00 0.00 0.00 0.00
06/20/18 11:15:34 AM 257 3.0 10.0 51 47 77.7 81.5 29.941 2.77 6.7 881 0.00 0.00 0.00 0.00
06/20/18 11:16:25 AM 257 2.0 10.0 51 49 77.7 81.5 29.940 2.77 6.8 886 0.00 0.00 0.00 0.00
06/20/18 11:17:19 AM 257 0.0 10.0 51 47 77.7 81.5 29.943 2.77 6.8 886 0.00 0.00 0.00 0.00
06/20/18 11:18:28 AM 257 2.0 10.0 51 48 77.7 81.6 29.942 2.77 6.8 888 0.00 0.00 0.00 0.00
06/20/18 11:19:23 AM 257 3.0 10.0 51 51 77.7 81.8 29.942 2.77 6.9 891 0.00 0.00 0.00 0.00
06/20/18 11:20:32 AM 244 4.0 10.0 51 48 77.8 82.1 29.941 2.77 6.9 889 0.00 0.00 0.00 0.00
06/20/18 11:21:26 AM 250 3.0 10.0 51 47 77.7 82.2 29.939 2.77 6.9 896 0.00 0.00 0.00 0.00
06/20/18 11:22:18 AM 250 3.0 10.0 51 47 77.7 82.1 29.941 2.77 6.9 893 0.00 0.00 0.00 0.00
06/20/18 11:23:30 AM 251 2.0 10.0 51 47 77.8 82.0 29.942 2.77 7.0 896 0.00 0.00 0.00 0.00
06/20/18 11:24:24 AM 222 5.0 10.0 51 46 77.8 82.1 29.942 2.77 7.0 896 0.00 0.00 0.00 0.00
06/20/18 11:25:37 AM 221 2.0 10.0 52 46 77.8 82.0 29.940 2.77 7.0 900 0.00 0.00 0.00 0.00
06/20/18 11:26:25 AM 227 5.0 10.0 52 47 77.8 81.7 29.941 2.77 7.0 902 0.00 0.00 0.00 0.00
06/20/18 11:27:16 AM 236 6.0 10.0 52 48 77.8 81.7 29.940 2.77 7.1 905 0.00 0.00 0.00 0.00
06/20/18 11:28:32 AM 246 3.0 10.0 52 46 77.8 81.7 29.942 2.77 7.1 907 0.00 0.00 0.00 0.00
06/20/18 11:29:23 AM 210 2.0 10.0 52 46 77.8 81.7 29.939 2.77 7.1 905 0.00 0.00 0.00 0.00
06/20/18 11:30:18 AM 246 8.0 10.0 52 48 77.8 81.8 29.939 2.77 7.2 907 0.00 0.00 0.00 0.00
06/20/18 11:31:24 AM 212 4.0 10.0 52 47 77.8 81.9 29.942 2.77 7.2 911 0.00 0.00 0.00 0.00
06/20/18 11:32:19 AM 240 4.0 10.0 52 48 77.9 81.9 29.940 2.77 7.2 909 0.00 0.00 0.00 0.00
06/20/18 11:33:31 AM 259 3.0 10.0 52 50 77.9 82.1 29.940 2.77 7.2 909 0.00 0.00 0.00 0.00
06/20/18 11:34:23 AM 259 4.0 10.0 52 47 77.9 82.2 29.940 2.77 7.3 911 0.00 0.00 0.00 0.00
06/20/18 11:35:35 AM 202 3.0 10.0 52 46 77.9 82.3 29.939 2.77 7.3 912 0.00 0.00 0.00 0.00
06/20/18 11:36:26 AM 187 3.0 10.0 52 46 77.9 82.3 29.939 2.77 7.3 918 0.00 0.00 0.00 0.00
06/20/18 11:37:36 AM 227 3.0 10.0 52 46 77.9 82.3 29.939 2.77 7.3 919 0.00 0.00 0.00 0.00
06/20/18 11:38:27 AM 227 2.0 10.0 52 47 78.0 82.3 29.939 2.77 7.4 919 0.00 0.00 0.00 0.00
06/20/18 11:39:18 AM 167 4.0 10.0 52 47 77.9 82.3 29.940 2.77 7.4 919 0.00 0.00 0.00 0.00
06/20/18 11:40:31 AM 123 4.0 10.0 52 45 78.0 82.7 29.940 2.77 7.4 921 0.00 0.00 0.00 0.00
06/20/18 11:41:22 AM 201 3.0 10.0 52 46 77.9 82.9 29.940 2.77 7.4 921 0.00 0.00 0.00 0.00
06/20/18 11:42:32 AM 233 3.0 10.0 52 48 78.0 83.2 29.938 2.77 7.4 923 0.00 0.00 0.00 0.00
06/20/18 11:43:23 AM 198 6.0 10.0 52 46 78.0 83.3 29.937 2.77 7.5 930 0.00 0.00 0.00 0.00
06/20/18 11:44:17 AM 177 7.0 10.0 52 46 78.0 83.3 29.941 2.77 7.5 926 0.00 0.00 0.00 0.00
06/20/18 11:45:30 AM 189 5.0 10.0 52 44 78.0 83.1 29.940 2.77 7.5 926 0.00 0.00 0.00 0.00
06/20/18 11:46:21 AM 207 4.0 10.0 52 44 78.1 83.0 29.940 2.77 7.5 930 0.00 0.00 0.00 0.00
06/20/18 11:47:30 AM 202 4.0 10.0 52 45 78.0 82.7 29.941 2.77 7.5 930 0.00 0.00 0.00 0.00
06/20/18 11:48:22 AM 186 4.0 10.0 52 45 78.1 82.6 29.940 2.77 7.5 932 0.00 0.00 0.00 0.00
06/20/18 11:49:34 AM 186 0.0 10.0 53 45 78.1 82.6 29.940 2.77 7.6 933 0.00 0.00 0.00 0.00
06/20/18 11:50:28 AM 183 2.0 10.0 53 45 78.1 82.6 29.939 2.77 7.5 932 0.00 0.00 0.00 0.00
06/20/18 11:51:20 AM 183 2.0 10.0 53 44 78.1 82.9 29.939 2.77 7.6 932 0.00 0.00 0.00 0.00
06/20/18 11:52:32 AM 183 2.0 10.0 53 44 78.1 83.0 29.936 2.77 7.6 932 0.00 0.00 0.00 0.00
06/20/18 11:53:20 AM 132 3.0 10.0 53 44 78.1 83.1 29.936 2.77 7.6 935 0.00 0.00 0.00 0.00
06/20/18 11:54:36 AM 132 0.0 10.0 53 44 78.2 83.4 29.938 2.77 7.6 937 0.00 0.00 0.00 0.00
06/20/18 11:55:27 AM 132 3.0 10.0 53 44 78.1 83.9 29.937 2.77 7.6 939 0.00 0.00 0.00 0.00
06/20/18 11:56:19 AM 134 2.0 10.0 53 44 78.2 84.1 29.937 2.77 7.7 939 0.00 0.00 0.00 0.00
06/20/18 11:57:35 AM 151 3.0 10.0 53 46 78.2 84.3 29.938 2.77 7.7 940 0.00 0.00 0.00 0.00
06/20/18 11:58:23 AM 167 3.0 10.0 53 44 78.2 84.2 29.936 2.77 7.7 942 0.00 0.00 0.00 0.00
06/20/18 11:59:32 AM 240 5.0 10.0 53 43 78.2 84.1 29.938 2.77 7.7 942 0.00 0.00 0.00 0.00
06/20/18 12:00:27 PM 242 4.0 10.0 53 45 78.2 84.2 29.938 2.77 7.8 947 0.00 0.00 0.00 0.00
06/20/18 12:01:18 PM 186 6.0 10.0 53 44 78.3 84.3 29.936 2.77 7.8 947 0.00 0.00 0.00 0.00
06/20/18 12:02:31 PM 205 4.0 10.0 53 44 78.3 84.2 29.937 2.77 7.8 946 0.00 0.00 0.00 0.00
06/20/18 12:03:22 PM 161 6.0 10.0 53 44 78.3 84.1 29.936 2.77 7.8 949 0.00 0.00 0.00 0.00
06/20/18 12:04:32 PM 150 2.0 10.0 54 43 78.3 83.9 29.933 2.77 7.8 947 0.00 0.00 0.00 0.00
06/20/18 12:05:26 PM 150 1.0 10.0 54 43 78.3 84.0 29.935 2.77 7.8 947 0.00 0.00 0.00 0.00
06/20/18 12:06:17 PM 175 6.0 10.0 54 45 78.3 84.3 29.934 2.77 7.8 947 0.00 0.00 0.00 0.00
06/20/18 12:07:30 PM 193 5.0 10.0 54 43 78.3 84.6 29.936 2.77 7.8 947 0.00 0.00 0.00 0.00
06/20/18 12:08:25 PM 196 1.0 10.0 54 42 78.4 84.4 29.936 2.77 7.8 949 0.00 0.00 0.00 0.00
06/20/18 12:09:31 PM 190 0.0 10.0 54 43 78.4 84.4 29.937 2.77 7.8 953 0.00 0.00 0.00 0.00
06/20/18 12:10:25 PM 250 4.0 10.0 54 44 78.4 84.5 29.934 2.77 7.9 951 0.00 0.00 0.00 0.00
06/20/18 12:11:17 PM 251 5.0 10.0 54 44 78.4 84.7 29.934 2.77 7.9 951 0.00 0.00 0.00 0.00
06/20/18 12:12:29 PM 246 3.0 10.0 54 44 78.5 84.8 29.936 2.77 7.9 953 0.00 0.00 0.00 0.00
06/20/18 12:13:20 PM 247 3.0 10.0 54 45 78.5 84.8 29.935 2.77 7.9 954 0.00 0.00 0.00 0.00
06/20/18 12:14:30 PM 234 6.0 10.0 54 47 78.5 85.0 29.934 2.77 8.0 954 0.00 0.00 0.00 0.00
06/20/18 12:15:21 PM 210 4.0 10.0 54 43 78.5 85.1 29.934 2.77 8.0 956 0.00 0.00 0.00 0.00
06/20/18 12:16:34 PM 213 2.0 10.0 54 42 78.5 85.0 29.932 2.77 8.0 954 0.00 0.00 0.00 0.00
06/20/18 12:17:28 PM 258 2.0 10.0 54 43 78.5 85.0 29.933 2.77 8.0 954 0.00 0.00 0.00 0.00
06/20/18 12:18:19 PM 240 3.0 10.0 54 43 78.6 85.1 29.931 2.77 8.0 958 0.00 0.00 0.00 0.00
06/20/18 12:19:35 PM 217 7.0 10.0 54 43 78.5 85.4 29.933 2.77 8.0 960 0.00 0.00 0.00 0.00
06/20/18 12:20:23 PM 210 5.0 10.0 54 42 78.6 85.5 29.932 2.77 8.0 960 0.00 0.00 0.00 0.00
06/20/18 12:21:33 PM 217 5.0 10.0 55 44 78.6 85.5 29.933 2.77 8.0 960 0.00 0.00 0.00 0.00
06/20/18 12:22:27 PM 217 2.0 10.0 55 41 78.6 85.3 29.930 2.77 8.0 960 0.00 0.00 0.00 0.00
06/20/18 12:23:18 PM 234 5.0 10.0 55 43 78.6 85.2 29.929 2.77 8.1 962 0.00 0.00 0.00 0.00
06/20/18 12:24:31 PM 245 3.0 10.0 55 42 78.7 85.0 29.929 2.77 8.0 956 0.00 0.00 0.00 0.00
06/20/18 12:25:19 PM 191 2.0 10.0 55 44 78.7 85.1 29.929 2.77 8.0 956 0.00 0.00 0.00 0.00
06/20/18 12:26:31 PM 215 6.0 10.0 55 44 78.7 85.1 29.928 2.77 8.1 962 0.00 0.00 0.00 0.00
06/20/18 12:27:23 PM 177 5.0 10.0 55 44 78.7 85.2 29.931 2.77 8.1 965 0.00 0.00 0.00 0.00
06/20/18 12:28:35 PM 162 4.0 11.0 55 42 78.7 85.1 29.927 2.77 8.1 965 0.00 0.00 0.00 0.00
06/20/18 12:29:30 PM 166 6.0 11.0 55 41 78.7 85.1 29.925 2.77 8.1 965 0.00 0.00 0.00 0.00
06/20/18 12:30:21 PM 142 3.0 11.0 55 42 78.7 85.1 29.927 2.77 8.1 963 0.00 0.00 0.00 0.00
06/20/18 12:31:30 PM 106 3.0 11.0 55 41 78.8 85.3 29.929 2.77 8.1 962 0.00 0.00 0.00 0.00
06/20/18 12:32:22 PM 110 6.0 11.0 55 41 78.8 85.5 29.925 2.77 8.1 962 0.00 0.00 0.00 0.00
06/20/18 12:33:35 PM 118 1.0 11.0 55 41 78.8 85.9 29.926 2.77 8.1 965 0.00 0.00 0.00 0.00
06/20/18 12:34:29 PM 206 3.0 11.0 55 41 78.8 86.0 29.927 2.77 8.1 967 0.00 0.00 0.00 0.00
06/20/18 12:35:21 PM 225 3.0 11.0 55 44 78.9 86.0 29.925 2.77 8.1 969 0.00 0.00 0.00 0.00
06/20/18 12:36:30 PM 236 2.0 11.0 55 42 78.9 86.2 29.927 2.77 8.2 967 0.00 0.00 0.00 0.00
06/20/18 12:37:22 PM 247 4.0 11.0 55 43 78.9 86.4 29.926 2.77 8.1 963 0.00 0.00 0.00 0.00
06/20/18 12:38:37 PM 261 3.0 11.0 56 40 78.9 86.4 29.926 2.77 8.1 965 0.00 0.00 0.00 0.00
06/20/18 12:39:29 PM 264 3.0 11.0 56 46 78.9 86.5 29.924 2.77 8.1 969 0.00 0.00 0.00 0.00
06/20/18 12:40:20 PM 287 3.0 11.0 56 40 78.9 86.5 29.924 2.77 8.2 969 0.00 0.00 0.00 0.00
06/20/18 12:41:30 PM 247 2.0 11.0 56 42 78.9 86.5 29.922 2.77 8.2 969 0.00 0.00 0.00 0.00
06/20/18 12:42:21 PM 225 5.0 11.0 56 40 79.0 86.5 29.926 2.77 8.2 970 0.00 0.00 0.00 0.00
06/20/18 12:43:34 PM 232 5.0 11.0 56 45 79.0 86.5 29.924 2.77 8.2 970 0.00 0.00 0.00 0.00
06/20/18 12:44:25 PM 235 3.0 11.0 56 40 79.0 86.6 29.925 2.77 8.2 967 0.00 0.00 0.00 0.00
06/20/18 12:45:20 PM 236 3.0 11.0 56 43 79.0 86.6 29.923 2.77 8.2 965 0.00 0.00 0.00 0.00
06/20/18 12:46:33 PM 240 3.0 11.0 56 43 79.1 86.8 29.923 2.77 8.2 965 0.00 0.00 0.00 0.00
06/20/18 12:47:21 PM 244 4.0 11.0 56 41 79.0 86.8 29.922 2.77 8.2 969 0.00 0.00 0.00 0.00
06/20/18 12:48:34 PM 249 3.0 11.0 56 40 79.1 86.9 29.922 2.77 8.2 969 0.00 0.00 0.00 0.00
06/20/18 12:49:25 PM 238 2.0 11.0 56 40 79.1 87.0 29.921 2.77 8.2 970 0.00 0.00 0.00 0.00
06/20/18 12:50:37 PM 229 3.0 11.0 56 40 79.1 87.2 29.922 2.77 8.2 969 0.00 0.00 0.00 0.00
06/20/18 12:51:29 PM 215 4.0 11.0 56 41 79.1 87.3 29.921 2.77 8.2 969 0.00 0.00 0.00 0.00
06/20/18 12:52:17 PM 204 7.0 11.0 56 40 79.1 87.3 29.923 2.77 8.2 970 0.00 0.00 0.00 0.00
06/20/18 12:53:30 PM 189 6.0 11.0 56 39 79.2 87.2 29.920 2.77 8.3 972 0.00 0.00 0.00 0.00
06/20/18 12:54:21 PM 198 6.0 11.0 56 39 79.2 86.9 29.919 2.77 8.2 972 0.00 0.00 0.00 0.00
06/20/18 12:55:37 PM 180 4.0 11.0 57 40 79.2 86.7 29.919 2.77 8.2 970 0.00 0.00 0.00 0.00
06/20/18 12:56:28 PM 194 5.0 11.0 57 40 79.2 86.7 29.920 2.77 8.2 970 0.00 0.00 0.00 0.00
06/20/18 12:57:23 PM 186 4.0 11.0 57 42 79.3 86.8 29.920 2.77 8.2 969 0.00 0.00 0.00 0.00
06/20/18 12:58:32 PM 174 5.0 11.0 57 40 79.3 86.8 29.918 2.77 8.2 969 0.00 0.00 0.00 0.00
06/20/18 12:59:24 PM 177 4.0 11.0 57 40 79.3 86.8 29.921 2.77 8.2 969 0.00 0.00 0.00 0.00
06/20/18 1:00:36 PM 214 6.0 11.0 57 40 79.2 87.0 29.919 2.77 8.2 969 0.00 0.00 0.00 0.00
06/20/18 1:01:31 PM 222 7.0 11.0 57 40 79.3 87.1 29.917 2.77 8.2 972 0.00 0.00 0.00 0.00
06/20/18 1:02:22 PM 215 4.0 11.0 57 41 79.3 87.1 29.916 2.77 8.2 969 0.00 0.00 0.00 0.00
06/20/18 1:03:29 PM 209 5.0 11.0 57 39 79.3 87.0 29.917 2.77 8.2 969 0.00 0.00 0.00 0.00
06/20/18 1:04:24 PM 160 6.0 11.0 57 39 79.4 87.0 29.916 2.77 8.2 967 0.00 0.00 0.00 0.00
06/20/18 1:05:36 PM 155 4.0 11.0 57 39 79.4 87.1 29.915 2.77 8.2 969 0.00 0.00 0.00 0.00
06/20/18 1:06:25 PM 176 4.0 11.0 57 39 79.4 87.0 29.915 2.77 8.1 967 0.00 0.00 0.00 0.00
06/20/18 1:07:19 PM 132 4.0 11.0 57 39 79.4 87.1 29.913 2.77 8.1 967 0.00 0.00 0.00 0.00
06/20/18 1:08:26 PM 206 3.0 11.0 57 39 79.4 87.2 29.914 2.77 8.1 967 0.00 0.00 0.00 0.00
06/20/18 1:09:20 PM 202 6.0 11.0 57 41 79.4 87.3 29.915 2.77 8.1 965 0.00 0.00 0.00 0.00
06/20/18 1:10:33 PM 201 2.0 11.0 57 38 79.4 87.4 29.914 2.77 8.1 965 0.00 0.00 0.00 0.00
06/20/18 1:11:28 PM 174 3.0 11.0 57 38 79.4 87.4 29.914 2.77 8.1 963 0.00 0.00 0.00 0.00
06/20/18 1:12:19 PM 174 3.0 11.0 57 39 79.4 87.5 29.913 2.77 8.1 965 0.00 0.00 0.00 0.00
06/20/18 1:13:32 PM 192 6.0 11.0 57 39 79.5 87.5 29.912 2.77 8.1 965 0.00 0.00 0.00 0.00
06/20/18 1:14:21 PM 203 3.0 11.0 57 39 79.5 87.6 29.913 2.77 8.1 963 0.00 0.00 0.00 0.00
06/20/18 1:15:33 PM 172 5.0 11.0 57 41 79.5 87.8 29.912 2.77 8.1 962 0.00 0.00 0.00 0.00
06/20/18 1:16:25 PM 161 2.0 11.0 57 38 79.6 88.1 29.913 2.77 8.1 963 0.00 0.00 0.00 0.00
06/20/18 1:17:19 PM 157 3.0 11.0 57 38 79.6 88.3 29.913 2.77 8.1 962 0.00 0.00 0.00 0.00
06/20/18 1:18:32 PM 115 4.0 11.0 57 37 79.6 88.4 29.915 2.77 8.0 963 0.00 0.00 0.00 0.00
06/20/18 1:19:21 PM 148 2.0 11.0 57 37 79.6 88.5 29.913 2.77 8.0 958 0.00 0.00 0.00 0.00
06/20/18 1:20:31 PM 142 0.0 11.0 57 37 79.6 88.6 29.913 2.77 8.1 963 0.00 0.00 0.00 0.00
06/20/18 1:21:25 PM 165 4.0 11.0 58 37 79.6 88.7 29.913 2.77 8.1 970 0.00 0.00 0.00 0.00
06/20/18 1:22:16 PM 235 3.0 11.0 58 38 79.7 89.0 29.913 2.77 8.1 965 0.00 0.00 0.00 0.00
06/20/18 1:23:32 PM 235 2.0 11.0 58 38 79.6 89.2 29.913 2.77 8.0 965 0.00 0.00 0.00 0.00
06/20/18 1:24:23 PM 237 2.0 11.0 58 37 79.7 89.3 29.915 2.77 8.1 962 0.00 0.00 0.00 0.00
06/20/18 1:25:33 PM 211 5.0 11.0 58 37 79.7 89.3 29.912 2.77 8.0 962 0.00 0.00 0.00 0.00
06/20/18 1:26:24 PM 160 4.0 11.0 58 37 79.6 89.3 29.914 2.77 8.0 956 0.00 0.00 0.00 0.00
06/20/18 1:27:19 PM 171 5.0 11.0 58 37 79.7 89.3 29.911 2.77 8.0 958 0.00 0.00 0.00 0.00
06/20/18 1:28:31 PM 289 4.0 11.0 58 39 79.7 89.5 29.911 2.77 8.0 958 0.00 0.00 0.00 0.00
06/20/18 1:29:23 PM 286 3.0 11.0 58 39 79.8 89.6 29.910 2.77 8.0 958 0.00 0.00 0.00 0.00
06/20/18 1:30:33 PM 234 4.0 11.0 58 38 79.7 89.7 29.913 2.77 8.0 958 0.00 0.00 0.00 0.00
06/20/18 1:31:24 PM 224 6.0 11.0 58 37 79.8 89.7 29.909 2.77 7.9 954 0.00 0.00 0.00 0.00
06/20/18 1:32:16 PM 211 5.0 11.0 58 38 79.8 89.6 29.910 2.77 7.9 956 0.00 0.00 0.00 0.00
06/20/18 1:33:29 PM 254 4.0 11.0 58 36 79.8 89.5 29.908 2.77 7.9 954 0.00 0.00 0.00 0.00
06/20/18 1:34:23 PM 254 3.0 11.0 58 36 79.8 89.6 29.908 2.77 7.9 953 0.00 0.00 0.00 0.00
06/20/18 1:35:33 PM 242 2.0 11.0 58 36 79.8 89.6 29.908 2.77 7.8 953 0.00 0.00 0.00 0.00
06/20/18 1:36:24 PM 242 4.0 11.0 58 37 79.8 89.5 29.907 2.77 7.9 951 0.00 0.00 0.00 0.00
06/20/18 1:37:16 PM 243 2.0 11.0 58 37 79.9 89.5 29.908 2.77 7.9 951 0.00 0.00 0.00 0.00
06/20/18 1:38:29 PM 243 2.0 11.0 58 38 79.9 89.5 29.908 2.77 7.9 951 0.00 0.00 0.00 0.00
06/20/18 1:39:20 PM 243 3.0 11.0 58 36 79.9 89.4 29.908 2.77 7.9 951 0.00 0.00 0.00 0.00
06/20/18 1:40:36 PM 240 4.0 11.0 58 36 79.9 89.5 29.908 2.77 7.8 946 0.00 0.00 0.00 0.00
06/20/18 1:41:25 PM 223 7.0 11.0 58 37 80.0 89.7 29.907 2.77 7.8 946 0.00 0.00 0.00 0.00
06/20/18 1:42:37 PM 227 4.0 11.0 58 37 79.9 89.7 29.906 2.77 7.4 944 0.00 0.00 0.00 0.00
06/20/18 1:43:29 PM 232 1.0 11.0 58 36 80.0 89.7 29.905 2.77 7.8 946 0.00 0.00 0.00 0.00
06/20/18 1:44:20 PM 230 5.0 11.0 58 38 80.0 89.6 29.907 2.77 7.8 947 0.00 0.00 0.00 0.00
06/20/18 1:45:33 PM 186 6.0 11.0 58 38 80.0 89.8 29.906 2.77 7.7 942 0.00 0.00 0.00 0.00
06/20/18 1:46:21 PM 219 6.0 11.0 58 36 80.0 89.7 29.906 2.77 7.7 942 0.00 0.00 0.00 0.00
06/20/18 1:47:34 PM 205 3.0 11.0 59 38 80.0 89.9 29.907 2.77 7.7 940 0.00 0.00 0.00 0.00
06/20/18 1:48:29 PM 232 8.0 11.0 59 37 80.1 89.9 29.908 2.77 7.6 939 0.00 0.00 0.00 0.00
06/20/18 1:49:20 PM 263 6.0 11.0 59 37 80.1 89.9 29.908 2.77 7.6 940 0.00 0.00 0.00 0.00
06/20/18 1:50:33 PM 257 4.0 11.0 59 38 80.1 90.0 29.909 2.77 7.6 937 0.00 0.00 0.00 0.00
06/20/18 1:51:27 PM 237 5.0 11.0 59 36 80.1 90.1 29.909 2.77 7.5 933 0.00 0.00 0.00 0.00
06/20/18 1:52:16 PM 252 2.0 11.0 59 37 80.1 90.1 29.910 2.77 7.5 932 0.00 0.00 0.00 0.00
06/20/18 1:53:28 PM 224 2.0 11.0 59 36 80.2 90.1 29.907 2.77 7.5 932 0.00 0.00 0.00 0.00
06/20/18 1:54:23 PM 205 2.0 11.0 59 35 80.2 89.9 29.906 2.77 7.5 932 0.00 0.00 0.00 0.00
06/20/18 1:55:36 PM 259 4.0 11.0 59 36 80.2 89.9 29.908 2.77 7.5 928 0.00 0.00 0.00 0.00
06/20/18 1:56:27 PM 230 4.0 11.0 59 37 80.2 90.0 29.906 2.77 7.5 928 0.00 0.00 0.00 0.00
06/20/18 1:57:37 PM 252 8.0 11.0 59 38 80.2 90.2 29.907 2.77 7.5 930 0.00 0.00 0.00 0.00
06/20/18 1:58:28 PM 211 6.0 11.0 59 35 80.2 90.4 29.906 2.77 7.4 930 0.00 0.00 0.00 0.00
06/20/18 1:59:20 PM 252 7.0 11.0 59 35 80.2 90.4 29.908 2.77 7.4 928 0.00 0.00 0.00 0.00
06/20/18 2:00:33 PM 207 4.0 11.0 59 35 80.3 90.3 29.910 2.77 7.4 926 0.00 0.00 0.00 0.00
06/20/18 2:01:27 PM 235 5.0 11.0 59 37 80.3 90.3 29.908 2.77 7.4 923 0.00 0.00 0.00 0.00
06/20/18 2:02:19 PM 247 2.0 11.0 59 35 80.3 90.3 29.906 2.77 7.3 923 0.00 0.00 0.00 0.00
06/20/18 2:03:29 PM 247 1.0 11.0 59 37 80.3 90.4 29.906 2.77 7.3 919 0.00 0.00 0.00 0.00
06/20/18 2:04:21 PM 247 1.0 11.0 59 37 80.3 90.5 29.908 2.77 7.3 921 0.00 0.00 0.00 0.00
06/20/18 2:05:34 PM 227 7.0 11.0 59 35 80.3 90.7 29.908 2.77 7.3 921 0.00 0.00 0.00 0.00
06/20/18 2:06:29 PM 248 4.0 11.0 59 35 80.4 90.7 29.908 2.77 7.3 919 0.00 0.00 0.00 0.00
06/20/18 2:07:20 PM 215 2.0 11.0 59 35 80.4 90.5 29.908 2.77 7.2 918 0.00 0.00 0.00 0.00
06/20/18 2:08:30 PM 192 9.0 11.0 59 36 80.4 90.4 29.908 2.77 7.2 916 0.00 0.00 0.00 0.00
06/20/18 2:09:22 PM 178 9.0 11.0 59 35 80.4 90.4 29.905 2.77 7.2 916 0.00 0.00 0.00 0.00
06/20/18 2:10:35 PM 186 4.0 11.0 60 36 80.4 90.3 29.907 2.77 7.1 909 0.00 0.00 0.00 0.00
06/20/18 2:11:26 PM 214 4.0 11.0 60 37 80.4 90.2 29.908 2.77 7.1 907 0.00 0.00 0.00 0.00
06/20/18 2:12:18 PM 213 2.0 11.0 60 35 80.5 90.1 29.906 2.77 7.1 907 0.00 0.00 0.00 0.00
06/20/18 2:13:28 PM 194 3.0 11.0 60 36 80.5 90.1 29.906 2.77 7.1 911 0.00 0.00 0.00 0.00
06/20/18 2:14:19 PM 215 6.0 11.0 60 35 80.5 90.1 29.906 2.77 7.1 907 0.00 0.00 0.00 0.00
06/20/18 2:15:32 PM 192 5.0 11.0 60 35 80.5 90.1 29.907 2.77 7.1 909 0.00 0.00 0.00 0.00
06/20/18 2:16:27 PM 186 1.0 11.0 60 35 80.5 90.0 29.905 2.77 7.0 907 0.00 0.00 0.00 0.00
06/20/18 2:17:18 PM 161 2.0 11.0 60 35 80.6 90.0 29.908 2.77 7.0 907 0.00 0.00 0.00 0.00
06/20/18 2:18:31 PM 164 5.0 11.0 60 35 80.5 90.1 29.905 2.77 7.0 907 0.00 0.00 0.00 0.00
06/20/18 2:19:19 PM 152 2.0 11.0 60 35 80.6 90.2 29.906 2.77 7.0 905 0.00 0.00 0.00 0.00
06/20/18 2:20:32 PM 184 2.0 11.0 60 34 80.6 90.4 29.905 2.77 6.9 902 0.00 0.00 0.00 0.00
06/20/18 2:21:24 PM 171 6.0 11.0 60 35 80.6 90.5 29.905 2.77 6.9 902 0.00 0.00 0.00 0.00
06/20/18 2:22:18 PM 175 7.0 11.0 60 35 80.7 90.5 29.904 2.77 6.9 902 0.00 0.00 0.00 0.00
06/20/18 2:23:31 PM 182 8.0 12.0 60 35 80.7 90.6 29.903 2.77 6.9 902 0.00 0.00 0.00 0.00
06/20/18 2:24:20 PM 178 6.0 12.0 60 35 80.7 90.5 29.901 2.77 6.9 902 0.00 0.00 0.00 0.00
06/20/18 2:25:33 PM 133 4.0 12.0 60 34 80.7 90.5 29.901 2.77 6.8 898 0.00 0.00 0.00 0.00
06/20/18 2:26:24 PM 242 5.0 12.0 60 34 80.7 90.6 29.902 2.77 6.8 898 0.00 0.00 0.00 0.00
06/20/18 2:27:19 PM 234 4.0 12.0 60 36 80.7 90.6 29.904 2.77 6.8 893 0.00 0.00 0.00 0.00
06/20/18 2:28:28 PM 230 7.0 12.0 60 34 80.7 90.7 29.900 2.77 6.7 889 0.00 0.00 0.00 0.00
06/20/18 2:29:23 PM 243 4.0 12.0 60 35 80.7 90.6 29.900 2.77 6.7 888 0.00 0.00 0.00 0.00
06/20/18 2:30:30 PM 229 5.0 12.0 60 35 80.8 90.7 29.901 2.77 6.7 886 0.00 0.00 0.00 0.00
06/20/18 2:31:22 PM 216 5.0 12.0 60 34 80.8 90.7 29.899 2.77 6.6 886 0.00 0.00 0.00 0.00
06/20/18 2:32:35 PM 202 4.0 12.0 60 34 80.9 90.6 29.898 2.77 6.6 886 0.00 0.00 0.00 0.00
06/20/18 2:33:30 PM 215 3.0 12.0 60 36 80.9 90.6 29.900 2.77 6.6 886 0.00 0.00 0.00 0.00
06/20/18 2:34:24 PM 225 3.0 12.0 60 34 80.8 90.6 29.899 2.77 6.6 884 0.00 0.00 0.00 0.00
06/20/18 2:35:31 PM 225 1.0 12.0 60 34 80.9 90.6 29.899 2.77 6.6 881 0.00 0.00 0.00 0.00
06/20/18 2:36:26 PM 222 2.0 12.0 61 35 80.9 90.7 29.896 2.77 6.5 881 0.00 0.00 0.00 0.00
06/20/18 2:37:18 PM 222 2.0 12.0 61 34 80.9 90.8 29.897 2.77 6.5 881 0.00 0.00 0.00 0.00
06/20/18 2:38:31 PM 210 5.0 12.0 61 35 80.9 91.0 29.897 2.77 6.5 879 0.00 0.00 0.00 0.00
06/20/18 2:39:26 PM 213 5.0 12.0 61 34 81.0 91.0 29.896 2.77 6.5 879 0.00 0.00 0.00 0.00
06/20/18 2:40:17 PM 222 4.0 12.0 61 35 80.9 91.0 29.895 2.77 6.5 879 0.00 0.00 0.00 0.00
06/20/18 2:41:27 PM 223 6.0 12.0 61 35 80.9 91.2 29.896 2.77 6.5 875 0.00 0.00 0.00 0.00
06/20/18 2:42:19 PM 238 8.0 12.0 61 35 81.0 91.3 29.894 2.77 6.4 874 0.00 0.00 0.00 0.00
06/20/18 2:43:31 PM 204 2.0 12.0 61 34 81.0 91.4 29.893 2.77 6.4 872 0.00 0.00 0.00 0.00
06/20/18 2:44:23 PM 204 1.0 12.0 61 34 81.0 91.5 29.891 2.77 6.4 872 0.00 0.00 0.00 0.00
06/20/18 2:45:36 PM 254 1.0 12.0 61 34 81.0 91.8 29.892 2.77 6.3 867 0.00 0.00 0.00 0.00
06/20/18 2:46:28 PM 238 5.0 12.0 61 34 81.0 91.9 29.891 2.77 6.3 863 0.00 0.00 0.00 0.00
06/20/18 2:47:19 PM 212 7.0 12.0 61 34 81.1 92.1 29.892 2.77 6.2 861 0.00 0.00 0.00 0.00
06/20/18 2:48:30 PM 230 6.0 12.0 61 34 81.1 92.1 29.893 2.77 6.2 861 0.00 0.00 0.00 0.00
06/20/18 2:49:21 PM 223 5.0 12.0 61 34 81.1 92.1 29.893 2.77 6.2 860 0.00 0.00 0.00 0.00
06/20/18 2:50:34 PM 217 5.0 12.0 61 34 81.1 92.1 29.891 2.77 6.2 858 0.00 0.00 0.00 0.00
06/20/18 2:51:23 PM 231 6.0 12.0 61 33 81.1 92.1 29.888 2.77 6.2 856 0.00 0.00 0.00 0.00
06/20/18 2:52:18 PM 236 5.0 12.0 61 35 81.1 92.0 29.889 2.77 6.1 854 0.00 0.00 0.00 0.00
06/20/18 2:53:29 PM 237 2.0 12.0 61 33 81.2 91.9 29.891 2.77 6.1 851 0.00 0.00 0.00 0.00
06/20/18 2:54:20 PM 235 3.0 12.0 61 33 81.2 91.9 29.889 2.77 6.1 851 0.00 0.00 0.00 0.00
06/20/18 2:55:36 PM 194 4.0 12.0 61 35 81.2 91.7 29.888 2.77 6.0 847 0.00 0.00 0.00 0.00
06/20/18 2:56:28 PM 194 2.0 12.0 61 33 81.2 91.6 29.890 2.77 6.0 846 0.00 0.00 0.00 0.00
06/20/18 2:57:17 PM 249 7.0 12.0 61 36 81.2 91.7 29.891 2.77 6.0 844 0.00 0.00 0.00 0.00
06/20/18 2:58:31 PM 263 3.0 12.0 61 35 81.2 91.9 29.888 2.77 5.9 842 0.00 0.00 0.00 0.00
06/20/18 2:59:23 PM 261 4.0 12.0 61 34 81.2 92.1 29.890 2.77 5.9 840 0.00 0.00 0.00 0.00
06/20/18 3:00:36 PM 227 6.0 12.0 61 34 81.3 92.2 29.887 2.77 5.8 838 0.00 0.00 0.00 0.00
06/20/18 3:01:28 PM 238 8.0 12.0 61 33 81.2 92.2 29.891 2.77 5.8 838 0.00 0.00 0.00 0.00
06/20/18 3:02:36 PM 252 5.0 12.0 61 33 81.3 92.1 29.887 2.77 5.8 835 0.00 0.00 0.00 0.00
06/20/18 3:03:27 PM 269 8.0 12.0 61 33 81.2 92.1 29.886 2.77 5.8 833 0.00 0.00 0.00 0.00
06/20/18 3:04:19 PM 317 5.0 12.0 61 33 81.3 92.1 29.887 2.77 5.8 831 0.00 0.00 0.00 0.00
06/20/18 3:05:32 PM 271 2.0 12.0 61 33 81.4 92.1 29.886 2.77 5.7 830 0.00 0.00 0.00 0.00
06/20/18 3:06:24 PM 242 4.0 12.0 61 37 81.3 92.3 29.889 2.77 5.7 830 0.00 0.00 0.00 0.00
06/20/18 3:07:19 PM 236 6.0 12.0 61 33 81.3 92.4 29.885 2.77 5.7 828 0.00 0.00 0.00 0.00
06/20/18 3:08:26 PM 225 6.0 12.0 61 33 81.4 92.4 29.884 2.77 5.7 826 0.00 0.00 0.00 0.00
06/20/18 3:09:18 PM 254 4.0 12.0 61 35 81.4 92.4 29.885 2.77 5.6 826 0.00 0.00 0.00 0.00
06/20/18 3:10:32 PM 211 5.0 12.0 61 36 81.4 92.5 29.884 2.77 5.6 816 0.00 0.00 0.00 0.00
06/20/18 3:11:24 PM 220 7.0 12.0 61 35 81.4 92.5 29.885 2.77 5.5 819 0.00 0.00 0.00 0.00
06/20/18 3:12:18 PM 238 3.0 12.0 61 33 81.4 92.5 29.886 2.77 5.5 817 0.00 0.00 0.00 0.00
06/20/18 3:13:26 PM 221 1.0 12.0 61 33 81.4 92.4 29.887 2.77 5.5 814 0.00 0.00 0.00 0.00
06/20/18 3:14:20 PM 242 4.0 12.0 61 35 81.4 92.5 29.888 2.77 5.4 812 0.00 0.00 0.00 0.00
06/20/18 3:15:33 PM 247 5.0 12.0 61 34 81.4 92.6 29.885 2.77 5.4 805 0.00 0.00 0.00 0.00
06/20/18 3:16:25 PM 294 5.0 12.0 61 34 81.4 92.6 29.889 2.77 5.3 805 0.00 0.00 0.00 0.00
06/20/18 3:17:17 PM 265 4.0 12.0 61 35 81.5 92.6 29.886 2.77 5.3 800 0.00 0.00 0.00 0.00
06/20/18 3:18:27 PM 252 3.0 12.0 61 33 81.5 92.7 29.886 2.77 5.3 798 0.00 0.00 0.00 0.00
06/20/18 3:19:16 PM 245 5.0 12.0 61 33 81.4 92.7 29.887 2.77 5.2 795 0.00 0.00 0.00 0.00
06/20/18 3:20:29 PM 254 2.0 12.0 61 33 81.5 92.7 29.887 2.77 5.2 793 0.00 0.00 0.00 0.00
06/20/18 3:21:24 PM 256 7.0 12.0 61 32 81.5 92.7 29.885 2.77 5.2 796 0.00 0.00 0.00 0.00
06/20/18 3:22:38 PM 232 4.0 12.0 61 34 81.5 92.7 29.884 2.77 5.2 793 0.00 0.00 0.00 0.00
06/20/18 3:23:30 PM 204 8.0 12.0 61 33 81.5 92.6 29.887 2.77 5.1 793 0.00 0.00 0.00 0.00
06/20/18 3:24:15 PM 246 5.0 12.0 61 33 81.5 92.6 29.885 2.77 5.1 791 0.00 0.00 0.00 0.00
06/20/18 3:25:32 PM 273 4.0 12.0 61 35 81.6 92.6 29.884 2.77 5.1 784 0.00 0.00 0.00 0.00
06/20/18 3:26:24 PM 225 8.0 12.0 61 32 81.6 92.6 29.886 2.77 5.0 784 0.00 0.00 0.00 0.00
06/20/18 3:27:18 PM 212 4.0 12.0 61 32 81.6 92.5 29.884 2.77 5.0 782 0.00 0.00 0.00 0.00
06/20/18 3:28:32 PM 216 7.0 12.0 61 34 81.6 92.5 29.885 2.77 5.0 780 0.00 0.00 0.00 0.00
06/20/18 3:29:21 PM 213 8.0 12.0 61 34 81.6 92.4 29.886 2.77 4.9 777 0.00 0.00 0.00 0.00
06/20/18 3:30:34 PM 264 6.0 12.0 61 32 81.6 92.4 29.884 2.77 4.9 773 0.00 0.00 0.00 0.00
06/20/18 3:31:26 PM 263 4.0 12.0 61 33 81.6 92.4 29.884 2.77 4.9 773 0.00 0.00 0.00 0.00
06/20/18 3:32:18 PM 281 4.0 12.0 61 33 81.6 92.4 29.882 2.77 4.9 770 0.00 0.00 0.00 0.00
06/20/18 3:33:31 PM 230 8.0 12.0 61 33 81.7 92.7 29.881 2.77 4.8 768 0.00 0.00 0.00 0.00
06/20/18 3:34:24 PM 253 5.0 12.0 61 33 81.7 92.8 29.885 2.77 4.8 766 0.00 0.00 0.00 0.00
06/20/18 3:35:31 PM 236 7.0 12.0 61 33 81.7 92.7 29.886 2.77 4.7 763 0.00 0.00 0.00 0.00
06/20/18 3:36:23 PM 190 5.0 12.0 61 33 81.7 92.6 29.883 2.77 4.7 759 0.00 0.00 0.00 0.00
06/20/18 3:37:15 PM 189 5.0 12.0 61 34 81.7 92.5 29.883 2.77 4.7 756 0.00 0.00 0.00 0.00
06/20/18 3:38:28 PM 238 4.0 12.0 61 34 81.7 92.5 29.884 2.77 4.6 756 0.00 0.00 0.00 0.00
06/20/18 3:39:21 PM 215 6.0 12.0 61 33 81.7 92.6 29.887 2.77 4.6 752 0.00 0.00 0.00 0.00
06/20/18 3:40:31 PM 242 5.0 12.0 61 33 81.7 92.6 29.885 2.77 4.6 751 0.00 0.00 0.00 0.00
06/20/18 3:41:23 PM 225 10.0 12.0 61 33 81.8 92.6 29.885 2.77 4.6 747 0.00 0.00 0.00 0.00
06/20/18 3:42:36 PM 238 8.0 12.0 61 32 81.8 92.6 29.884 2.77 4.5 744 0.00 0.00 0.00 0.00
06/20/18 3:43:28 PM 244 7.0 12.0 61 32 81.8 92.5 29.884 2.77 4.5 740 0.00 0.00 0.00 0.00
06/20/18 3:44:23 PM 235 9.0 12.0 61 32 81.8 92.4 29.885 2.77 4.4 738 0.00 0.00 0.00 0.00
06/20/18 3:45:30 PM 209 10.0 12.0 61 33 81.8 92.4 29.881 2.77 4.4 737 0.00 0.00 0.00 0.00
06/20/18 3:46:22 PM 232 5.0 12.0 61 32 81.8 92.3 29.883 2.77 4.4 737 0.00 0.00 0.00 0.00
06/20/18 3:47:35 PM 267 4.0 12.0 61 33 81.8 92.2 29.882 2.77 4.3 735 0.00 0.00 0.00 0.00
06/20/18 3:48:30 PM 249 5.0 12.0 61 33 81.8 92.2 29.883 2.77 4.3 729 0.00 0.00 0.00 0.00
06/20/18 3:49:22 PM 247 4.0 12.0 61 33 81.8 92.2 29.882 2.77 4.3 726 0.00 0.00 0.00 0.00
06/20/18 3:50:36 PM 259 6.0 12.0 61 32 81.8 92.2 29.881 2.77 4.2 722 0.00 0.00 0.00 0.00
06/20/18 3:51:25 PM 229 6.0 12.0 61 35 81.8 92.3 29.883 2.77 4.2 719 0.00 0.00 0.00 0.00
06/20/18 3:52:38 PM 225 8.0 12.0 61 32 81.8 92.4 29.882 2.77 4.2 717 0.00 0.00 0.00 0.00
06/20/18 3:53:27 PM 224 5.0 12.0 61 33 81.8 92.3 29.885 2.77 4.1 717 0.00 0.00 0.00 0.00
06/20/18 3:54:19 PM 248 5.0 12.0 61 34 81.9 92.2 29.882 2.77 4.1 715 0.00 0.00 0.00 0.00
06/20/18 3:55:32 PM 223 5.0 12.0 61 33 81.9 92.2 29.883 2.77 4.1 708 0.00 0.00 0.00 0.00
06/20/18 3:56:21 PM 232 5.0 12.0 61 32 81.9 92.2 29.882 2.77 4.0 705 0.00 0.00 0.00 0.00
06/20/18 3:57:34 PM 208 9.0 12.0 61 32 81.9 92.4 29.883 2.77 4.0 701 0.00 0.00 0.00 0.00
06/20/18 3:58:26 PM 217 7.0 12.0 61 31 81.9 92.4 29.883 2.77 3.9 698 0.00 0.00 0.00 0.00
06/20/18 3:59:18 PM 220 4.0 12.0 61 33 81.9 92.4 29.882 2.77 3.9 698 0.00 0.00 0.00 0.00
06/20/18 4:00:31 PM 192 7.0 12.0 61 33 81.9 92.6 29.883 2.77 3.9 693 0.00 0.00 0.00 0.00
06/20/18 4:01:26 PM 203 7.0 12.0 61 33 81.9 92.6 29.881 2.77 3.9 693 0.00 0.00 0.00 0.00
06/20/18 4:02:30 PM 203 7.0 12.0 61 33 81.9 92.6 29.882 2.77 3.9 693 0.00 0.00 0.00 0.00
06/20/18 4:03:25 PM 203 7.0 12.0 61 33 81.9 92.6 29.884 2.77 3.9 693 0.00 0.00 0.00 0.00
06/20/18 4:04:36 PM 246 8.0 12.0 61 32 82.0 92.4 29.881 2.77 3.8 693 0.00 0.00 0.00 0.00
06/20/18 4:05:28 PM 211 3.0 12.0 61 31 82.0 92.3 29.883 2.77 3.7 682 0.00 0.00 0.00 0.00
06/20/18 4:06:20 PM 204 2.0 12.0 61 31 82.0 92.2 29.881 2.77 3.7 677 0.00 0.00 0.00 0.00
06/20/18 4:07:30 PM 225 5.0 12.0 61 33 82.0 92.2 29.885 2.77 3.7 675 0.00 0.00 0.00 0.00
06/20/18 4:08:23 PM 211 7.0 12.0 61 32 82.0 92.3 29.882 2.77 3.7 671 0.00 0.00 0.00 0.00
06/20/18 4:09:36 PM 233 5.0 12.0 61 31 82.0 92.4 29.884 2.77 3.6 668 0.00 0.00 0.00 0.00
06/20/18 4:10:25 PM 236 9.0 12.0 61 33 82.0 92.6 29.882 2.77 3.6 666 0.00 0.00 0.00 0.00
06/20/18 4:11:17 PM 244 8.0 12.0 61 32 82.0 92.7 29.884 2.77 3.6 666 0.00 0.00 0.00 0.00
06/20/18 4:12:27 PM 249 7.0 12.0 61 31 82.0 92.6 29.882 2.77 3.5 661 0.00 0.00 0.00 0.00
06/20/18 4:13:20 PM 221 4.0 12.0 61 31 82.0 92.6 29.885 2.77 3.5 659 0.00 0.00 0.00 0.00
06/20/18 4:14:33 PM 246 7.0 12.0 61 35 82.0 92.6 29.884 2.77 3.5 657 0.00 0.00 0.00 0.00
06/20/18 4:15:25 PM 238 8.0 12.0 61 31 82.0 92.6 29.883 2.77 3.4 656 0.00 0.00 0.00 0.00
06/20/18 4:16:17 PM 205 8.0 12.0 61 31 82.0 92.4 29.882 2.77 3.4 652 0.00 0.00 0.00 0.00
06/20/18 4:17:30 PM 211 8.0 12.0 61 32 82.0 92.3 29.898 2.77 3.4 649 0.00 0.00 0.00 0.00
06/20/18 4:18:19 PM 198 5.0 12.0 61 32 82.0 92.2 29.881 2.77 3.3 645 0.00 0.00 0.00 0.00
06/20/18 4:19:29 PM 203 6.0 12.0 61 32 82.0 92.0 29.881 2.77 3.3 642 0.00 0.00 0.00 0.00
06/20/18 4:20:21 PM 269 4.0 12.0 61 33 82.0 92.0 29.883 2.77 3.2 638 0.00 0.00 0.00 0.00
06/20/18 4:21:35 PM 248 3.0 12.0 61 31 82.0 92.1 29.882 2.77 3.2 638 0.00 0.00 0.00 0.00
06/20/18 4:22:30 PM 263 6.0 12.0 61 32 82.0 92.2 29.880 2.77 3.2 631 0.00 0.00 0.00 0.00
06/20/18 4:23:16 PM 215 6.0 12.0 61 32 82.0 92.3 29.880 2.77 3.2 629 0.00 0.00 0.00 0.00
06/20/18 4:24:29 PM 222 6.0 12.0 61 31 82.0 92.4 29.882 2.77 3.1 624 0.00 0.00 0.00 0.00
06/20/18 4:25:21 PM 243 6.0 12.0 61 32 82.0 92.4 29.881 2.77 3.1 622 0.00 0.00 0.00 0.00
06/20/18 4:26:34 PM 227 7.0 12.0 61 31 82.0 92.2 29.882 2.77 3.1 622 0.00 0.00 0.00 0.00
06/20/18 4:27:29 PM 207 10.0 12.0 61 31 82.0 92.2 29.882 2.77 3.1 619 0.00 0.00 0.00 0.00
06/20/18 4:28:21 PM 227 9.0 12.0 61 33 82.0 92.1 29.881 2.77 3.1 615 0.00 0.00 0.00 0.00
06/20/18 4:29:29 PM 235 9.0 12.0 61 32 82.0 92.0 29.882 2.77 3.0 615 0.00 0.00 0.00 0.00
06/20/18 4:30:24 PM 219 9.0 12.0 61 32 82.0 91.9 29.881 2.77 3.0 612 0.00 0.00 0.00 0.00
06/20/18 4:31:34 PM 210 6.0 12.0 61 32 82.0 91.7 29.881 2.77 2.9 610 0.00 0.00 0.00 0.00
06/20/18 4:32:26 PM 236 6.0 12.0 61 32 82.1 91.7 29.879 2.77 2.9 605 0.00 0.00 0.00 0.00
06/20/18 4:33:19 PM 219 7.0 12.0 61 33 82.0 91.8 29.881 2.77 2.9 601 0.00 0.00 0.00 0.00
06/20/18 4:34:29 PM 252 4.0 12.0 61 32 82.0 91.8 29.879 2.77 2.8 599 0.00 0.00 0.00 0.00
06/20/18 4:35:21 PM 259 7.0 12.0 61 32 82.0 91.9 29.880 2.77 2.8 596 0.00 0.00 0.00 0.00
06/20/18 4:36:34 PM 243 8.0 12.0 61 32 82.1 91.9 29.880 2.77 2.8 592 0.00 0.00 0.00 0.00
06/20/18 4:37:30 PM 246 4.0 12.0 61 33 82.0 91.9 29.878 2.77 2.8 589 0.00 0.00 0.00 0.00
06/20/18 4:38:22 PM 262 6.0 12.0 61 32 82.1 91.9 29.879 2.77 2.7 587 0.00 0.00 0.00 0.00
06/20/18 4:39:29 PM 250 2.0 12.0 61 32 82.0 91.8 29.879 2.77 2.7 584 0.00 0.00 0.00 0.00
06/20/18 4:40:21 PM 231 5.0 12.0 61 32 82.1 91.9 29.876 2.77 2.7 582 0.00 0.00 0.00 0.00
06/20/18 4:41:35 PM 219 12.0 12.0 61 32 82.0 91.9 29.879 2.77 2.7 578 0.00 0.00 0.00 0.00
06/20/18 4:42:27 PM 208 8.0 12.0 61 32 82.0 91.9 29.876 2.77 2.6 577 0.00 0.00 0.00 0.00
06/20/18 4:43:19 PM 197 8.0 12.0 61 31 82.1 91.8 29.878 2.77 2.6 571 0.00 0.00 0.00 0.00
06/20/18 4:44:35 PM 174 8.0 12.0 61 31 82.1 91.7 29.878 2.77 2.5 566 0.00 0.00 0.00 0.00
06/20/18 4:45:21 PM 217 9.0 12.0 61 32 82.1 91.6 29.877 2.77 2.5 563 0.00 0.00 0.00 0.00
06/20/18 4:46:34 PM 252 5.0 12.0 61 32 82.1 91.6 29.876 2.77 2.5 561 0.00 0.00 0.00 0.00
06/20/18 4:47:26 PM 265 6.0 12.0 61 32 82.0 91.7 29.877 2.77 2.5 559 0.00 0.00 0.00 0.00
06/20/18 4:48:18 PM 237 5.0 12.0 61 33 82.1 91.8 29.877 2.77 2.5 559 0.00 0.00 0.00 0.00
06/20/18 4:49:32 PM 232 6.0 12.0 61 32 82.0 91.9 29.877 2.77 2.5 554 0.00 0.00 0.00 0.00
06/20/18 4:50:18 PM 238 3.0 12.0 61 32 82.1 91.9 29.880 2.77 2.4 550 0.00 0.00 0.00 0.00
06/20/18 4:51:31 PM 213 4.0 12.0 61 33 82.0 92.0 29.877 2.77 2.4 545 0.00 0.00 0.00 0.00
06/20/18 4:52:23 PM 270 10.0 12.0 61 32 82.1 92.1 29.877 2.77 2.3 541 0.00 0.00 0.00 0.00
06/20/18 4:53:18 PM 246 3.0 12.0 61 32 82.1 92.1 29.877 2.77 2.3 540 0.00 0.00 0.00 0.00
06/20/18 4:54:29 PM 236 2.0 12.0 61 33 82.1 92.1 29.876 2.77 2.3 533 0.00 0.00 0.00 0.00
06/20/18 4:55:21 PM 275 6.0 12.0 61 33 82.1 92.3 29.875 2.77 2.3 533 0.00 0.00 0.00 0.00
06/20/18 4:56:28 PM 276 4.0 12.0 61 31 82.1 92.4 29.876 2.77 2.2 529 0.00 0.00 0.00 0.00
06/20/18 4:57:20 PM 286 2.0 12.0 61 33 82.1 92.5 29.876 2.77 2.2 529 0.00 0.00 0.00 0.00
06/20/18 4:58:33 PM 244 5.0 12.0 61 33 82.1 92.4 29.875 2.77 2.2 524 0.00 0.00 0.00 0.00
06/20/18 4:59:25 PM 267 7.0 12.0 61 31 82.1 92.4 29.875 2.77 2.2 522 0.00 0.00 0.00 0.00
06/20/18 5:00:18 PM 238 4.0 12.0 61 31 82.1 92.2 29.876 2.77 2.1 520 0.00 0.00 0.00 0.00
06/20/18 5:01:25 PM 240 2.0 12.0 61 32 82.1 92.1 29.876 2.77 2.1 515 0.00 0.00 0.00 0.00
06/20/18 5:02:17 PM 223 4.0 12.0 61 32 82.1 92.0 29.873 2.77 2.1 515 0.00 0.00 0.00 0.00
06/20/18 5:03:31 PM 250 5.0 12.0 61 33 82.1 91.9 29.874 2.77 2.1 512 0.00 0.00 0.00 0.00
06/20/18 5:04:23 PM 271 6.0 12.0 61 33 82.1 91.9 29.874 2.77 2.1 510 0.00 0.00 0.00 0.00
06/20/18 5:05:36 PM 263 3.0 12.0 61 32 82.1 91.9 29.872 2.77 2.0 504 0.00 0.00 0.00 0.00
06/20/18 5:06:26 PM 225 3.0 12.0 61 33 82.1 91.8 29.876 2.77 2.0 499 0.00 0.00 0.00 0.00
06/20/18 5:07:36 PM 225 6.0 12.0 61 33 82.1 91.8 29.875 2.77 2.0 492 0.00 0.00 0.00 0.00
06/20/18 5:08:29 PM 206 4.0 12.0 61 33 82.1 91.8 29.873 2.77 1.9 489 0.00 0.00 0.00 0.00
06/20/18 5:09:21 PM 205 4.0 12.0 61 33 82.1 91.8 29.872 2.77 1.9 489 0.00 0.00 0.00 0.00
06/20/18 5:10:34 PM 234 6.0 12.0 61 34 82.1 91.8 29.875 2.77 1.9 485 0.00 0.00 0.00 0.00
06/20/18 5:11:26 PM 248 4.0 12.0 61 33 82.1 91.8 29.875 2.77 1.9 480 0.00 0.00 0.00 0.00
06/20/18 5:12:33 PM 238 3.0 12.0 61 34 82.1 91.8 29.874 2.77 1.4 480 0.00 0.00 0.00 0.00
06/20/18 5:13:28 PM 259 4.0 12.0 61 33 82.1 91.8 29.873 2.77 1.8 475 0.00 0.00 0.00 0.00
06/20/18 5:14:20 PM 258 2.0 12.0 61 33 82.1 91.8 29.874 2.77 1.8 471 0.00 0.00 0.00 0.00
06/20/18 5:15:34 PM 245 5.0 12.0 61 33 82.1 91.8 29.873 2.77 1.7 469 0.00 0.00 0.00 0.00
06/20/18 5:16:26 PM 257 3.0 12.0 61 33 82.1 91.7 29.875 2.77 1.7 464 0.00 0.00 0.00 0.00
06/20/18 5:17:33 PM 253 3.0 12.0 61 33 82.0 91.7 29.874 2.77 1.7 461 0.00 0.00 0.00 0.00
06/20/18 5:18:25 PM 234 4.0 12.0 61 33 82.1 91.6 29.872 2.77 1.7 457 0.00 0.00 0.00 0.00
06/20/18 5:19:20 PM 222 5.0 12.0 61 34 82.1 91.6 29.871 2.77 1.6 454 0.00 0.00 0.00 0.00
06/20/18 5:20:31 PM 215 7.0 12.0 61 34 82.1 91.6 29.873 2.77 1.6 452 0.00 0.00 0.00 0.00
06/20/18 5:21:26 PM 207 6.0 12.0 61 33 82.1 91.7 29.873 2.77 1.6 450 0.00 0.00 0.00 0.00
06/20/18 5:22:15 PM 201 9.0 12.0 61 32 82.1 91.6 29.873 2.77 1.6 445 0.00 0.00 0.00 0.00
06/20/18 5:23:22 PM 242 4.0 12.0 61 34 82.1 91.5 29.873 2.77 1.6 443 0.00 0.00 0.00 0.00
06/20/18 5:24:18 PM 252 5.0 12.0 61 34 82.1 91.5 29.873 2.77 1.5 439 0.00 0.00 0.00 0.00
06/20/18 5:25:31 PM 206 9.0 12.0 61 34 82.1 91.5 29.873 2.77 1.5 432 0.00 0.00 0.00 0.00
06/20/18 5:26:24 PM 218 6.0 12.0 61 33 82.1 91.4 29.874 2.77 1.5 427 0.00 0.00 0.00 0.00
06/20/18 5:27:37 PM 212 7.0 12.0 61 34 82.1 91.4 29.874 2.77 1.5 424 0.00 0.00 0.00 0.00
06/20/18 5:28:26 PM 239 4.0 12.0 61 34 82.1 91.4 29.873 2.77 1.4 422 0.00 0.00 0.00 0.00
06/20/18 5:29:18 PM 207 6.0 12.0 61 33 82.1 91.4 29.876 2.77 1.4 420 0.00 0.00 0.00 0.00
06/20/18 5:30:32 PM 223 7.0 12.0 61 33 82.1 91.3 29.873 2.77 1.4 417 0.00 0.00 0.00 0.00
06/20/18 5:31:24 PM 229 7.0 12.0 61 34 82.1 91.3 29.873 2.77 1.4 413 0.00 0.00 0.00 0.00
06/20/18 5:32:37 PM 246 7.0 12.0 61 34 82.1 91.3 29.873 2.77 1.3 410 0.00 0.00 0.00 0.00
06/20/18 5:33:23 PM 223 8.0 12.0 61 34 82.1 91.2 29.873 2.77 1.3 406 0.00 0.00 0.00 0.00
06/20/18 5:34:19 PM 240 5.0 12.0 61 34 82.1 91.2 29.876 2.77 1.3 406 0.00 0.00 0.00 0.00
06/20/18 5:35:29 PM 221 2.0 12.0 61 35 82.1 91.2 29.868 2.77 1.3 399 0.00 0.00 0.00 0.00
06/20/18 5:36:21 PM 247 2.0 12.0 61 35 82.1 91.3 29.874 2.77 1.3 396 0.00 0.00 0.00 0.00
06/20/18 5:37:35 PM 289 3.0 12.0 61 35 82.1 91.5 29.873 2.77 1.3 390 0.00 0.00 0.00 0.00
06/20/18 5:38:30 PM 260 4.0 12.0 61 35 82.1 91.5 29.874 2.77 1.2 387 0.00 0.00 0.00 0.00
06/20/18 5:39:16 PM 267 4.0 12.0 61 34 82.1 91.5 29.875 2.77 1.2 387 0.00 0.00 0.00 0.00
06/20/18 5:40:30 PM 202 8.0 12.0 61 34 82.1 91.4 29.873 2.77 1.2 380 0.00 0.00 0.00 0.00
06/20/18 5:41:19 PM 226 5.0 12.0 61 34 82.1 91.3 29.875 2.77 1.2 378 0.00 0.00 0.00 0.00
06/20/18 5:42:33 PM 256 7.0 12.0 61 34 82.1 91.2 29.874 2.77 1.1 374 0.00 0.00 0.00 0.00
06/20/18 5:43:25 PM 254 7.0 12.0 61 34 82.1 91.1 29.876 2.77 1.1 371 0.00 0.00 0.00 0.00
06/20/18 5:44:36 PM 261 3.0 12.0 61 34 82.1 91.0 29.876 2.77 1.1 369 0.00 0.00 0.00 0.00
06/20/18 5:45:28 PM 214 6.0 12.0 61 35 82.1 91.0 29.875 2.77 1.1 366 0.00 0.00 0.00 0.00
06/20/18 5:46:17 PM 235 3.0 12.0 61 34 82.1 90.9 29.877 2.77 1.1 364 0.00 0.00 0.00 0.00
06/20/18 5:47:31 PM 207 4.0 12.0 61 34 82.1 90.8 29.873 2.77 1.1 360 0.00 0.00 0.00 0.00
06/20/18 5:48:23 PM 198 6.0 12.0 61 34 82.1 90.8 29.873 2.77 1.0 355 0.00 0.00 0.00 0.00
06/20/18 5:49:18 PM 238 5.0 12.0 61 34 82.1 90.7 29.874 2.77 1.0 353 0.00 0.00 0.00 0.00
06/20/18 5:50:26 PM 228 3.0 12.0 61 35 82.1 90.8 29.877 2.77 1.0 350 0.00 0.00 0.00 0.00
06/20/18 5:51:18 PM 239 4.0 12.0 61 34 82.1 90.8 29.876 2.77 1.0 348 0.00 0.00 0.00 0.00
06/20/18 5:52:32 PM 223 4.0 12.0 61 34 82.1 90.7 29.876 2.77 1.0 343 0.00 0.00 0.00 0.00
06/20/18 5:53:24 PM 201 6.0 12.0 61 35 82.1 90.6 29.875 2.77 1.0 339 0.00 0.00 0.00 0.00
06/20/18 5:54:20 PM 221 9.0 12.0 61 35 82.1 90.6 29.878 2.77 0.9 336 0.00 0.00 0.00 0.00
06/20/18 5:55:27 PM 213 10.0 12.0 61 35 82.1 90.5 29.877 2.77 0.9 329 0.00 0.00 0.00 0.00
06/20/18 5:56:19 PM 227 6.0 12.0 61 35 82.1 90.4 29.877 2.77 0.9 325 0.00 0.00 0.00 0.00
06/20/18 5:57:33 PM 213 5.0 12.0 61 36 82.1 90.3 29.876 2.77 0.9 323 0.00 0.00 0.00 0.00
06/20/18 5:58:22 PM 215 9.0 12.0 61 35 82.1 90.3 29.877 2.77 0.9 320 0.00 0.00 0.00 0.00
06/20/18 5:59:18 PM 216 7.0 12.0 61 36 82.1 90.2 29.876 2.77 0.9 316 0.00 0.00 0.00 0.00
06/20/18 6:00:26 PM 215 7.0 12.0 61 36 82.1 90.2 29.876 2.77 0.8 315 0.00 0.00 0.00 0.00
06/20/18 6:01:18 PM 207 6.0 12.0 61 35 82.1 90.1 29.878 2.77 0.8 311 0.00 0.00 0.00 0.00
06/20/18 6:02:32 PM 204 6.0 12.0 61 36 82.2 90.0 29.871 2.77 0.8 308 0.00 0.00 0.00 0.00
06/20/18 6:03:24 PM 220 6.0 12.0 61 36 82.1 89.9 29.876 2.77 0.8 304 0.00 0.00 0.00 0.00
06/20/18 6:04:34 PM 233 4.0 12.0 61 36 82.1 89.9 29.876 2.77 0.8 301 0.00 0.00 0.00 0.00
06/20/18 6:05:27 PM 221 7.0 12.0 61 36 82.1 89.8 29.877 2.77 0.8 297 0.00 0.00 0.00 0.00
06/20/18 6:06:35 PM 240 5.0 12.0 61 36 82.1 89.8 29.876 2.77 0.7 294 0.00 0.00 0.00 0.00
06/20/18 6:07:27 PM 220 5.0 12.0 61 37 82.1 89.8 29.875 2.77 0.7 292 0.00 0.00 0.00 0.00
06/20/18 6:08:22 PM 234 4.0 12.0 61 36 82.1 89.7 29.878 2.77 0.7 290 0.00 0.00 0.00 0.00
06/20/18 6:09:33 PM 247 4.0 12.0 61 35 82.1 89.7 29.877 2.77 0.7 283 0.00 0.00 0.00 0.00
06/20/18 6:10:25 PM 254 3.0 12.0 61 36 82.1 89.7 29.879 2.77 0.7 279 0.00 0.00 0.00 0.00
06/20/18 6:11:33 PM 254 2.0 12.0 61 35 82.1 89.7 29.879 2.77 0.7 276 0.00 0.00 0.00 0.00
06/20/18 6:12:25 PM 262 6.0 12.0 61 37 82.1 89.7 29.879 2.77 0.7 272 0.00 0.00 0.00 0.00
06/20/18 6:13:18 PM 228 3.0 12.0 61 36 82.1 89.6 29.879 2.77 0.6 269 0.00 0.00 0.00 0.00
06/20/18 6:14:32 PM 225 5.0 12.0 61 35 82.1 89.6 29.881 2.77 0.6 265 0.00 0.00 0.00 0.00
06/20/18 6:15:23 PM 234 5.0 12.0 61 36 82.1 89.6 29.879 2.77 0.6 262 0.00 0.00 0.00 0.00
06/20/18 6:16:18 PM 232 5.0 12.0 61 37 82.1 89.5 29.881 2.77 0.6 258 0.00 0.00 0.00 0.00
06/20/18 6:17:26 PM 230 7.0 12.0 61 37 82.1 89.4 29.881 2.77 0.6 258 0.00 0.00 0.00 0.00
06/20/18 6:18:18 PM 250 5.0 12.0 61 37 82.1 89.3 29.879 2.77 0.6 251 0.00 0.00 0.00 0.00
06/20/18 6:19:32 PM 220 8.0 12.0 61 38 82.1 89.2 29.881 2.77 0.6 250 0.00 0.00 0.00 0.00
06/20/18 6:20:24 PM 199 9.0 12.0 61 38 82.1 89.1 29.882 2.77 0.5 246 0.00 0.00 0.00 0.00
06/20/18 6:21:16 PM 194 6.0 12.0 61 38 82.1 89.0 29.881 2.77 0.5 244 0.00 0.00 0.00 0.00
06/20/18 6:22:27 PM 235 4.0 12.0 61 38 82.1 88.8 29.881 2.77 0.5 239 0.00 0.00 0.00 0.00
06/20/18 6:23:19 PM 222 6.0 12.0 61 39 82.1 88.8 29.884 2.77 0.5 237 0.00 0.00 0.00 0.00
06/20/18 6:24:32 PM 227 5.0 12.0 61 39 82.1 88.7 29.883 2.77 0.5 230 0.00 0.00 0.00 0.00
06/20/18 6:25:25 PM 240 10.0 12.0 61 38 82.1 88.6 29.881 2.77 0.5 227 0.00 0.00 0.00 0.00
06/20/18 6:26:17 PM 200 5.0 12.0 61 38 82.1 88.6 29.885 2.77 0.5 227 0.00 0.00 0.00 0.00
06/20/18 6:27:27 PM 217 6.0 12.0 61 39 82.1 88.5 29.883 2.77 0.5 220 0.00 0.00 0.00 0.00
06/20/18 6:28:20 PM 227 6.0 12.0 61 39 82.1 88.4 29.886 2.77 0.5 216 0.00 0.00 0.00 0.00
06/20/18 6:29:30 PM 229 6.0 12.0 61 39 82.1 88.3 29.885 2.77 0.0 213 0.00 0.00 0.00 0.00
06/20/18 6:30:23 PM 238 4.0 12.0 61 39 82.1 88.3 29.884 2.77 0.0 211 0.00 0.00 0.00 0.00
06/20/18 6:31:36 PM 239 8.0 12.0 61 40 82.1 88.1 29.883 2.77 0.0 207 0.00 0.00 0.00 0.00
06/20/18 6:32:29 PM 252 8.0 12.0 61 40 82.1 88.1 29.882 2.77 0.0 204 0.00 0.00 0.00 0.00
06/20/18 6:33:18 PM 229 4.0 12.0 61 39 82.1 88.0 29.887 2.77 0.0 199 0.00 0.00 0.00 0.00
06/20/18 6:34:29 PM 240 6.0 12.0 61 40 82.1 87.8 29.886 2.77 0.0 197 0.00 0.00 0.00 0.00
06/20/18 6:35:24 PM 242 5.0 12.0 61 40 82.1 87.8 29.887 2.77 0.0 192 0.00 0.00 0.00 0.00
06/20/18 6:36:17 PM 228 5.0 12.0 61 40 82.1 87.7 29.886 2.77 0.0 190 0.00 0.00 0.00 0.00
06/20/18 6:37:28 PM 262 6.0 12.0 61 40 82.1 87.6 29.886 2.77 0.0 186 0.00 0.00 0.00 0.00
06/20/18 6:38:17 PM 250 3.0 12.0 61 40 82.1 87.5 29.888 2.77 0.0 183 0.00 0.00 0.00 0.00
06/20/18 6:39:31 PM 238 4.0 12.0 61 40 82.1 87.4 29.889 2.77 0.0 178 0.00 0.00 0.00 0.00
06/20/18 6:40:23 PM 288 4.0 12.0 61 40 82.1 87.4 29.887 2.77 0.0 178 0.00 0.00 0.00 0.00
06/20/18 6:41:34 PM 223 6.0 12.0 61 41 82.1 87.2 29.886 2.77 0.0 171 0.00 0.00 0.00 0.00
06/20/18 6:42:26 PM 212 5.0 12.0 61 41 82.1 87.2 29.887 2.77 0.0 167 0.00 0.00 0.00 0.00
06/20/18 6:43:18 PM 222 8.0 12.0 61 41 82.1 87.1 29.888 2.77 0.0 163 0.00 0.00 0.00 0.00
06/20/18 6:44:29 PM 221 8.0 12.0 61 41 82.1 87.0 29.888 2.77 0.0 160 0.00 0.00 0.00 0.00
06/20/18 6:45:21 PM 237 7.0 12.0 61 42 82.1 86.9 29.888 2.77 0.0 158 0.00 0.00 0.00 0.00
06/20/18 6:46:35 PM 259 4.0 12.0 61 42 82.1 86.7 29.889 2.77 0.0 155 0.00 0.00 0.00 0.00
06/20/18 6:47:27 PM 257 4.0 12.0 61 42 82.1 86.7 29.890 2.77 0.0 151 0.00 0.00 0.00 0.00
06/20/18 6:48:20 PM 254 4.0 12.0 61 42 82.1 86.6 29.891 2.77 0.0 149 0.00 0.00 0.00 0.00
06/20/18 6:49:30 PM 242 2.0 12.0 61 42 82.1 86.5 29.890 2.77 0.0 146 0.00 0.00 0.00 0.00
06/20/18 6:50:23 PM 242 2.0 12.0 61 43 82.1 86.4 29.891 2.77 0.0 141 0.00 0.00 0.00 0.00
06/20/18 6:51:33 PM 227 3.0 12.0 61 43 82.1 86.3 29.889 2.77 0.0 137 0.00 0.00 0.00 0.00
06/20/18 6:52:26 PM 227 7.0 12.0 61 42 82.1 86.2 29.892 2.77 0.0 135 0.00 0.00 0.00 0.00
06/20/18 6:53:18 PM 209 6.0 12.0 61 42 82.1 86.1 29.894 2.77 0.0 132 0.00 0.00 0.00 0.00
06/20/18 6:54:29 PM 252 1.0 12.0 61 44 82.1 86.0 29.891 2.77 0.0 125 0.00 0.00 0.00 0.00
06/20/18 6:55:21 PM 252 2.0 12.0 61 43 82.1 85.9 29.894 2.77 0.0 125 0.00 0.00 0.00 0.00
06/20/18 6:56:32 PM 257 7.0 12.0 61 43 82.1 85.7 29.892 2.77 0.0 120 0.00 0.00 0.00 0.00
06/20/18 6:57:24 PM 257 5.0 12.0 61 43 82.0 85.7 29.894 2.77 0.0 116 0.00 0.00 0.00 0.00
06/20/18 6:58:16 PM 240 4.0 12.0 61 43 82.1 85.7 29.894 2.77 0.0 113 0.00 0.00 0.00 0.00
06/20/18 6:59:30 PM 259 3.0 12.0 61 43 82.0 85.5 29.893 2.77 0.0 109 0.00 0.00 0.00 0.00
06/20/18 7:00:19 PM 256 7.0 12.0 61 43 82.1 85.5 29.893 2.77 0.0 107 0.00 0.00 0.00 0.00
06/20/18 7:01:33 PM 249 4.0 12.0 61 43 82.1 85.4 29.895 2.77 0.0 104 0.00 0.00 0.00 0.00
06/20/18 7:02:25 PM 236 6.0 12.0 61 43 82.1 85.3 29.893 2.77 0.0 100 0.00 0.00 0.00 0.00
06/20/18 7:03:18 PM 250 3.0 12.0 61 43 82.1 85.3 29.893 2.77 0.0 98 0.00 0.00 0.00 0.00
06/20/18 7:04:28 PM 218 7.0 12.0 61 43 82.1 85.1 29.896 2.77 0.0 97 0.00 0.00 0.00 0.00
06/20/18 7:05:18 PM 224 6.0 12.0 61 43 82.1 85.0 29.895 2.77 0.0 95 0.00 0.00 0.00 0.00
06/20/18 7:06:31 PM 241 5.0 12.0 61 44 82.1 84.8 29.893 2.77 0.0 91 0.00 0.00 0.00 0.00
06/20/18 7:07:21 PM 255 3.0 12.0 61 44 82.1 84.8 29.895 2.77 0.0 88 0.00 0.00 0.00 0.00
06/20/18 7:08:31 PM 228 4.0 12.0 61 45 82.1 84.6 29.896 2.77 0.0 83 0.00 0.00 0.00 0.00
06/20/18 7:09:27 PM 254 3.0 12.0 61 45 82.1 84.4 29.895 2.77 0.0 79 0.00 0.00 0.00 0.00
06/20/18 7:10:19 PM 257 5.0 12.0 61 45 82.1 84.2 29.898 2.77 0.0 79 0.00 0.00 0.00 0.00
06/20/18 7:11:27 PM 241 6.0 12.0 61 45 82.1 84.0 29.896 2.77 0.0 76 0.00 0.00 0.00 0.00
06/20/18 7:12:20 PM 228 7.0 12.0 61 45 82.1 83.9 29.898 2.77 0.0 72 0.00 0.00 0.00 0.00
06/20/18 7:13:33 PM 246 7.0 12.0 61 45 82.1 83.7 29.898 2.77 0.0 70 0.00 0.00 0.00 0.00
06/20/18 7:14:26 PM 256 4.0 12.0 61 45 82.1 83.5 29.896 2.77 0.0 69 0.00 0.00 0.00 0.00
06/20/18 7:15:19 PM 244 2.0 12.0 61 46 82.1 83.3 29.899 2.77 0.0 69 0.00 0.00 0.00 0.00
06/20/18 7:16:29 PM 244 2.0 12.0 61 46 82.1 83.2 29.899 2.77 0.0 63 0.00 0.00 0.00 0.00
06/20/18 7:17:22 PM 246 2.0 12.0 61 47 82.0 83.0 29.897 2.77 0.0 62 0.00 0.00 0.00 0.00
06/20/18 7:18:35 PM 239 3.0 12.0 61 47 82.0 82.9 29.898 2.77 0.0 58 0.00 0.00 0.00 0.00
06/20/18 7:19:25 PM 251 5.0 12.0 61 47 82.1 82.8 29.900 2.77 0.0 56 0.00 0.00 0.00 0.00
06/20/18 7:20:20 PM 260 6.0 12.0 61 46 82.1 82.7 29.900 2.77 0.0 54 0.00 0.00 0.00 0.00
06/20/18 7:21:28 PM 235 4.0 12.0 61 47 82.1 82.5 29.901 2.77 0.0 53 0.00 0.00 0.00 0.00
06/20/18 7:22:20 PM 239 3.0 12.0 61 47 82.0 82.4 29.901 2.77 0.0 49 0.00 0.00 0.00 0.00
06/20/18 7:23:34 PM 262 8.0 12.0 61 48 82.0 82.2 29.901 2.77 0.0 46 0.00 0.00 0.00 0.00
06/20/18 7:24:26 PM 263 7.0 12.0 61 47 82.1 82.2 29.901 2.77 0.0 44 0.00 0.00 0.00 0.00
06/20/18 7:25:19 PM 271 4.0 12.0 61 47 82.0 82.1 29.902 2.77 0.0 44 0.00 0.00 0.00 0.00
06/20/18 7:26:33 PM 247 7.0 12.0 61 47 82.1 81.9 29.900 2.77 0.0 39 0.00 0.00 0.00 0.00
06/20/18 7:27:22 PM 284 2.0 12.0 61 48 82.1 81.8 29.904 2.77 0.0 37 0.00 0.00 0.00 0.00
06/20/18 7:28:36 PM 274 4.0 12.0 61 48 82.0 81.6 29.903 2.77 0.0 35 0.00 0.00 0.00 0.00
06/20/18 7:29:28 PM 274 2.0 12.0 61 48 82.1 81.5 29.903 2.77 0.0 33 0.00 0.00 0.00 0.00
06/20/18 7:30:21 PM 270 3.0 12.0 61 48 82.0 81.3 29.905 2.77 0.0 32 0.00 0.00 0.00 0.00
06/20/18 7:31:35 PM 272 1.0 12.0 61 49 82.0 81.2 29.904 2.77 0.0 30 0.00 0.00 0.00 0.00
06/20/18 7:32:24 PM 259 2.0 12.0 61 49 82.0 81.0 29.904 2.77 0.0 28 0.00 0.00 0.00 0.00
06/20/18 7:33:35 PM 233 0.0 12.0 61 49 82.0 80.9 29.906 2.77 0.0 26 0.00 0.00 0.00 0.00
06/20/18 7:34:27 PM 233 2.0 12.0 61 49 82.1 80.8 29.905 2.77 0.0 25 0.00 0.00 0.00 0.00
06/20/18 7:35:20 PM 227 4.0 12.0 61 50 82.0 80.7 29.904 2.77 0.0 23 0.00 0.00 0.00 0.00
06/20/18 7:36:34 PM 257 7.0 12.0 61 49 82.1 80.5 29.905 2.77 0.0 23 0.00 0.00 0.00 0.00
06/20/18 7:37:27 PM 263 3.0 12.0 61 49 82.0 80.4 29.904 2.77 0.0 23 0.00 0.00 0.00 0.00
06/20/18 7:38:37 PM 225 5.0 12.0 61 50 82.0 80.3 29.907 2.77 0.0 19 0.00 0.00 0.00 0.00
06/20/18 7:39:30 PM 250 4.0 12.0 61 50 82.1 80.2 29.907 2.77 0.0 18 0.00 0.00 0.00 0.00
06/20/18 7:40:23 PM 256 7.0 12.0 61 50 82.0 80.1 29.908 2.77 0.0 18 0.00 0.00 0.00 0.00
06/20/18 7:41:36 PM 264 2.0 12.0 61 50 82.0 79.9 29.907 2.77 0.0 16 0.00 0.00 0.00 0.00
06/20/18 7:42:29 PM 270 3.0 12.0 61 50 82.0 79.8 29.909 2.77 0.0 14 0.00 0.00 0.00 0.00
06/20/18 7:43:15 PM 273 3.0 12.0 61 50 82.0 79.7 29.909 2.77 0.0 14 0.00 0.00 0.00 0.00
06/20/18 7:44:29 PM 273 2.0 12.0 61 51 82.0 79.6 29.908 2.77 0.0 12 0.00 0.00 0.00 0.00
06/20/18 7:45:25 PM 222 4.0 12.0 61 51 82.0 79.4 29.907 2.77 0.0 12 0.00 0.00 0.00 0.00
06/20/18 7:46:35 PM 239 4.0 12.0 61 51 82.0 79.3 29.909 2.77 0.0 12 0.00 0.00 0.00 0.00
06/20/18 7:47:28 PM 225 5.0 12.0 61 51 82.0 79.2 29.908 2.77 0.0 11 0.00 0.00 0.00 0.00
06/20/18 7:48:20 PM 212 5.0 12.0 61 51 82.0 79.1 29.910 2.77 0.0 11 0.00 0.00 0.00 0.00
06/20/18 7:49:31 PM 227 6.0 12.0 61 52 82.0 78.9 29.910 2.77 0.0 11 0.00 0.00 0.00 0.00
06/20/18 7:50:24 PM 227 4.0 12.0 61 52 82.0 78.8 29.912 2.77 0.0 9 0.00 0.00 0.00 0.00
06/20/18 7:51:34 PM 221 7.0 12.0 61 52 82.0 78.7 29.914 2.77 0.0 9 0.00 0.00 0.00 0.00
06/20/18 7:52:30 PM 225 7.0 12.0 61 52 82.0 78.6 29.913 2.77 0.0 9 0.00 0.00 0.00 0.00
06/20/18 7:53:22 PM 247 5.0 12.0 61 53 82.0 78.5 29.914 2.77 0.0 9 0.00 0.00 0.00 0.00
06/20/18 7:54:27 PM 224 4.0 12.0 61 53 82.0 78.3 29.914 2.77 0.0 7 0.00 0.00 0.00 0.00
06/20/18 7:55:23 PM 236 2.0 12.0 61 53 82.0 78.2 29.916 2.77 0.0 7 0.00 0.00 0.00 0.00
06/20/18 7:56:34 PM 246 4.0 12.0 61 53 82.0 78.1 29.916 2.77 0.0 7 0.00 0.00 0.00 0.00
06/20/18 7:57:26 PM 254 4.0 12.0 61 53 82.0 78.0 29.916 2.77 0.0 7 0.00 0.00 0.00 0.00
06/20/18 7:58:19 PM 242 5.0 12.0 61 53 81.9 77.9 29.916 2.77 0.0 5 0.00 0.00 0.00 0.00
06/20/18 7:59:26 PM 261 6.0 12.0 61 54 82.0 77.9 29.918 2.77 0.0 5 0.00 0.00 0.00 0.00
06/20/18 8:00:19 PM 242 3.0 12.0 61 54 82.0 77.8 29.917 2.77 0.0 5 0.00 0.00 0.00 0.00
06/20/18 8:01:30 PM 236 4.0 12.0 61 54 82.0 77.8 29.916 2.77 0.0 5 0.00 0.00 0.00 0.00
06/20/18 8:02:23 PM 241 5.0 12.0 61 54 82.0 77.7 29.918 2.77 0.0 5 0.00 0.00 0.00 0.00
06/20/18 8:03:36 PM 248 4.0 12.0 61 54 82.0 77.6 29.916 2.77 0.0 0 0.00 0.00 0.00 0.00
06/20/18 8:04:29 PM 250 3.0 12.0 61 54 81.9 77.6 29.920 2.77 0.0 0 0.00 0.00 0.00 0.00
06/20/18 8:05:16 PM 249 3.0 12.0 61 54 82.0 77.5 29.921 2.77 0.0 0 0.00 0.00 0.00 0.00
06/20/18 8:06:29 PM 228 3.0 12.0 61 54 81.9 77.4 29.923 2.77 0.0 0 0.00 0.00 0.00 0.00
06/20/18 8:07:22 PM 228 3.0 12.0 61 54 82.0 77.4 29.921 2.77 0.0 0 0.00 0.00 0.00 0.00
06/20/18 8:08:18 PM 258 3.0 12.0 61 55 82.0 77.3 29.923 2.77 0.0 0 0.00 0.00 0.00 0.00
06/20/18 8:09:29 PM 257 3.0 12.0 61 55 81.9 77.0 29.922 2.77 0.0 0 0.00 0.00 0.00 0.00
06/20/18 8:10:18 PM 245 4.0 12.0 61 55 82.0 77.0 29.924 2.77 0.0 0 0.00 0.00 0.00 0.00
06/20/18 8:11:29 PM 248 2.0 12.0 61 55 82.0 76.9 29.926 2.77 0.0 0 0.00 0.00 0.00 0.00
06/20/18 8:12:22 PM 248 1.0 12.0 61 56 81.9 76.8 29.924 2.77 0.0 0 0.00 0.00 0.00 0.00
06/20/18 8:13:35 PM 248 3.0 12.0 61 56 81.9 76.7 29.923 2.77 0.0 0 0.00 0.00 0.00 0.00
06/20/18 8:14:28 PM 248 2.0 12.0 61 56 82.0 76.7 29.923 2.77 0.0 0 0.00 0.00 0.00 0.00
06/20/18 8:15:21 PM 248 3.0 12.0 61 56 82.0 76.6 29.927 2.77 0.0 0 0.00 0.00 0.00 0.00
06/20/18 8:16:28 PM 229 5.0 12.0 61 57 82.0 76.4 29.927 2.77 0.0 0 0.00 0.00 0.00 0.00
06/20/18 8:17:21 PM 219 8.0 12.0 61 56 82.0 76.3 29.927 2.77 0.0 0 0.00 0.00 0.00 0.00
06/20/18 8:18:35 PM 215 7.0 12.0 61 57 82.0 76.2 29.928 2.77 0.0 0 0.00 0.00 0.00 0.00
06/20/18 8:19:27 PM 211 6.0 12.0 61 57 82.0 76.2 29.929 2.77 0.0 0 0.00 0.00 0.00 0.00
06/20/18 8:20:20 PM 229 5.0 12.0 61 57 82.0 76.2 29.928 2.77 0.0 0 0.00 0.00 0.00 0.00
06/20/18 8:21:28 PM 255 4.0 12.0 61 57 81.9 76.1 29.928 2.77 0.0 0 0.00 0.00 0.00 0.00
06/20/18 8:22:24 PM 234 3.0 12.0 61 57 81.9 76.1 29.931 2.77 0.0 0 0.00 0.00 0.00 0.00
06/20/18 8:23:35 PM 222 3.0 12.0 61 57 81.9 76.0 29.931 2.77 0.0 0 0.00 0.00 0.00 0.00
06/20/18 8:24:27 PM 244 4.0 12.0 61 57 81.9 75.9 29.932 2.77 0.0 0 0.00 0.00 0.00 0.00
06/20/18 8:25:20 PM 246 1.0 12.0 61 58 81.9 75.9 29.933 2.77 0.0 0 0.00 0.00 0.00 0.00
06/20/18 8:26:31 PM 212 4.0 12.0 61 58 82.0 75.8 29.935 2.77 0.0 0 0.00 0.00 0.00 0.00
06/20/18 8:27:20 PM 228 6.0 12.0 61 58 81.9 75.7 29.936 2.77 0.0 0 0.00 0.00 0.00 0.00
06/20/18 8:28:34 PM 236 3.0 12.0 61 58 81.9 75.5 29.935 2.77 0.0 0 0.00 0.00 0.00 0.00
06/20/18 8:29:27 PM 226 5.0 12.0 61 58 81.9 75.5 29.935 2.77 0.0 0 0.00 0.00 0.00 0.00
06/20/18 8:30:19 PM 238 3.0 12.0 61 58 81.9 75.4 29.938 2.77 0.0 0 0.00 0.00 0.00 0.00
06/20/18 8:31:33 PM 232 2.0 12.0 61 59 81.9 75.3 29.938 2.77 0.0 0 0.00 0.00 0.00 0.00
06/20/18 8:32:20 PM 229 5.0 12.0 61 59 81.9 75.2 29.937 2.77 0.0 0 0.00 0.00 0.00 0.00
06/20/18 8:33:34 PM 213 4.0 12.0 61 59 81.9 75.1 29.936 2.77 0.0 0 0.00 0.00 0.00 0.00
06/20/18 8:34:27 PM 257 2.0 12.0 61 59 81.9 75.1 29.938 2.77 0.0 0 0.00 0.00 0.00 0.00
06/20/18 8:35:20 PM 236 3.0 12.0 61 59 81.9 75.0 29.938 2.77 0.0 0 0.00 0.00 0.00 0.00
06/20/18 8:36:33 PM 221 6.0 12.0 61 59 81.9 74.9 29.940 2.77 0.0 0 0.00 0.00 0.00 0.00
06/20/18 8:37:20 PM 220 6.0 12.0 61 59 81.9 74.9 29.937 2.77 0.0 0 0.00 0.00 0.00 0.00
06/20/18 8:38:34 PM 229 3.0 12.0 61 59 81.9 74.8 29.938 2.77 0.0 0 0.00 0.00 0.00 0.00
06/20/18 8:39:27 PM 230 2.0 12.0 61 60 81.9 74.6 29.937 2.77 0.0 0 0.00 0.00 0.00 0.00
06/20/18 8:40:20 PM 228 3.0 12.0 61 60 81.9 74.6 29.941 2.77 0.0 0 0.00 0.00 0.00 0.00
06/20/18 8:41:31 PM 225 4.0 12.0 61 60 81.9 74.4 29.939 2.77 0.0 0 0.00 0.00 0.00 0.00
06/20/18 8:42:24 PM 225 2.0 12.0 61 60 81.9 74.4 29.940 2.77 0.0 0 0.00 0.00 0.00 0.00
06/20/18 8:43:32 PM 208 4.0 12.0 61 60 81.9 74.3 29.938 2.77 0.0 0 0.00 0.00 0.00 0.00
06/20/18 8:44:24 PM 194 4.0 12.0 61 60 81.9 74.2 29.942 2.77 0.0 0 0.00 0.00 0.00 0.00
06/20/18 8:45:35 PM 212 5.0 12.0 61 60 81.9 74.2 29.941 2.77 0.0 0 0.00 0.00 0.00 0.00
06/20/18 8:46:28 PM 211 4.0 12.0 61 60 81.9 74.1 29.942 2.77 0.0 0 0.00 0.00 0.00 0.00
06/20/18 8:47:20 PM 206 7.0 12.0 61 61 81.9 74.0 29.942 2.77 0.0 0 0.00 0.00 0.00 0.00
06/20/18 8:48:28 PM 219 6.0 12.0 61 61 81.8 73.9 29.943 2.77 0.0 0 0.00 0.00 0.00 0.00
06/20/18 8:49:21 PM 211 7.0 12.0 61 61 81.9 73.8 29.943 2.77 0.0 0 0.00 0.00 0.00 0.00
06/20/18 8:50:34 PM 216 6.0 12.0 61 61 81.9 73.7 29.943 2.77 0.0 0 0.00 0.00 0.00 0.00
06/20/18 8:51:27 PM 236 4.0 12.0 61 61 81.8 73.7 29.944 2.77 0.0 0 0.00 0.00 0.00 0.00
06/20/18 8:52:19 PM 234 4.0 12.0 61 61 81.8 73.5 29.943 2.77 0.0 0 0.00 0.00 0.00 0.00
06/20/18 8:53:30 PM 224 5.0 12.0 61 61 81.8 73.4 29.945 2.77 0.0 0 0.00 0.00 0.00 0.00
06/20/18 8:54:23 PM 224 4.0 12.0 61 62 81.8 73.3 29.945 2.77 0.0 0 0.00 0.00 0.00 0.00
06/20/18 8:55:34 PM 227 3.0 12.0 61 62 81.8 73.3 29.945 2.77 0.0 0 0.00 0.00 0.00 0.00
06/20/18 8:56:26 PM 234 2.0 12.0 61 62 81.8 73.2 29.947 2.77 0.0 0 0.00 0.00 0.00 0.00
06/20/18 8:57:19 PM 233 3.0 12.0 61 62 81.8 73.1 29.944 2.77 0.0 0 0.00 0.00 0.00 0.00
06/20/18 8:58:30 PM 258 2.0 12.0 61 63 81.8 73.0 29.944 2.77 0.0 0 0.00 0.00 0.00 0.00
06/20/18 8:59:20 PM 252 2.0 12.0 61 63 81.8 73.0 29.946 2.77 0.0 0 0.00 0.00 0.00 0.00
06/20/18 9:00:33 PM 252 2.0 12.0 61 63 81.8 72.9 29.945 2.77 0.0 0 0.00 0.00 0.00 0.00
06/20/18 9:01:26 PM 252 2.0 12.0 61 63 81.8 72.8 29.946 2.77 0.0 0 0.00 0.00 0.00 0.00
06/20/18 9:02:16 PM 243 1.0 12.0 61 63 81.8 72.8 29.945 2.77 0.0 0 0.00 0.00 0.00 0.00
06/20/18 9:03:29 PM 243 0.0 12.0 61 64 81.8 72.7 29.947 2.77 0.0 0 0.00 0.00 0.00 0.00
06/20/18 9:04:19 PM 243 0.0 12.0 61 64 81.8 72.6 29.947 2.77 0.0 0 0.00 0.00 0.00 0.00
06/20/18 9:05:30 PM 243 2.0 12.0 61 64 81.8 72.5 29.946 2.77 0.0 0 0.00 0.00 0.00 0.00
06/20/18 9:06:23 PM 243 3.0 12.0 61 64 81.8 72.5 29.947 2.77 0.0 0 0.00 0.00 0.00 0.00
06/20/18 9:07:16 PM 242 1.0 12.0 61 64 81.8 72.4 29.946 2.77 0.0 0 0.00 0.00 0.00 0.00
06/20/18 9:08:30 PM 199 3.0 12.0 61 64 81.8 72.4 29.948 2.77 0.0 0 0.00 0.00 0.00 0.00
06/20/18 9:09:20 PM 216 4.0 12.0 61 64 81.8 72.3 29.949 2.77 0.0 0 0.00 0.00 0.00 0.00
06/20/18 9:10:31 PM 208 4.0 12.0 61 64 81.8 72.2 29.949 2.77 0.0 0 0.00 0.00 0.00 0.00
06/20/18 9:11:24 PM 208 3.0 12.0 61 64 81.8 72.2 29.950 2.77 0.0 0 0.00 0.00 0.00 0.00
06/20/18 9:12:35 PM 208 3.0 12.0 61 64 81.8 72.2 29.950 2.77 0.0 0 0.00 0.00 0.00 0.00
06/20/18 9:13:28 PM 208 5.0 12.0 61 64 81.8 72.2 29.950 2.77 0.0 0 0.00 0.00 0.00 0.00
06/20/18 9:14:20 PM 194 3.0 12.0 61 64 81.7 72.2 29.950 2.77 0.0 0 0.00 0.00 0.00 0.00
06/20/18 9:15:28 PM 198 2.0 12.0 61 65 81.8 72.1 29.950 2.77 0.0 0 0.00 0.00 0.00 0.00
06/20/18 9:16:21 PM 207 5.0 12.0 61 65 81.8 72.0 29.950 2.77 0.0 0 0.00 0.00 0.00 0.00
06/20/18 9:17:35 PM 238 2.0 12.0 61 65 81.8 72.0 29.949 2.77 0.0 0 0.00 0.00 0.00 0.00
06/20/18 9:18:25 PM 238 1.0 12.0 61 65 81.8 72.0 29.949 2.77 0.0 0 0.00 0.00 0.00 0.00
06/20/18 9:19:18 PM 238 2.0 12.0 61 65 81.7 71.9 29.951 2.77 0.0 0 0.00 0.00 0.00 0.00
06/20/18 9:20:26 PM 221 4.0 12.0 61 65 81.7 71.9 29.949 2.77 0.0 0 0.00 0.00 0.00 0.00
06/20/18 9:21:19 PM 219 3.0 12.0 61 65 81.8 71.8 29.949 2.77 0.0 0 0.00 0.00 0.00 0.00
06/20/18 9:22:33 PM 240 3.0 12.0 61 65 81.7 71.7 29.949 2.77 0.0 0 0.00 0.00 0.00 0.00
06/20/18 9:23:25 PM 240 1.0 12.0 61 66 81.7 71.7 29.950 2.77 0.0 0 0.00 0.00 0.00 0.00
06/20/18 9:24:18 PM 241 1.0 12.0 61 66 81.7 71.5 29.951 2.77 0.0 0 0.00 0.00 0.00 0.00
06/20/18 9:25:29 PM 241 0.0 12.0 61 66 81.7 71.4 29.949 2.77 0.0 0 0.00 0.00 0.00 0.00
06/20/18 9:26:19 PM 241 0.0 12.0 61 67 81.7 71.2 29.948 2.77 0.0 0 0.00 0.00 0.00 0.00
06/20/18 9:27:30 PM 241 1.0 12.0 61 67 81.7 71.1 29.949 2.77 0.0 0 0.00 0.00 0.00 0.00
06/20/18 9:28:23 PM 241 2.0 12.0 61 67 81.7 71.1 29.951 2.77 0.0 0 0.00 0.00 0.00 0.00
06/20/18 9:29:34 PM 241 1.0 12.0 61 67 81.7 71.0 29.949 2.77 0.0 0 0.00 0.00 0.00 0.00
06/20/18 9:30:27 PM 241 1.0 12.0 61 67 81.7 71.0 29.950 2.77 0.0 0 0.00 0.00 0.00 0.00
06/20/18 9:31:32 PM 241 0.0 12.0 61 68 81.7 71.0 29.951 2.77 0.0 0 0.00 0.00 0.00 0.00
06/20/18 9:32:25 PM 241 3.0 12.0 61 68 81.7 70.9 29.948 2.77 0.0 0 0.00 0.00 0.00 0.00
06/20/18 9:33:18 PM 238 4.0 12.0 61 68 81.7 70.9 29.950 2.77 0.0 0 0.00 0.00 0.00 0.00
06/20/18 9:34:32 PM 238 1.0 12.0 61 68 81.7 70.8 29.950 2.77 0.0 0 0.00 0.00 0.00 0.00
06/20/18 9:35:25 PM 238 1.0 12.0 61 68 81.7 70.7 29.950 2.77 0.0 0 0.00 0.00 0.00 0.00
06/20/18 9:36:18 PM 238 1.0 12.0 61 68 81.7 70.6 29.952 2.77 0.0 0 0.00 0.00 0.00 0.00
06/20/18 9:37:26 PM 238 3.0 12.0 61 68 81.7 70.5 29.951 2.77 0.0 0 0.00 0.00 0.00 0.00
06/20/18 9:38:19 PM 234 3.0 12.0 61 69 81.7 70.4 29.949 2.77 0.0 0 0.00 0.00 0.00 0.00
06/20/18 9:39:30 PM 234 3.0 12.0 61 69 81.7 70.3 29.950 2.77 0.0 0 0.00 0.00 0.00 0.00
06/20/18 9:40:23 PM 234 2.0 12.0 61 69 81.7 70.3 29.952 2.77 0.0 0 0.00 0.00 0.00 0.00
06/20/18 9:41:37 PM 234 1.0 12.0 61 69 81.7 70.2 29.952 2.77 0.0 0 0.00 0.00 0.00 0.00
06/20/18 9:42:24 PM 234 2.0 12.0 61 69 81.7 70.2 29.951 2.77 0.0 0 0.00 0.00 0.00 0.00
06/20/18 9:43:17 PM 234 0.0 12.0 61 69 81.7 70.1 29.953 2.77 0.0 0 0.00 0.00 0.00 0.00
06/20/18 9:44:32 PM 234 0.0 12.0 61 69 81.6 70.0 29.949 2.77 0.0 0 0.00 0.00 0.00 0.00
06/20/18 9:45:21 PM 234 1.0 12.0 61 69 81.6 69.9 29.951 2.77 0.0 0 0.00 0.00 0.00 0.00
06/20/18 9:46:35 PM 234 0.0 12.0 61 69 81.6 69.8 29.953 2.77 0.0 0 0.00 0.00 0.00 0.00
06/20/18 9:47:25 PM 234 0.0 12.0 61 69 81.6 69.8 29.954 2.77 0.0 0 0.00 0.00 0.00 0.00
06/20/18 9:48:18 PM 234 0.0 12.0 61 69 81.6 69.7 29.953 2.77 0.0 0 0.00 0.00 0.00 0.00
06/20/18 9:49:32 PM 234 0.0 12.0 61 70 81.6 69.7 29.951 2.77 0.0 0 0.00 0.00 0.00 0.00
06/20/18 9:50:25 PM 234 0.0 12.0 61 70 81.6 69.8 29.953 2.77 0.0 0 0.00 0.00 0.00 0.00
06/20/18 9:51:18 PM 234 0.0 12.0 61 70 81.6 69.8 29.953 2.77 0.0 0 0.00 0.00 0.00 0.00
06/20/18 9:52:29 PM 234 0.0 12.0 61 69 81.6 69.8 29.954 2.77 0.0 0 0.00 0.00 0.00 0.00
06/20/18 9:53:19 PM 234 0.0 12.0 61 69 81.6 69.8 29.952 2.77 0.0 0 0.00 0.00 0.00 0.00
06/20/18 9:54:30 PM 234 0.0 12.0 61 69 81.6 69.9 29.950 2.77 0.0 0 0.00 0.00 0.00 0.00
06/20/18 9:55:23 PM 234 0.0 12.0 61 69 81.6 69.9 29.952 2.77 0.0 0 0.00 0.00 0.00 0.00
06/20/18 9:56:38 PM 234 0.0 12.0 61 69 81.6 69.9 29.950 2.77 0.0 0 0.00 0.00 0.00 0.00
06/20/18 9:57:30 PM 234 0.0 12.0 61 69 81.6 69.9 29.953 2.77 0.0 0 0.00 0.00 0.00 0.00
06/20/18 9:58:17 PM 234 0.0 12.0 61 69 81.6 69.9 29.951 2.77 0.0 0 0.00 0.00 0.00 0.00
06/20/18 9:59:31 PM 234 0.0 12.0 61 69 81.5 69.9 29.953 2.77 0.0 0 0.00 0.00 0.00 0.00
06/20/18 10:00:21 PM 234 0.0 12.0 61 69 81.6 70.0 29.951 2.77 0.0 0 0.00 0.00 0.00 0.00
06/20/18 10:01:35 PM 234 0.0 12.0 61 69 81.5 70.0 29.951 2.77 0.0 0 0.00 0.00 0.00 0.00
06/20/18 10:02:29 PM 234 0.0 12.0 61 69 81.6 70.0 29.951 2.77 0.0 0 0.00 0.00 0.00 0.00
06/20/18 10:03:18 PM 234 0.0 12.0 61 69 81.5 70.0 29.952 2.77 0.0 0 0.00 0.00 0.00 0.00
06/20/18 10:04:27 PM 234 0.0 12.0 61 69 81.5 70.0 29.951 2.77 0.0 0 0.00 0.00 0.00 0.00
06/20/18 10:05:20 PM 234 0.0 12.0 61 69 81.5 70.0 29.953 2.77 0.0 0 0.00 0.00 0.00 0.00
06/20/18 10:06:31 PM 234 0.0 12.0 61 68 81.5 69.9 29.951 2.77 0.0 0 0.00 0.00 0.00 0.00
06/20/18 10:07:24 PM 234 0.0 12.0 61 69 81.5 69.8 29.952 2.77 0.0 0 0.00 0.00 0.00 0.00
06/20/18 10:08:35 PM 234 0.0 12.0 61 69 81.5 69.7 29.955 2.77 0.0 0 0.00 0.00 0.00 0.00
06/20/18 10:09:25 PM 234 0.0 12.0 61 69 81.5 69.7 29.951 2.77 0.0 0 0.00 0.00 0.00 0.00
06/20/18 10:10:21 PM 234 0.0 12.0 61 69 81.4 69.6 29.952 2.77 0.0 0 0.00 0.00 0.00 0.00
06/20/18 10:11:32 PM 234 0.0 12.0 61 69 81.4 69.6 29.955 2.77 0.0 0 0.00 0.00 0.00 0.00
06/20/18 10:12:25 PM 234 0.0 12.0 61 69 81.4 69.6 29.952 2.77 0.0 0 0.00 0.00 0.00 0.00
06/20/18 10:13:18 PM 234 0.0 12.0 61 69 81.5 69.5 29.955 2.77 0.0 0 0.00 0.00 0.00 0.00
06/20/18 10:14:26 PM 234 0.0 12.0 61 69 81.4 69.4 29.955 2.77 0.0 0 0.00 0.00 0.00 0.00
06/20/18 10:15:16 PM 234 0.0 12.0 61 70 81.5 69.4 29.955 2.77 0.0 0 0.00 0.00 0.00 0.00
06/20/18 10:16:31 PM 234 0.0 12.0 61 70 81.4 69.3 29.957 2.77 0.0 0 0.00 0.00 0.00 0.00
06/20/18 10:17:23 PM 234 0.0 12.0 61 70 81.5 69.3 29.955 2.77 0.0 0 0.00 0.00 0.00 0.00
06/20/18 10:18:16 PM 234 0.0 12.0 61 70 81.4 69.3 29.955 2.77 0.0 0 0.00 0.00 0.00 0.00
06/20/18 10:19:28 PM 234 0.0 12.0 61 71 81.4 69.2 29.956 2.77 0.0 0 0.00 0.00 0.00 0.00
06/20/18 10:20:18 PM 234 0.0 12.0 61 71 81.4 69.2 29.953 2.77 0.0 0 0.00 0.00 0.00 0.00
06/20/18 10:21:30 PM 234 0.0 12.0 61 71 81.4 69.1 29.954 2.77 0.0 0 0.00 0.00 0.00 0.00
06/20/18 10:22:23 PM 234 0.0 12.0 61 70 81.4 69.2 29.954 2.77 0.0 0 0.00 0.00 0.00 0.00
06/20/18 10:23:34 PM 234 0.0 12.0 61 70 81.4 69.2 29.955 2.77 0.0 0 0.00 0.00 0.00 0.00
06/20/18 10:24:27 PM 234 0.0 12.0 61 70 81.4 69.2 29.956 2.77 0.0 0 0.00 0.00 0.00 0.00
06/20/18 10:25:36 PM 234 0.0 12.0 61 70 81.4 69.2 29.957 2.77 0.0 0 0.00 0.00 0.00 0.00
06/20/18 10:26:29 PM 234 0.0 12.0 61 70 81.4 69.1 29.956 2.77 0.0 0 0.00 0.00 0.00 0.00
06/20/18 10:27:19 PM 234 0.0 12.0 61 70 81.4 69.1 29.957 2.77 0.0 0 0.00 0.00 0.00 0.00
06/20/18 10:28:33 PM 234 0.0 12.0 61 70 81.4 69.0 29.955 2.77 0.0 0 0.00 0.00 0.00 0.00
06/20/18 10:29:26 PM 234 0.0 12.0 61 70 81.4 68.9 29.957 2.77 0.0 0 0.00 0.00 0.00 0.00
06/20/18 10:30:19 PM 234 0.0 12.0 61 70 81.4 68.9 29.955 2.77 0.0 0 0.00 0.00 0.00 0.00
06/20/18 10:31:27 PM 234 0.0 12.0 61 70 81.3 68.9 29.957 2.77 0.0 0 0.00 0.00 0.00 0.00
06/20/18 10:32:20 PM 234 0.0 12.0 61 70 81.3 68.8 29.956 2.77 0.0 0 0.00 0.00 0.00 0.00
06/20/18 10:33:35 PM 234 0.0 12.0 61 71 81.4 68.7 29.956 2.77 0.0 0 0.00 0.00 0.00 0.00
06/20/18 10:34:28 PM 234 0.0 12.0 61 71 81.3 68.7 29.957 2.77 0.0 0 0.00 0.00 0.00 0.00
06/20/18 10:35:21 PM 234 0.0 12.0 61 71 81.3 68.7 29.959 2.77 0.0 0 0.00 0.00 0.00 0.00
06/20/18 10:36:29 PM 234 0.0 12.0 61 71 81.3 68.6 29.957 2.77 0.0 0 0.00 0.00 0.00 0.00
06/20/18 10:37:19 PM 234 0.0 12.0 61 70 81.3 68.6 29.956 2.77 0.0 0 0.00 0.00 0.00 0.00
06/20/18 10:38:33 PM 234 0.0 12.0 61 70 81.3 68.6 29.956 2.77 0.0 0 0.00 0.00 0.00 0.00
06/20/18 10:39:26 PM 234 0.0 12.0 61 70 81.3 68.5 29.956 2.77 0.0 0 0.00 0.00 0.00 0.00
06/20/18 10:40:19 PM 234 0.0 12.0 61 71 81.2 68.5 29.957 2.77 0.0 0 0.00 0.00 0.00 0.00
06/20/18 10:41:27 PM 234 0.0 12.0 61 70 81.3 68.4 29.958 2.77 0.0 0 0.00 0.00 0.00 0.00
06/20/18 10:42:20 PM 234 0.0 12.0 61 71 81.2 68.4 29.956 2.77 0.0 0 0.00 0.00 0.00 0.00
06/20/18 10:43:31 PM 234 0.0 12.0 61 71 81.2 68.4 29.960 2.77 0.0 0 0.00 0.00 0.00 0.00
06/20/18 10:44:24 PM 234 0.0 12.0 61 71 81.2 68.5 29.957 2.77 0.0 0 0.00 0.00 0.00 0.00
06/20/18 10:45:17 PM 234 0.0 12.0 61 71 81.3 68.5 29.960 2.77 0.0 0 0.00 0.00 0.00 0.00
06/20/18 10:46:28 PM 234 0.0 12.0 61 71 81.2 68.4 29.958 2.77 0.0 0 0.00 0.00 0.00 0.00
06/20/18 10:47:36 PM 234 0.0 12.0 61 71 81.2 68.4 29.960 2.77 0.0 0 0.00 0.00 0.00 0.00
06/20/18 10:48:29 PM 234 0.0 12.0 61 71 81.2 68.3 29.958 2.77 0.0 0 0.00 0.00 0.00 0.00
06/20/18 10:49:24 PM 234 0.0 12.0 61 72 81.2 68.3 29.959 2.77 0.0 0 0.00 0.00 0.00 0.00
06/20/18 10:50:35 PM 234 0.0 12.0 61 72 81.2 68.3 29.959 2.77 0.0 0 0.00 0.00 0.00 0.00
06/20/18 10:51:28 PM 234 0.0 12.0 61 72 81.2 68.3 29.960 2.77 0.0 0 0.00 0.00 0.00 0.00
06/20/18 10:52:18 PM 234 0.0 12.0 61 73 81.2 68.3 29.960 2.77 0.0 0 0.00 0.00 0.00 0.00
06/20/18 10:53:30 PM 234 0.0 12.0 61 73 81.2 68.2 29.958 2.77 0.0 0 0.00 0.00 0.00 0.00
06/20/18 10:54:23 PM 234 0.0 12.0 61 73 81.2 68.2 29.959 2.77 0.0 0 0.00 0.00 0.00 0.00
06/20/18 10:55:37 PM 234 0.0 12.0 61 73 81.2 68.1 29.959 2.77 0.0 0 0.00 0.00 0.00 0.00
06/20/18 10:56:30 PM 234 0.0 12.0 61 73 81.1 68.1 29.959 2.77 0.0 0 0.00 0.00 0.00 0.00
06/20/18 10:57:23 PM 234 0.0 12.0 61 73 81.2 68.0 29.959 2.77 0.0 0 0.00 0.00 0.00 0.00
06/20/18 10:58:31 PM 234 0.0 12.0 61 73 81.1 67.9 29.961 2.77 0.0 0 0.00 0.00 0.00 0.00
06/20/18 10:59:21 PM 234 0.0 12.0 61 74 81.2 67.9 29.959 2.77 0.0 0 0.00 0.00 0.00 0.00
06/20/18 11:00:36 PM 234 0.0 12.0 61 74 81.1 67.8 29.960 2.77 0.0 0 0.00 0.00 0.00 0.00
06/20/18 11:01:29 PM 234 0.0 12.0 61 74 81.1 67.8 29.964 2.77 0.0 0 0.00 0.00 0.00 0.00
06/20/18 11:02:22 PM 234 0.0 12.0 61 74 81.1 67.8 29.961 2.77 0.0 0 0.00 0.00 0.00 0.00
06/20/18 11:03:30 PM 234 0.0 12.0 61 74 81.1 67.7 29.961 2.77 0.0 0 0.00 0.00 0.00 0.00
06/20/18 11:04:24 PM 234 0.0 12.0 61 74 81.1 67.7 29.962 2.77 0.0 0 0.00 0.00 0.00 0.00
06/20/18 11:05:35 PM 234 0.0 12.0 61 74 81.1 67.8 29.961 2.77 0.0 0 0.00 0.00 0.00 0.00
06/20/18 11:06:28 PM 234 0.0 12.0 61 74 81.1 67.8 29.961 2.77 0.0 0 0.00 0.00 0.00 0.00
06/20/18 11:07:21 PM 234 0.0 12.0 61 74 81.1 67.7 29.960 2.77 0.0 0 0.00 0.00 0.00 0.00
06/20/18 11:08:29 PM 234 0.0 12.0 61 74 81.1 67.7 29.960 2.77 0.0 0 0.00 0.00 0.00 0.00
06/20/18 11:09:22 PM 234 0.0 12.0 61 74 81.1 67.6 29.962 2.77 0.0 0 0.00 0.00 0.00 0.00
06/20/18 11:10:34 PM 234 0.0 12.0 61 74 81.0 67.5 29.960 2.77 0.0 0 0.00 0.00 0.00 0.00
06/20/18 11:11:27 PM 234 0.0 12.0 61 74 81.1 67.5 29.962 2.77 0.0 0 0.00 0.00 0.00 0.00
06/20/18 11:12:18 PM 234 0.0 12.0 61 75 81.0 67.4 29.963 2.77 0.0 0 0.00 0.00 0.00 0.00
06/20/18 11:13:32 PM 234 0.0 12.0 61 75 81.0 67.4 29.962 2.77 0.0 0 0.00 0.00 0.00 0.00
06/20/18 11:14:22 PM 234 0.0 12.0 61 75 81.1 67.4 29.962 2.77 0.0 0 0.00 0.00 0.00 0.00
06/20/18 11:15:34 PM 234 0.0 12.0 61 75 81.0 67.4 29.960 2.77 0.0 0 0.00 0.00 0.00 0.00
06/20/18 11:16:27 PM 234 0.0 12.0 61 75 81.0 67.4 29.961 2.77 0.0 0 0.00 0.00 0.00 0.00
06/20/18 11:17:20 PM 234 0.0 12.0 61 75 81.0 67.3 29.960 2.77 0.0 0 0.00 0.00 0.00 0.00
06/20/18 11:18:31 PM 234 0.0 12.0 61 75 81.0 67.3 29.960 2.77 0.0 0 0.00 0.00 0.00 0.00
06/20/18 11:19:18 PM 234 0.0 12.0 61 75 81.0 67.2 29.962 2.77 0.0 0 0.00 0.00 0.00 0.00
06/20/18 11:20:33 PM 234 0.0 12.0 61 75 80.9 67.2 29.961 2.77 0.0 0 0.00 0.00 0.00 0.00
06/20/18 11:21:26 PM 234 0.0 12.0 61 75 81.0 67.1 29.959 2.77 0.0 0 0.00 0.00 0.00 0.00
06/20/18 11:22:19 PM 234 0.0 12.0 61 75 81.0 67.1 29.963 2.77 0.0 0 0.00 0.00 0.00 0.00
06/20/18 11:23:33 PM 234 0.0 12.0 61 75 80.9 67.0 29.960 2.77 0.0 0 0.00 0.00 0.00 0.00
06/20/18 11:24:26 PM 234 0.0 12.0 61 75 80.9 67.0 29.960 2.77 0.0 0 0.00 0.00 0.00 0.00
06/20/18 11:25:34 PM 234 0.0 12.0 61 75 81.0 67.0 29.960 2.77 0.0 0 0.00 0.00 0.00 0.00
06/20/18 11:26:27 PM 234 0.0 12.0 61 75 81.0 66.9 29.960 2.77 0.0 0 0.00 0.00 0.00 0.00
06/20/18 11:27:20 PM 234 0.0 12.0 61 76 81.0 66.8 29.959 2.77 0.0 0 0.00 0.00 0.00 0.00
06/20/18 11:28:32 PM 234 0.0 12.0 61 76 81.0 66.8 29.961 2.77 0.0 0 0.00 0.00 0.00 0.00
06/20/18 11:29:22 PM 234 0.0 12.0 61 76 81.0 66.8 29.959 2.77 0.0 0 0.00 0.00 0.00 0.00
06/20/18 11:30:33 PM 234 0.0 12.0 61 76 81.0 66.8 29.960 2.77 0.0 0 0.00 0.00 0.00 0.00
06/20/18 11:31:26 PM 234 0.0 12.0 61 76 81.0 66.8 29.959 2.77 0.0 0 0.00 0.00 0.00 0.00
06/20/18 11:32:19 PM 234 0.0 12.0 61 76 81.0 66.8 29.960 2.77 0.0 0 0.00 0.00 0.00 0.00
06/20/18 11:33:31 PM 234 0.0 12.0 61 76 80.9 66.8 29.961 2.77 0.0 0 0.00 0.00 0.00 0.00
06/20/18 11:34:24 PM 234 0.0 12.0 61 76 80.9 66.7 29.962 2.77 0.0 0 0.00 0.00 0.00 0.00
06/20/18 11:35:29 PM 234 0.0 12.0 61 76 80.9 66.7 29.958 2.77 0.0 0 0.00 0.00 0.00 0.00
06/20/18 11:36:23 PM 234 0.0 12.0 61 76 80.9 66.7 29.960 2.77 0.0 0 0.00 0.00 0.00 0.00
06/20/18 11:37:35 PM 234 0.0 12.0 61 76 80.9 66.6 29.958 2.77 0.0 0 0.00 0.00 0.00 0.00
06/20/18 11:38:28 PM 234 0.0 12.0 61 76 81.0 66.6 29.957 2.77 0.0 0 0.00 0.00 0.00 0.00
06/20/18 11:39:19 PM 234 0.0 12.0 61 76 80.9 66.6 29.958 2.77 0.0 0 0.00 0.00 0.00 0.00
06/20/18 11:40:34 PM 234 0.0 12.0 61 76 80.9 66.6 29.959 2.77 0.0 0 0.00 0.00 0.00 0.00
06/20/18 11:41:21 PM 234 0.0 12.0 61 77 80.9 66.5 29.958 2.77 0.0 0 0.00 0.00 0.00 0.00
06/20/18 11:42:35 PM 234 0.0 12.0 61 77 80.9 66.5 29.960 2.77 0.0 0 0.00 0.00 0.00 0.00
06/20/18 11:43:28 PM 234 0.0 12.0 61 77 80.9 66.5 29.960 2.77 0.0 0 0.00 0.00 0.00 0.00
06/20/18 11:44:18 PM 234 0.0 12.0 61 77 80.9 66.5 29.961 2.77 0.0 0 0.00 0.00 0.00 0.00
06/20/18 11:45:33 PM 234 0.0 12.0 61 77 80.9 66.5 29.960 2.77 0.0 0 0.00 0.00 0.00 0.00
06/20/18 11:46:20 PM 234 0.0 12.0 61 77 80.9 66.5 29.960 2.77 0.0 0 0.00 0.00 0.00 0.00
06/20/18 11:47:34 PM 234 0.0 12.0 61 77 80.9 66.5 29.962 2.77 0.0 0 0.00 0.00 0.00 0.00
06/20/18 11:48:25 PM 234 0.0 12.0 61 77 80.9 66.4 29.962 2.77 0.0 0 0.00 0.00 0.00 0.00
06/20/18 11:49:18 PM 234 0.0 12.0 61 77 80.9 66.4 29.960 2.77 0.0 0 0.00 0.00 0.00 0.00
06/20/18 11:50:29 PM 234 0.0 12.0 61 77 80.9 66.4 29.960 2.77 0.0 0 0.00 0.00 0.00 0.00
06/20/18 11:51:22 PM 234 0.0 12.0 61 77 80.9 66.4 29.960 2.77 0.0 0 0.00 0.00 0.00 0.00
06/20/18 11:52:30 PM 234 0.0 12.0 61 77 80.9 66.3 29.959 2.77 0.0 0 0.00 0.00 0.00 0.00
06/20/18 11:53:24 PM 234 0.0 12.0 61 77 80.9 66.3 29.959 2.77 0.0 0 0.00 0.00 0.00 0.00
06/20/18 11:54:17 PM 234 2.0 12.0 61 77 80.9 66.3 29.961 2.77 0.0 0 0.00 0.00 0.00 0.00
06/20/18 11:55:31 PM 234 1.0 12.0 61 77 80.8 66.3 29.960 2.77 0.0 0 0.00 0.00 0.00 0.00
06/20/18 11:56:24 PM 234 0.0 12.0 61 77 80.8 66.3 29.959 2.77 0.0 0 0.00 0.00 0.00 0.00
06/20/18 11:57:33 PM 234 1.0 12.0 61 77 80.8 66.3 29.957 2.77 0.0 0 0.00 0.00 0.00 0.00
06/20/18 11:58:23 PM 234 0.0 12.0 61 77 80.8 66.2 29.960 2.77 0.0 0 0.00 0.00 0.00 0.00

University Police wind advisory reference

For campus closure information please call the campus Emergency Hotline at (909) 537-5999

© All rights reserved. Unauthorized duplication or distribution is prohibited

Never base important decisions on this or any weather information obtained from the Internet

California State University, San Bernardino
5500 University Parkway, San Bernardino, CA. 92407
Phone: (909) 537-5108, Email: Weather Webmaster
Last Updated: